<?xml version="1.0" encoding="UTF-8" standalone="no" ?>
<gpx xmlns="http://www.topografix.com/GPX/1/1" xmlns:xsi="http://www.w3.org/2001/XMLSchema-instance" xsi:schemaLocation="http://www.topografix.com/GPX/1/1 http://www.topografix.com/GPX/1/1/gpx.xsd" version="1.1" creator="VisuGPX - https://www.visugpx.com">
  <metadata>
    <name>cap le soir</name>
  </metadata>
  <trk>
    <name><![CDATA[20200923_182819.gpx]]></name>
    <trkseg>
      <trkpt lat="47.52081" lon="6.77555">
        <ele>374.47278</ele>
        <time>2020-09-23T16:28:29Z</time>
      </trkpt>
      <trkpt lat="47.52088" lon="6.77589">
        <ele>373.3523</ele>
        <time>2020-09-23T16:28:35Z</time>
      </trkpt>
      <trkpt lat="47.52087" lon="6.77634">
        <ele>376.0503</ele>
        <time>2020-09-23T16:28:45Z</time>
      </trkpt>
      <trkpt lat="47.52087" lon="6.77667">
        <ele>379.4331</ele>
        <time>2020-09-23T16:28:54Z</time>
      </trkpt>
      <trkpt lat="47.52089" lon="6.77677">
        <ele>379.97635</ele>
        <time>2020-09-23T16:28:59Z</time>
      </trkpt>
      <trkpt lat="47.52082" lon="6.77696">
        <ele>381.58228</ele>
        <time>2020-09-23T16:29:05Z</time>
      </trkpt>
      <trkpt lat="47.52073" lon="6.77707">
        <ele>383.68076</ele>
        <time>2020-09-23T16:29:10Z</time>
      </trkpt>
      <trkpt lat="47.52066" lon="6.77715">
        <ele>384.92538</ele>
        <time>2020-09-23T16:29:15Z</time>
      </trkpt>
      <trkpt lat="47.52054" lon="6.77726">
        <ele>385.5976</ele>
        <time>2020-09-23T16:29:20Z</time>
      </trkpt>
      <trkpt lat="47.52033" lon="6.7775">
        <ele>387.25693</ele>
        <time>2020-09-23T16:29:30Z</time>
      </trkpt>
      <trkpt lat="47.52012" lon="6.77766">
        <ele>387.94272</ele>
        <time>2020-09-23T16:29:40Z</time>
      </trkpt>
      <trkpt lat="47.51988" lon="6.77794">
        <ele>388.59735</ele>
        <time>2020-09-23T16:29:50Z</time>
      </trkpt>
      <trkpt lat="47.51975" lon="6.77802">
        <ele>387.99673</ele>
        <time>2020-09-23T16:29:55Z</time>
      </trkpt>
      <trkpt lat="47.51962" lon="6.77812">
        <ele>387.99985</ele>
        <time>2020-09-23T16:30:00Z</time>
      </trkpt>
      <trkpt lat="47.5195" lon="6.77819">
        <ele>388.17548</ele>
        <time>2020-09-23T16:30:05Z</time>
      </trkpt>
      <trkpt lat="47.51926" lon="6.77841">
        <ele>387.80865</ele>
        <time>2020-09-23T16:30:15Z</time>
      </trkpt>
      <trkpt lat="47.51909" lon="6.7787">
        <ele>387.86478</ele>
        <time>2020-09-23T16:30:25Z</time>
      </trkpt>
      <trkpt lat="47.51896" lon="6.77891">
        <ele>386.3623</ele>
        <time>2020-09-23T16:30:35Z</time>
      </trkpt>
      <trkpt lat="47.5188" lon="6.77905">
        <ele>386.35608</ele>
        <time>2020-09-23T16:30:40Z</time>
      </trkpt>
      <trkpt lat="47.51869" lon="6.77919">
        <ele>386.33633</ele>
        <time>2020-09-23T16:30:45Z</time>
      </trkpt>
      <trkpt lat="47.5186" lon="6.77931">
        <ele>387.14783</ele>
        <time>2020-09-23T16:30:50Z</time>
      </trkpt>
      <trkpt lat="47.51851" lon="6.77945">
        <ele>387.844</ele>
        <time>2020-09-23T16:30:55Z</time>
      </trkpt>
      <trkpt lat="47.51839" lon="6.7796">
        <ele>387.9105</ele>
        <time>2020-09-23T16:31:00Z</time>
      </trkpt>
      <trkpt lat="47.51815" lon="6.77983">
        <ele>388.2056</ele>
        <time>2020-09-23T16:31:10Z</time>
      </trkpt>
      <trkpt lat="47.51788" lon="6.78002">
        <ele>389.09924</ele>
        <time>2020-09-23T16:31:20Z</time>
      </trkpt>
      <trkpt lat="47.51761" lon="6.78018">
        <ele>389.9316</ele>
        <time>2020-09-23T16:31:30Z</time>
      </trkpt>
      <trkpt lat="47.51745" lon="6.78027">
        <ele>389.59805</ele>
        <time>2020-09-23T16:31:35Z</time>
      </trkpt>
      <trkpt lat="47.51732" lon="6.78035">
        <ele>390.13843</ele>
        <time>2020-09-23T16:31:40Z</time>
      </trkpt>
      <trkpt lat="47.51722" lon="6.78041">
        <ele>390.84924</ele>
        <time>2020-09-23T16:31:45Z</time>
      </trkpt>
      <trkpt lat="47.51696" lon="6.78055">
        <ele>392.05478</ele>
        <time>2020-09-23T16:31:55Z</time>
      </trkpt>
      <trkpt lat="47.51674" lon="6.78075">
        <ele>392.3998</ele>
        <time>2020-09-23T16:32:05Z</time>
      </trkpt>
      <trkpt lat="47.5165" lon="6.78084">
        <ele>393.885</ele>
        <time>2020-09-23T16:32:15Z</time>
      </trkpt>
      <trkpt lat="47.51646" lon="6.78099">
        <ele>393.87775</ele>
        <time>2020-09-23T16:32:20Z</time>
      </trkpt>
      <trkpt lat="47.51638" lon="6.7811">
        <ele>394.4234</ele>
        <time>2020-09-23T16:32:25Z</time>
      </trkpt>
      <trkpt lat="47.5163" lon="6.78128">
        <ele>394.38806</ele>
        <time>2020-09-23T16:32:30Z</time>
      </trkpt>
      <trkpt lat="47.51609" lon="6.7816">
        <ele>393.85797</ele>
        <time>2020-09-23T16:32:40Z</time>
      </trkpt>
      <trkpt lat="47.51586" lon="6.78195">
        <ele>393.66156</ele>
        <time>2020-09-23T16:32:50Z</time>
      </trkpt>
      <trkpt lat="47.51566" lon="6.78216">
        <ele>392.88516</ele>
        <time>2020-09-23T16:33:00Z</time>
      </trkpt>
      <trkpt lat="47.51546" lon="6.78224">
        <ele>392.13272</ele>
        <time>2020-09-23T16:33:05Z</time>
      </trkpt>
      <trkpt lat="47.51537" lon="6.78229">
        <ele>391.7534</ele>
        <time>2020-09-23T16:33:10Z</time>
      </trkpt>
      <trkpt lat="47.51519" lon="6.78231">
        <ele>391.75858</ele>
        <time>2020-09-23T16:33:15Z</time>
      </trkpt>
      <trkpt lat="47.51493" lon="6.7821">
        <ele>392.76877</ele>
        <time>2020-09-23T16:33:25Z</time>
      </trkpt>
      <trkpt lat="47.5146" lon="6.782">
        <ele>391.7492</ele>
        <time>2020-09-23T16:33:35Z</time>
      </trkpt>
      <trkpt lat="47.51432" lon="6.78201">
        <ele>386.2771</ele>
        <time>2020-09-23T16:33:45Z</time>
      </trkpt>
      <trkpt lat="47.51419" lon="6.78242">
        <ele>383.53427</ele>
        <time>2020-09-23T16:33:55Z</time>
      </trkpt>
      <trkpt lat="47.51413" lon="6.78264">
        <ele>383.66827</ele>
        <time>2020-09-23T16:34:00Z</time>
      </trkpt>
      <trkpt lat="47.51405" lon="6.78281">
        <ele>383.3192</ele>
        <time>2020-09-23T16:34:05Z</time>
      </trkpt>
      <trkpt lat="47.514" lon="6.78299">
        <ele>382.60968</ele>
        <time>2020-09-23T16:34:10Z</time>
      </trkpt>
      <trkpt lat="47.51385" lon="6.78345">
        <ele>383.13116</ele>
        <time>2020-09-23T16:34:20Z</time>
      </trkpt>
      <trkpt lat="47.51372" lon="6.7839">
        <ele>381.8056</ele>
        <time>2020-09-23T16:34:30Z</time>
      </trkpt>
      <trkpt lat="47.51364" lon="6.7843">
        <ele>381.36725</ele>
        <time>2020-09-23T16:34:40Z</time>
      </trkpt>
      <trkpt lat="47.51357" lon="6.78448">
        <ele>380.22876</ele>
        <time>2020-09-23T16:34:45Z</time>
      </trkpt>
      <trkpt lat="47.51348" lon="6.78467">
        <ele>380.47702</ele>
        <time>2020-09-23T16:34:50Z</time>
      </trkpt>
      <trkpt lat="47.51343" lon="6.78483">
        <ele>380.44064</ele>
        <time>2020-09-23T16:34:55Z</time>
      </trkpt>
      <trkpt lat="47.51325" lon="6.78529">
        <ele>380.09683</ele>
        <time>2020-09-23T16:35:05Z</time>
      </trkpt>
      <trkpt lat="47.51308" lon="6.78578">
        <ele>381.38074</ele>
        <time>2020-09-23T16:35:15Z</time>
      </trkpt>
      <trkpt lat="47.51292" lon="6.7863">
        <ele>375.52997</ele>
        <time>2020-09-23T16:35:25Z</time>
      </trkpt>
      <trkpt lat="47.51287" lon="6.7865">
        <ele>373.66797</ele>
        <time>2020-09-23T16:35:30Z</time>
      </trkpt>
      <trkpt lat="47.51283" lon="6.78671">
        <ele>376.67654</ele>
        <time>2020-09-23T16:35:35Z</time>
      </trkpt>
      <trkpt lat="47.51279" lon="6.78689">
        <ele>376.931</ele>
        <time>2020-09-23T16:35:40Z</time>
      </trkpt>
      <trkpt lat="47.51268" lon="6.78729">
        <ele>376.50623</ele>
        <time>2020-09-23T16:35:50Z</time>
      </trkpt>
      <trkpt lat="47.51261" lon="6.78771">
        <ele>374.4977</ele>
        <time>2020-09-23T16:36:00Z</time>
      </trkpt>
    </trkseg>
  </trk>
  <trk>
    <name><![CDATA[20200923_183559.gpx]]></name>
    <trkseg>
      <trkpt lat="47.51267" lon="6.7877">
        <ele>410</ele>
        <time>2020-09-23T16:36:00Z</time>
      </trkpt>
      <trkpt lat="47.51267" lon="6.78773">
        <ele>410</ele>
        <time>2020-09-23T16:36:01Z</time>
      </trkpt>
      <trkpt lat="47.51264" lon="6.7878">
        <ele>411</ele>
        <time>2020-09-23T16:36:03Z</time>
      </trkpt>
      <trkpt lat="47.51263" lon="6.78783">
        <ele>412</ele>
        <time>2020-09-23T16:36:04Z</time>
      </trkpt>
      <trkpt lat="47.51263" lon="6.78787">
        <ele>412</ele>
        <time>2020-09-23T16:36:05Z</time>
      </trkpt>
      <trkpt lat="47.51264" lon="6.78795">
        <ele>413</ele>
        <time>2020-09-23T16:36:07Z</time>
      </trkpt>
      <trkpt lat="47.51264" lon="6.78797">
        <ele>412</ele>
        <time>2020-09-23T16:36:08Z</time>
      </trkpt>
      <trkpt lat="47.51263" lon="6.78807">
        <ele>412</ele>
        <time>2020-09-23T16:36:11Z</time>
      </trkpt>
      <trkpt lat="47.51262" lon="6.78816">
        <ele>409</ele>
        <time>2020-09-23T16:36:13Z</time>
      </trkpt>
      <trkpt lat="47.51262" lon="6.78824">
        <ele>408</ele>
        <time>2020-09-23T16:36:15Z</time>
      </trkpt>
      <trkpt lat="47.51261" lon="6.78832">
        <ele>410</ele>
        <time>2020-09-23T16:36:17Z</time>
      </trkpt>
      <trkpt lat="47.51259" lon="6.78841">
        <ele>410</ele>
        <time>2020-09-23T16:36:20Z</time>
      </trkpt>
      <trkpt lat="47.51256" lon="6.78847">
        <ele>411</ele>
        <time>2020-09-23T16:36:22Z</time>
      </trkpt>
      <trkpt lat="47.51252" lon="6.78854">
        <ele>411</ele>
        <time>2020-09-23T16:36:24Z</time>
      </trkpt>
      <trkpt lat="47.51249" lon="6.78861">
        <ele>411</ele>
        <time>2020-09-23T16:36:26Z</time>
      </trkpt>
      <trkpt lat="47.51247" lon="6.78868">
        <ele>411</ele>
        <time>2020-09-23T16:36:28Z</time>
      </trkpt>
      <trkpt lat="47.51245" lon="6.78875">
        <ele>411</ele>
        <time>2020-09-23T16:36:30Z</time>
      </trkpt>
      <trkpt lat="47.51244" lon="6.78882">
        <ele>410</ele>
        <time>2020-09-23T16:36:32Z</time>
      </trkpt>
      <trkpt lat="47.5124" lon="6.7889">
        <ele>411</ele>
        <time>2020-09-23T16:36:34Z</time>
      </trkpt>
      <trkpt lat="47.51237" lon="6.78897">
        <ele>411</ele>
        <time>2020-09-23T16:36:36Z</time>
      </trkpt>
      <trkpt lat="47.51233" lon="6.78902">
        <ele>410</ele>
        <time>2020-09-23T16:36:38Z</time>
      </trkpt>
      <trkpt lat="47.5123" lon="6.78908">
        <ele>409</ele>
        <time>2020-09-23T16:36:40Z</time>
      </trkpt>
      <trkpt lat="47.51227" lon="6.78914">
        <ele>410</ele>
        <time>2020-09-23T16:36:42Z</time>
      </trkpt>
      <trkpt lat="47.51225" lon="6.7892">
        <ele>410</ele>
        <time>2020-09-23T16:36:44Z</time>
      </trkpt>
      <trkpt lat="47.51222" lon="6.78926">
        <ele>411</ele>
        <time>2020-09-23T16:36:46Z</time>
      </trkpt>
      <trkpt lat="47.51218" lon="6.78933">
        <ele>410</ele>
        <time>2020-09-23T16:36:48Z</time>
      </trkpt>
      <trkpt lat="47.51213" lon="6.7894">
        <ele>410</ele>
        <time>2020-09-23T16:36:50Z</time>
      </trkpt>
      <trkpt lat="47.51209" lon="6.78945">
        <ele>410</ele>
        <time>2020-09-23T16:36:52Z</time>
      </trkpt>
      <trkpt lat="47.51205" lon="6.78951">
        <ele>410</ele>
        <time>2020-09-23T16:36:54Z</time>
      </trkpt>
      <trkpt lat="47.51202" lon="6.78958">
        <ele>410</ele>
        <time>2020-09-23T16:36:56Z</time>
      </trkpt>
      <trkpt lat="47.512" lon="6.78963">
        <ele>410</ele>
        <time>2020-09-23T16:36:58Z</time>
      </trkpt>
      <trkpt lat="47.51196" lon="6.7897">
        <ele>411</ele>
        <time>2020-09-23T16:37:00Z</time>
      </trkpt>
      <trkpt lat="47.51192" lon="6.78977">
        <ele>411</ele>
        <time>2020-09-23T16:37:02Z</time>
      </trkpt>
      <trkpt lat="47.51188" lon="6.78984">
        <ele>411</ele>
        <time>2020-09-23T16:37:04Z</time>
      </trkpt>
      <trkpt lat="47.51187" lon="6.7899">
        <ele>412</ele>
        <time>2020-09-23T16:37:06Z</time>
      </trkpt>
      <trkpt lat="47.51183" lon="6.78999">
        <ele>412</ele>
        <time>2020-09-23T16:37:08Z</time>
      </trkpt>
      <trkpt lat="47.5118" lon="6.79006">
        <ele>412</ele>
        <time>2020-09-23T16:37:10Z</time>
      </trkpt>
      <trkpt lat="47.51178" lon="6.79014">
        <ele>413</ele>
        <time>2020-09-23T16:37:12Z</time>
      </trkpt>
      <trkpt lat="47.51176" lon="6.79021">
        <ele>414</ele>
        <time>2020-09-23T16:37:14Z</time>
      </trkpt>
      <trkpt lat="47.51177" lon="6.79024">
        <ele>414</ele>
        <time>2020-09-23T16:37:15Z</time>
      </trkpt>
      <trkpt lat="47.51181" lon="6.7903">
        <ele>419</ele>
        <time>2020-09-23T16:37:18Z</time>
      </trkpt>
      <trkpt lat="47.51182" lon="6.79032">
        <ele>420</ele>
        <time>2020-09-23T16:37:19Z</time>
      </trkpt>
      <trkpt lat="47.51185" lon="6.79033">
        <ele>420</ele>
        <time>2020-09-23T16:37:20Z</time>
      </trkpt>
      <trkpt lat="47.51189" lon="6.79037">
        <ele>421</ele>
        <time>2020-09-23T16:37:22Z</time>
      </trkpt>
      <trkpt lat="47.51192" lon="6.79039">
        <ele>421</ele>
        <time>2020-09-23T16:37:23Z</time>
      </trkpt>
      <trkpt lat="47.51197" lon="6.79043">
        <ele>422</ele>
        <time>2020-09-23T16:37:25Z</time>
      </trkpt>
      <trkpt lat="47.512" lon="6.79046">
        <ele>422</ele>
        <time>2020-09-23T16:37:26Z</time>
      </trkpt>
      <trkpt lat="47.51204" lon="6.7905">
        <ele>423</ele>
        <time>2020-09-23T16:37:28Z</time>
      </trkpt>
      <trkpt lat="47.51205" lon="6.79053">
        <ele>423</ele>
        <time>2020-09-23T16:37:29Z</time>
      </trkpt>
      <trkpt lat="47.51209" lon="6.79059">
        <ele>424</ele>
        <time>2020-09-23T16:37:31Z</time>
      </trkpt>
      <trkpt lat="47.5121" lon="6.79063">
        <ele>425</ele>
        <time>2020-09-23T16:37:32Z</time>
      </trkpt>
      <trkpt lat="47.51211" lon="6.79066">
        <ele>425</ele>
        <time>2020-09-23T16:37:33Z</time>
      </trkpt>
      <trkpt lat="47.51211" lon="6.79073">
        <ele>426</ele>
        <time>2020-09-23T16:37:35Z</time>
      </trkpt>
      <trkpt lat="47.51211" lon="6.79077">
        <ele>427</ele>
        <time>2020-09-23T16:37:36Z</time>
      </trkpt>
      <trkpt lat="47.51211" lon="6.79081">
        <ele>427</ele>
        <time>2020-09-23T16:37:37Z</time>
      </trkpt>
      <trkpt lat="47.51211" lon="6.79088">
        <ele>427</ele>
        <time>2020-09-23T16:37:39Z</time>
      </trkpt>
      <trkpt lat="47.51212" lon="6.79096">
        <ele>427</ele>
        <time>2020-09-23T16:37:42Z</time>
      </trkpt>
      <trkpt lat="47.51213" lon="6.79102">
        <ele>427</ele>
        <time>2020-09-23T16:37:46Z</time>
      </trkpt>
      <trkpt lat="47.51217" lon="6.79105">
        <ele>427</ele>
        <time>2020-09-23T16:37:52Z</time>
      </trkpt>
      <trkpt lat="47.51215" lon="6.79112">
        <ele>423</ele>
        <time>2020-09-23T16:37:58Z</time>
      </trkpt>
      <trkpt lat="47.51212" lon="6.79119">
        <ele>422</ele>
        <time>2020-09-23T16:38:02Z</time>
      </trkpt>
      <trkpt lat="47.51208" lon="6.79126">
        <ele>422</ele>
        <time>2020-09-23T16:38:05Z</time>
      </trkpt>
      <trkpt lat="47.51205" lon="6.79131">
        <ele>422</ele>
        <time>2020-09-23T16:38:07Z</time>
      </trkpt>
      <trkpt lat="47.51202" lon="6.79137">
        <ele>422</ele>
        <time>2020-09-23T16:38:10Z</time>
      </trkpt>
      <trkpt lat="47.512" lon="6.79145">
        <ele>420</ele>
        <time>2020-09-23T16:38:15Z</time>
      </trkpt>
      <trkpt lat="47.51196" lon="6.79153">
        <ele>420</ele>
        <time>2020-09-23T16:38:18Z</time>
      </trkpt>
      <trkpt lat="47.51192" lon="6.7916">
        <ele>419</ele>
        <time>2020-09-23T16:38:21Z</time>
      </trkpt>
      <trkpt lat="47.51189" lon="6.79166">
        <ele>419</ele>
        <time>2020-09-23T16:38:23Z</time>
      </trkpt>
      <trkpt lat="47.51186" lon="6.79172">
        <ele>418</ele>
        <time>2020-09-23T16:38:25Z</time>
      </trkpt>
      <trkpt lat="47.51183" lon="6.79179">
        <ele>419</ele>
        <time>2020-09-23T16:38:27Z</time>
      </trkpt>
      <trkpt lat="47.51181" lon="6.79187">
        <ele>418</ele>
        <time>2020-09-23T16:38:29Z</time>
      </trkpt>
      <trkpt lat="47.51178" lon="6.79195">
        <ele>418</ele>
        <time>2020-09-23T16:38:31Z</time>
      </trkpt>
      <trkpt lat="47.51175" lon="6.79205">
        <ele>418</ele>
        <time>2020-09-23T16:38:33Z</time>
      </trkpt>
      <trkpt lat="47.51172" lon="6.79215">
        <ele>418</ele>
        <time>2020-09-23T16:38:35Z</time>
      </trkpt>
      <trkpt lat="47.51169" lon="6.79224">
        <ele>417</ele>
        <time>2020-09-23T16:38:37Z</time>
      </trkpt>
      <trkpt lat="47.51166" lon="6.79233">
        <ele>417</ele>
        <time>2020-09-23T16:38:39Z</time>
      </trkpt>
      <trkpt lat="47.51162" lon="6.79243">
        <ele>417</ele>
        <time>2020-09-23T16:38:41Z</time>
      </trkpt>
      <trkpt lat="47.51158" lon="6.79251">
        <ele>416</ele>
        <time>2020-09-23T16:38:43Z</time>
      </trkpt>
      <trkpt lat="47.51156" lon="6.79257">
        <ele>415</ele>
        <time>2020-09-23T16:38:45Z</time>
      </trkpt>
      <trkpt lat="47.51153" lon="6.79264">
        <ele>415</ele>
        <time>2020-09-23T16:38:47Z</time>
      </trkpt>
      <trkpt lat="47.51151" lon="6.79273">
        <ele>414</ele>
        <time>2020-09-23T16:38:49Z</time>
      </trkpt>
      <trkpt lat="47.51148" lon="6.79282">
        <ele>414</ele>
        <time>2020-09-23T16:38:51Z</time>
      </trkpt>
      <trkpt lat="47.51145" lon="6.79291">
        <ele>413</ele>
        <time>2020-09-23T16:38:53Z</time>
      </trkpt>
      <trkpt lat="47.51142" lon="6.79299">
        <ele>413</ele>
        <time>2020-09-23T16:38:55Z</time>
      </trkpt>
      <trkpt lat="47.51138" lon="6.79307">
        <ele>412</ele>
        <time>2020-09-23T16:38:57Z</time>
      </trkpt>
      <trkpt lat="47.51135" lon="6.79314">
        <ele>412</ele>
        <time>2020-09-23T16:38:59Z</time>
      </trkpt>
      <trkpt lat="47.51132" lon="6.79321">
        <ele>411</ele>
        <time>2020-09-23T16:39:01Z</time>
      </trkpt>
      <trkpt lat="47.51129" lon="6.79327">
        <ele>410</ele>
        <time>2020-09-23T16:39:03Z</time>
      </trkpt>
      <trkpt lat="47.51126" lon="6.79333">
        <ele>410</ele>
        <time>2020-09-23T16:39:05Z</time>
      </trkpt>
      <trkpt lat="47.51123" lon="6.79339">
        <ele>410</ele>
        <time>2020-09-23T16:39:07Z</time>
      </trkpt>
      <trkpt lat="47.51119" lon="6.79346">
        <ele>410</ele>
        <time>2020-09-23T16:39:09Z</time>
      </trkpt>
      <trkpt lat="47.51115" lon="6.79352">
        <ele>410</ele>
        <time>2020-09-23T16:39:11Z</time>
      </trkpt>
      <trkpt lat="47.5111" lon="6.79355">
        <ele>409</ele>
        <time>2020-09-23T16:39:14Z</time>
      </trkpt>
      <trkpt lat="47.51105" lon="6.79353">
        <ele>409</ele>
        <time>2020-09-23T16:39:16Z</time>
      </trkpt>
      <trkpt lat="47.51101" lon="6.79349">
        <ele>409</ele>
        <time>2020-09-23T16:39:18Z</time>
      </trkpt>
      <trkpt lat="47.51097" lon="6.79342">
        <ele>409</ele>
        <time>2020-09-23T16:39:20Z</time>
      </trkpt>
      <trkpt lat="47.51094" lon="6.79336">
        <ele>410</ele>
        <time>2020-09-23T16:39:22Z</time>
      </trkpt>
      <trkpt lat="47.5109" lon="6.7933">
        <ele>410</ele>
        <time>2020-09-23T16:39:24Z</time>
      </trkpt>
      <trkpt lat="47.51086" lon="6.79326">
        <ele>410</ele>
        <time>2020-09-23T16:39:26Z</time>
      </trkpt>
      <trkpt lat="47.51083" lon="6.7932">
        <ele>410</ele>
        <time>2020-09-23T16:39:28Z</time>
      </trkpt>
      <trkpt lat="47.51081" lon="6.79313">
        <ele>410</ele>
        <time>2020-09-23T16:39:30Z</time>
      </trkpt>
      <trkpt lat="47.51078" lon="6.79306">
        <ele>410</ele>
        <time>2020-09-23T16:39:32Z</time>
      </trkpt>
      <trkpt lat="47.51075" lon="6.79299">
        <ele>410</ele>
        <time>2020-09-23T16:39:34Z</time>
      </trkpt>
      <trkpt lat="47.51071" lon="6.79292">
        <ele>410</ele>
        <time>2020-09-23T16:39:36Z</time>
      </trkpt>
      <trkpt lat="47.51068" lon="6.79285">
        <ele>410</ele>
        <time>2020-09-23T16:39:38Z</time>
      </trkpt>
      <trkpt lat="47.51065" lon="6.79277">
        <ele>410</ele>
        <time>2020-09-23T16:39:40Z</time>
      </trkpt>
      <trkpt lat="47.51062" lon="6.79271">
        <ele>409</ele>
        <time>2020-09-23T16:39:42Z</time>
      </trkpt>
      <trkpt lat="47.5106" lon="6.79264">
        <ele>409</ele>
        <time>2020-09-23T16:39:44Z</time>
      </trkpt>
      <trkpt lat="47.51058" lon="6.79256">
        <ele>408</ele>
        <time>2020-09-23T16:39:46Z</time>
      </trkpt>
      <trkpt lat="47.51056" lon="6.79248">
        <ele>408</ele>
        <time>2020-09-23T16:39:48Z</time>
      </trkpt>
      <trkpt lat="47.51054" lon="6.7924">
        <ele>408</ele>
        <time>2020-09-23T16:39:50Z</time>
      </trkpt>
      <trkpt lat="47.51053" lon="6.79231">
        <ele>407</ele>
        <time>2020-09-23T16:39:52Z</time>
      </trkpt>
      <trkpt lat="47.51052" lon="6.79222">
        <ele>407</ele>
        <time>2020-09-23T16:39:54Z</time>
      </trkpt>
      <trkpt lat="47.51051" lon="6.79213">
        <ele>406</ele>
        <time>2020-09-23T16:39:56Z</time>
      </trkpt>
      <trkpt lat="47.51051" lon="6.79204">
        <ele>405</ele>
        <time>2020-09-23T16:39:58Z</time>
      </trkpt>
      <trkpt lat="47.51051" lon="6.79196">
        <ele>405</ele>
        <time>2020-09-23T16:40:00Z</time>
      </trkpt>
      <trkpt lat="47.51051" lon="6.79186">
        <ele>405</ele>
        <time>2020-09-23T16:40:02Z</time>
      </trkpt>
      <trkpt lat="47.51051" lon="6.79177">
        <ele>405</ele>
        <time>2020-09-23T16:40:04Z</time>
      </trkpt>
      <trkpt lat="47.5105" lon="6.79169">
        <ele>405</ele>
        <time>2020-09-23T16:40:06Z</time>
      </trkpt>
      <trkpt lat="47.51047" lon="6.79163">
        <ele>404</ele>
        <time>2020-09-23T16:40:08Z</time>
      </trkpt>
      <trkpt lat="47.51043" lon="6.79156">
        <ele>403</ele>
        <time>2020-09-23T16:40:11Z</time>
      </trkpt>
      <trkpt lat="47.51039" lon="6.79153">
        <ele>404</ele>
        <time>2020-09-23T16:40:14Z</time>
      </trkpt>
      <trkpt lat="47.51033" lon="6.79153">
        <ele>404</ele>
        <time>2020-09-23T16:40:17Z</time>
      </trkpt>
      <trkpt lat="47.51028" lon="6.7915">
        <ele>403</ele>
        <time>2020-09-23T16:40:20Z</time>
      </trkpt>
      <trkpt lat="47.51026" lon="6.79142">
        <ele>402</ele>
        <time>2020-09-23T16:40:22Z</time>
      </trkpt>
      <trkpt lat="47.51024" lon="6.79131">
        <ele>401</ele>
        <time>2020-09-23T16:40:24Z</time>
      </trkpt>
      <trkpt lat="47.51022" lon="6.79121">
        <ele>400</ele>
        <time>2020-09-23T16:40:26Z</time>
      </trkpt>
      <trkpt lat="47.51022" lon="6.79112">
        <ele>398</ele>
        <time>2020-09-23T16:40:28Z</time>
      </trkpt>
      <trkpt lat="47.51019" lon="6.79105">
        <ele>398</ele>
        <time>2020-09-23T16:40:30Z</time>
      </trkpt>
      <trkpt lat="47.51017" lon="6.79097">
        <ele>398</ele>
        <time>2020-09-23T16:40:32Z</time>
      </trkpt>
      <trkpt lat="47.51016" lon="6.7909">
        <ele>397</ele>
        <time>2020-09-23T16:40:34Z</time>
      </trkpt>
      <trkpt lat="47.51015" lon="6.79081">
        <ele>396</ele>
        <time>2020-09-23T16:40:36Z</time>
      </trkpt>
      <trkpt lat="47.51012" lon="6.79073">
        <ele>396</ele>
        <time>2020-09-23T16:40:38Z</time>
      </trkpt>
      <trkpt lat="47.51011" lon="6.79066">
        <ele>395</ele>
        <time>2020-09-23T16:40:40Z</time>
      </trkpt>
      <trkpt lat="47.5101" lon="6.79058">
        <ele>394</ele>
        <time>2020-09-23T16:40:42Z</time>
      </trkpt>
      <trkpt lat="47.51009" lon="6.79051">
        <ele>393</ele>
        <time>2020-09-23T16:40:44Z</time>
      </trkpt>
      <trkpt lat="47.5101" lon="6.79043">
        <ele>393</ele>
        <time>2020-09-23T16:40:46Z</time>
      </trkpt>
      <trkpt lat="47.51009" lon="6.79034">
        <ele>392</ele>
        <time>2020-09-23T16:40:48Z</time>
      </trkpt>
      <trkpt lat="47.51007" lon="6.79025">
        <ele>392</ele>
        <time>2020-09-23T16:40:50Z</time>
      </trkpt>
      <trkpt lat="47.51006" lon="6.79016">
        <ele>391</ele>
        <time>2020-09-23T16:40:52Z</time>
      </trkpt>
      <trkpt lat="47.51007" lon="6.79007">
        <ele>390</ele>
        <time>2020-09-23T16:40:54Z</time>
      </trkpt>
      <trkpt lat="47.51008" lon="6.78999">
        <ele>389</ele>
        <time>2020-09-23T16:40:56Z</time>
      </trkpt>
      <trkpt lat="47.51008" lon="6.78991">
        <ele>389</ele>
        <time>2020-09-23T16:40:58Z</time>
      </trkpt>
      <trkpt lat="47.51008" lon="6.78984">
        <ele>389</ele>
        <time>2020-09-23T16:41:00Z</time>
      </trkpt>
      <trkpt lat="47.51006" lon="6.78977">
        <ele>389</ele>
        <time>2020-09-23T16:41:02Z</time>
      </trkpt>
      <trkpt lat="47.51005" lon="6.78969">
        <ele>388</ele>
        <time>2020-09-23T16:41:04Z</time>
      </trkpt>
      <trkpt lat="47.51006" lon="6.7896">
        <ele>388</ele>
        <time>2020-09-23T16:41:06Z</time>
      </trkpt>
      <trkpt lat="47.51006" lon="6.78951">
        <ele>388</ele>
        <time>2020-09-23T16:41:08Z</time>
      </trkpt>
      <trkpt lat="47.51006" lon="6.78942">
        <ele>387</ele>
        <time>2020-09-23T16:41:10Z</time>
      </trkpt>
      <trkpt lat="47.51006" lon="6.78935">
        <ele>387</ele>
        <time>2020-09-23T16:41:12Z</time>
      </trkpt>
      <trkpt lat="47.51007" lon="6.78928">
        <ele>386</ele>
        <time>2020-09-23T16:41:14Z</time>
      </trkpt>
      <trkpt lat="47.51007" lon="6.78919">
        <ele>386</ele>
        <time>2020-09-23T16:41:17Z</time>
      </trkpt>
      <trkpt lat="47.51006" lon="6.7891">
        <ele>387</ele>
        <time>2020-09-23T16:41:19Z</time>
      </trkpt>
      <trkpt lat="47.51005" lon="6.78903">
        <ele>387</ele>
        <time>2020-09-23T16:41:21Z</time>
      </trkpt>
      <trkpt lat="47.51005" lon="6.78896">
        <ele>386</ele>
        <time>2020-09-23T16:41:23Z</time>
      </trkpt>
      <trkpt lat="47.51005" lon="6.78888">
        <ele>386</ele>
        <time>2020-09-23T16:41:25Z</time>
      </trkpt>
      <trkpt lat="47.51005" lon="6.78879">
        <ele>386</ele>
        <time>2020-09-23T16:41:27Z</time>
      </trkpt>
      <trkpt lat="47.51006" lon="6.78871">
        <ele>385</ele>
        <time>2020-09-23T16:41:29Z</time>
      </trkpt>
      <trkpt lat="47.51006" lon="6.78862">
        <ele>385</ele>
        <time>2020-09-23T16:41:31Z</time>
      </trkpt>
      <trkpt lat="47.51008" lon="6.78853">
        <ele>385</ele>
        <time>2020-09-23T16:41:33Z</time>
      </trkpt>
      <trkpt lat="47.51008" lon="6.78844">
        <ele>385</ele>
        <time>2020-09-23T16:41:35Z</time>
      </trkpt>
      <trkpt lat="47.5101" lon="6.78834">
        <ele>384</ele>
        <time>2020-09-23T16:41:37Z</time>
      </trkpt>
      <trkpt lat="47.51012" lon="6.78826">
        <ele>383</ele>
        <time>2020-09-23T16:41:39Z</time>
      </trkpt>
      <trkpt lat="47.51016" lon="6.7882">
        <ele>384</ele>
        <time>2020-09-23T16:41:41Z</time>
      </trkpt>
      <trkpt lat="47.51022" lon="6.78818">
        <ele>384</ele>
        <time>2020-09-23T16:41:43Z</time>
      </trkpt>
      <trkpt lat="47.51027" lon="6.78816">
        <ele>384</ele>
        <time>2020-09-23T16:41:45Z</time>
      </trkpt>
      <trkpt lat="47.51033" lon="6.78815">
        <ele>384</ele>
        <time>2020-09-23T16:41:47Z</time>
      </trkpt>
      <trkpt lat="47.51039" lon="6.78814">
        <ele>384</ele>
        <time>2020-09-23T16:41:49Z</time>
      </trkpt>
      <trkpt lat="47.51044" lon="6.78813">
        <ele>384</ele>
        <time>2020-09-23T16:41:51Z</time>
      </trkpt>
      <trkpt lat="47.51049" lon="6.78813">
        <ele>382</ele>
        <time>2020-09-23T16:41:55Z</time>
      </trkpt>
      <trkpt lat="47.51053" lon="6.78808">
        <ele>382</ele>
        <time>2020-09-23T16:41:58Z</time>
      </trkpt>
      <trkpt lat="47.51055" lon="6.78802">
        <ele>382</ele>
        <time>2020-09-23T16:42:00Z</time>
      </trkpt>
      <trkpt lat="47.51058" lon="6.78795">
        <ele>382</ele>
        <time>2020-09-23T16:42:03Z</time>
      </trkpt>
      <trkpt lat="47.51063" lon="6.78789">
        <ele>380</ele>
        <time>2020-09-23T16:42:06Z</time>
      </trkpt>
      <trkpt lat="47.51069" lon="6.78788">
        <ele>379</ele>
        <time>2020-09-23T16:42:08Z</time>
      </trkpt>
      <trkpt lat="47.51076" lon="6.78787">
        <ele>380</ele>
        <time>2020-09-23T16:42:10Z</time>
      </trkpt>
      <trkpt lat="47.51082" lon="6.78787">
        <ele>380</ele>
        <time>2020-09-23T16:42:12Z</time>
      </trkpt>
      <trkpt lat="47.51087" lon="6.78787">
        <ele>380</ele>
        <time>2020-09-23T16:42:14Z</time>
      </trkpt>
      <trkpt lat="47.51092" lon="6.78786">
        <ele>380</ele>
        <time>2020-09-23T16:42:16Z</time>
      </trkpt>
      <trkpt lat="47.51098" lon="6.78785">
        <ele>380</ele>
        <time>2020-09-23T16:42:19Z</time>
      </trkpt>
      <trkpt lat="47.51104" lon="6.78783">
        <ele>380</ele>
        <time>2020-09-23T16:42:22Z</time>
      </trkpt>
      <trkpt lat="47.51109" lon="6.78782">
        <ele>380</ele>
        <time>2020-09-23T16:42:24Z</time>
      </trkpt>
      <trkpt lat="47.51114" lon="6.78781">
        <ele>381</ele>
        <time>2020-09-23T16:42:26Z</time>
      </trkpt>
      <trkpt lat="47.51119" lon="6.7878">
        <ele>381</ele>
        <time>2020-09-23T16:42:28Z</time>
      </trkpt>
      <trkpt lat="47.51125" lon="6.78781">
        <ele>381</ele>
        <time>2020-09-23T16:42:31Z</time>
      </trkpt>
      <trkpt lat="47.5113" lon="6.78783">
        <ele>382</ele>
        <time>2020-09-23T16:42:34Z</time>
      </trkpt>
      <trkpt lat="47.51135" lon="6.78784">
        <ele>383</ele>
        <time>2020-09-23T16:42:38Z</time>
      </trkpt>
      <trkpt lat="47.51139" lon="6.78784">
        <ele>384</ele>
        <time>2020-09-23T16:42:43Z</time>
      </trkpt>
      <trkpt lat="47.51145" lon="6.78785">
        <ele>384</ele>
        <time>2020-09-23T16:42:48Z</time>
      </trkpt>
      <trkpt lat="47.51152" lon="6.78789">
        <ele>384</ele>
        <time>2020-09-23T16:42:52Z</time>
      </trkpt>
      <trkpt lat="47.51156" lon="6.78792">
        <ele>385</ele>
        <time>2020-09-23T16:42:55Z</time>
      </trkpt>
      <trkpt lat="47.51161" lon="6.78795">
        <ele>385</ele>
        <time>2020-09-23T16:42:58Z</time>
      </trkpt>
      <trkpt lat="47.51166" lon="6.78796">
        <ele>386</ele>
        <time>2020-09-23T16:43:01Z</time>
      </trkpt>
      <trkpt lat="47.51171" lon="6.78797">
        <ele>389</ele>
        <time>2020-09-23T16:43:08Z</time>
      </trkpt>
      <trkpt lat="47.51177" lon="6.78802">
        <ele>391</ele>
        <time>2020-09-23T16:43:13Z</time>
      </trkpt>
      <trkpt lat="47.51185" lon="6.78804">
        <ele>394</ele>
        <time>2020-09-23T16:43:19Z</time>
      </trkpt>
      <trkpt lat="47.51189" lon="6.78805">
        <ele>395</ele>
        <time>2020-09-23T16:43:22Z</time>
      </trkpt>
      <trkpt lat="47.51198" lon="6.78808">
        <ele>396</ele>
        <time>2020-09-23T16:43:28Z</time>
      </trkpt>
      <trkpt lat="47.51204" lon="6.78811">
        <ele>396</ele>
        <time>2020-09-23T16:43:31Z</time>
      </trkpt>
      <trkpt lat="47.51209" lon="6.78813">
        <ele>397</ele>
        <time>2020-09-23T16:43:34Z</time>
      </trkpt>
      <trkpt lat="47.51217" lon="6.78816">
        <ele>399</ele>
        <time>2020-09-23T16:43:38Z</time>
      </trkpt>
      <trkpt lat="47.51222" lon="6.78823">
        <ele>404</ele>
        <time>2020-09-23T16:43:45Z</time>
      </trkpt>
      <trkpt lat="47.51222" lon="6.78827">
        <ele>403</ele>
        <time>2020-09-23T16:44:01Z</time>
      </trkpt>
      <trkpt lat="47.51222" lon="6.78827">
        <ele>403</ele>
        <time>2020-09-23T16:44:01Z</time>
      </trkpt>
      <trkpt lat="47.51217" lon="6.78824">
        <ele>403</ele>
        <time>2020-09-23T16:44:36Z</time>
      </trkpt>
      <trkpt lat="47.51211" lon="6.78822">
        <ele>403</ele>
        <time>2020-09-23T16:44:41Z</time>
      </trkpt>
      <trkpt lat="47.51204" lon="6.78819">
        <ele>404</ele>
        <time>2020-09-23T16:44:46Z</time>
      </trkpt>
      <trkpt lat="47.512" lon="6.7882">
        <ele>404</ele>
        <time>2020-09-23T16:44:48Z</time>
      </trkpt>
      <trkpt lat="47.51196" lon="6.78817">
        <ele>404</ele>
        <time>2020-09-23T16:44:53Z</time>
      </trkpt>
      <trkpt lat="47.51191" lon="6.78815">
        <ele>402</ele>
        <time>2020-09-23T16:44:58Z</time>
      </trkpt>
      <trkpt lat="47.51186" lon="6.78815">
        <ele>402</ele>
        <time>2020-09-23T16:45:02Z</time>
      </trkpt>
      <trkpt lat="47.51182" lon="6.78813">
        <ele>402</ele>
        <time>2020-09-23T16:45:04Z</time>
      </trkpt>
      <trkpt lat="47.51178" lon="6.78809">
        <ele>400</ele>
        <time>2020-09-23T16:45:08Z</time>
      </trkpt>
      <trkpt lat="47.51174" lon="6.78804">
        <ele>399</ele>
        <time>2020-09-23T16:45:11Z</time>
      </trkpt>
      <trkpt lat="47.51168" lon="6.788">
        <ele>398</ele>
        <time>2020-09-23T16:45:15Z</time>
      </trkpt>
      <trkpt lat="47.51163" lon="6.78798">
        <ele>397</ele>
        <time>2020-09-23T16:45:18Z</time>
      </trkpt>
      <trkpt lat="47.51158" lon="6.78793">
        <ele>397</ele>
        <time>2020-09-23T16:45:21Z</time>
      </trkpt>
      <trkpt lat="47.51151" lon="6.78789">
        <ele>394</ele>
        <time>2020-09-23T16:45:23Z</time>
      </trkpt>
      <trkpt lat="47.51145" lon="6.78787">
        <ele>392</ele>
        <time>2020-09-23T16:45:25Z</time>
      </trkpt>
      <trkpt lat="47.51148" lon="6.78793">
        <ele>391</ele>
        <time>2020-09-23T16:45:36Z</time>
      </trkpt>
      <trkpt lat="47.51152" lon="6.78793">
        <ele>391</ele>
        <time>2020-09-23T16:45:39Z</time>
      </trkpt>
      <trkpt lat="47.51157" lon="6.78794">
        <ele>391</ele>
        <time>2020-09-23T16:45:43Z</time>
      </trkpt>
      <trkpt lat="47.51163" lon="6.78794">
        <ele>392</ele>
        <time>2020-09-23T16:45:46Z</time>
      </trkpt>
      <trkpt lat="47.51168" lon="6.78793">
        <ele>393</ele>
        <time>2020-09-23T16:45:49Z</time>
      </trkpt>
      <trkpt lat="47.51173" lon="6.78796">
        <ele>393</ele>
        <time>2020-09-23T16:45:53Z</time>
      </trkpt>
      <trkpt lat="47.51179" lon="6.78798">
        <ele>393</ele>
        <time>2020-09-23T16:45:56Z</time>
      </trkpt>
      <trkpt lat="47.51185" lon="6.78802">
        <ele>395</ele>
        <time>2020-09-23T16:46:02Z</time>
      </trkpt>
      <trkpt lat="47.51189" lon="6.78806">
        <ele>395</ele>
        <time>2020-09-23T16:46:06Z</time>
      </trkpt>
      <trkpt lat="47.51194" lon="6.78808">
        <ele>396</ele>
        <time>2020-09-23T16:46:09Z</time>
      </trkpt>
      <trkpt lat="47.51199" lon="6.7881">
        <ele>396</ele>
        <time>2020-09-23T16:46:12Z</time>
      </trkpt>
      <trkpt lat="47.51204" lon="6.78812">
        <ele>396</ele>
        <time>2020-09-23T16:46:15Z</time>
      </trkpt>
      <trkpt lat="47.5121" lon="6.78815">
        <ele>397</ele>
        <time>2020-09-23T16:46:19Z</time>
      </trkpt>
      <trkpt lat="47.51215" lon="6.78815">
        <ele>398</ele>
        <time>2020-09-23T16:46:22Z</time>
      </trkpt>
      <trkpt lat="47.51219" lon="6.78819">
        <ele>399</ele>
        <time>2020-09-23T16:46:26Z</time>
      </trkpt>
      <trkpt lat="47.51221" lon="6.78825">
        <ele>402</ele>
        <time>2020-09-23T16:46:31Z</time>
      </trkpt>
      <trkpt lat="47.51225" lon="6.7883">
        <ele>402</ele>
        <time>2020-09-23T16:46:38Z</time>
      </trkpt>
      <trkpt lat="47.51229" lon="6.78835">
        <ele>405</ele>
        <time>2020-09-23T16:46:45Z</time>
      </trkpt>
      <trkpt lat="47.51234" lon="6.78836">
        <ele>407</ele>
        <time>2020-09-23T16:46:48Z</time>
      </trkpt>
      <trkpt lat="47.51239" lon="6.78837">
        <ele>406</ele>
        <time>2020-09-23T16:46:51Z</time>
      </trkpt>
      <trkpt lat="47.51245" lon="6.78838">
        <ele>406</ele>
        <time>2020-09-23T16:46:55Z</time>
      </trkpt>
      <trkpt lat="47.5125" lon="6.7884">
        <ele>407</ele>
        <time>2020-09-23T16:46:58Z</time>
      </trkpt>
      <trkpt lat="47.51255" lon="6.78842">
        <ele>407</ele>
        <time>2020-09-23T16:47:01Z</time>
      </trkpt>
      <trkpt lat="47.5126" lon="6.7884">
        <ele>408</ele>
        <time>2020-09-23T16:47:05Z</time>
      </trkpt>
      <trkpt lat="47.51254" lon="6.78838">
        <ele>412</ele>
        <time>2020-09-23T16:47:17Z</time>
      </trkpt>
      <trkpt lat="47.5125" lon="6.78835">
        <ele>413</ele>
        <time>2020-09-23T16:47:21Z</time>
      </trkpt>
      <trkpt lat="47.51246" lon="6.78832">
        <ele>414</ele>
        <time>2020-09-23T16:47:25Z</time>
      </trkpt>
      <trkpt lat="47.51241" lon="6.78832">
        <ele>414</ele>
        <time>2020-09-23T16:47:29Z</time>
      </trkpt>
      <trkpt lat="47.51235" lon="6.78831">
        <ele>415</ele>
        <time>2020-09-23T16:47:32Z</time>
      </trkpt>
      <trkpt lat="47.51231" lon="6.78827">
        <ele>416</ele>
        <time>2020-09-23T16:47:44Z</time>
      </trkpt>
      <trkpt lat="47.51226" lon="6.78826">
        <ele>417</ele>
        <time>2020-09-23T16:47:50Z</time>
      </trkpt>
      <trkpt lat="47.51221" lon="6.78822">
        <ele>416</ele>
        <time>2020-09-23T16:47:55Z</time>
      </trkpt>
      <trkpt lat="47.51217" lon="6.7882">
        <ele>415</ele>
        <time>2020-09-23T16:48:00Z</time>
      </trkpt>
      <trkpt lat="47.51212" lon="6.7882">
        <ele>414</ele>
        <time>2020-09-23T16:48:03Z</time>
      </trkpt>
      <trkpt lat="47.51207" lon="6.78818">
        <ele>413</ele>
        <time>2020-09-23T16:48:07Z</time>
      </trkpt>
      <trkpt lat="47.51203" lon="6.78813">
        <ele>411</ele>
        <time>2020-09-23T16:48:12Z</time>
      </trkpt>
      <trkpt lat="47.51199" lon="6.7881">
        <ele>410</ele>
        <time>2020-09-23T16:48:16Z</time>
      </trkpt>
      <trkpt lat="47.51194" lon="6.78806">
        <ele>409</ele>
        <time>2020-09-23T16:48:21Z</time>
      </trkpt>
      <trkpt lat="47.51189" lon="6.78803">
        <ele>408</ele>
        <time>2020-09-23T16:48:25Z</time>
      </trkpt>
      <trkpt lat="47.51182" lon="6.78802">
        <ele>407</ele>
        <time>2020-09-23T16:48:29Z</time>
      </trkpt>
      <trkpt lat="47.51177" lon="6.78802">
        <ele>406</ele>
        <time>2020-09-23T16:48:33Z</time>
      </trkpt>
      <trkpt lat="47.51171" lon="6.788">
        <ele>405</ele>
        <time>2020-09-23T16:48:36Z</time>
      </trkpt>
      <trkpt lat="47.51166" lon="6.788">
        <ele>404</ele>
        <time>2020-09-23T16:48:38Z</time>
      </trkpt>
      <trkpt lat="47.5116" lon="6.78799">
        <ele>403</ele>
        <time>2020-09-23T16:48:41Z</time>
      </trkpt>
      <trkpt lat="47.51154" lon="6.78795">
        <ele>401</ele>
        <time>2020-09-23T16:48:44Z</time>
      </trkpt>
      <trkpt lat="47.51151" lon="6.78791">
        <ele>397</ele>
        <time>2020-09-23T16:48:46Z</time>
      </trkpt>
      <trkpt lat="47.51146" lon="6.78788">
        <ele>392</ele>
        <time>2020-09-23T16:48:49Z</time>
      </trkpt>
      <trkpt lat="47.51149" lon="6.78794">
        <ele>388</ele>
        <time>2020-09-23T16:49:09Z</time>
      </trkpt>
      <trkpt lat="47.51155" lon="6.78793">
        <ele>388</ele>
        <time>2020-09-23T16:49:13Z</time>
      </trkpt>
      <trkpt lat="47.51159" lon="6.78793">
        <ele>389</ele>
        <time>2020-09-23T16:49:20Z</time>
      </trkpt>
      <trkpt lat="47.51164" lon="6.78796">
        <ele>391</ele>
        <time>2020-09-23T16:49:25Z</time>
      </trkpt>
      <trkpt lat="47.51168" lon="6.788">
        <ele>391</ele>
        <time>2020-09-23T16:49:28Z</time>
      </trkpt>
      <trkpt lat="47.51173" lon="6.78802">
        <ele>393</ele>
        <time>2020-09-23T16:49:32Z</time>
      </trkpt>
      <trkpt lat="47.51179" lon="6.78802">
        <ele>394</ele>
        <time>2020-09-23T16:49:37Z</time>
      </trkpt>
      <trkpt lat="47.51184" lon="6.78805">
        <ele>394</ele>
        <time>2020-09-23T16:49:40Z</time>
      </trkpt>
      <trkpt lat="47.51188" lon="6.78809">
        <ele>394</ele>
        <time>2020-09-23T16:49:43Z</time>
      </trkpt>
      <trkpt lat="47.51193" lon="6.7881">
        <ele>394</ele>
        <time>2020-09-23T16:49:47Z</time>
      </trkpt>
      <trkpt lat="47.51198" lon="6.78813">
        <ele>396</ele>
        <time>2020-09-23T16:49:53Z</time>
      </trkpt>
      <trkpt lat="47.51202" lon="6.78817">
        <ele>397</ele>
        <time>2020-09-23T16:49:57Z</time>
      </trkpt>
      <trkpt lat="47.51207" lon="6.78819">
        <ele>399</ele>
        <time>2020-09-23T16:50:00Z</time>
      </trkpt>
      <trkpt lat="47.51211" lon="6.78823">
        <ele>400</ele>
        <time>2020-09-23T16:50:04Z</time>
      </trkpt>
      <trkpt lat="47.51215" lon="6.78829">
        <ele>402</ele>
        <time>2020-09-23T16:50:10Z</time>
      </trkpt>
      <trkpt lat="47.51221" lon="6.78832">
        <ele>404</ele>
        <time>2020-09-23T16:50:14Z</time>
      </trkpt>
      <trkpt lat="47.51226" lon="6.78833">
        <ele>405</ele>
        <time>2020-09-23T16:50:16Z</time>
      </trkpt>
      <trkpt lat="47.51231" lon="6.78835">
        <ele>406</ele>
        <time>2020-09-23T16:50:19Z</time>
      </trkpt>
      <trkpt lat="47.51237" lon="6.78838">
        <ele>407</ele>
        <time>2020-09-23T16:50:23Z</time>
      </trkpt>
      <trkpt lat="47.51242" lon="6.78838">
        <ele>409</ele>
        <time>2020-09-23T16:50:26Z</time>
      </trkpt>
      <trkpt lat="47.51248" lon="6.78841">
        <ele>409</ele>
        <time>2020-09-23T16:50:29Z</time>
      </trkpt>
      <trkpt lat="47.51253" lon="6.78842">
        <ele>409</ele>
        <time>2020-09-23T16:50:31Z</time>
      </trkpt>
      <trkpt lat="47.51259" lon="6.7884">
        <ele>410</ele>
        <time>2020-09-23T16:50:36Z</time>
      </trkpt>
      <trkpt lat="47.51264" lon="6.78843">
        <ele>410</ele>
        <time>2020-09-23T16:50:38Z</time>
      </trkpt>
      <trkpt lat="47.5127" lon="6.78844">
        <ele>410</ele>
        <time>2020-09-23T16:50:40Z</time>
      </trkpt>
      <trkpt lat="47.51275" lon="6.78846">
        <ele>410</ele>
        <time>2020-09-23T16:50:42Z</time>
      </trkpt>
      <trkpt lat="47.5128" lon="6.78849">
        <ele>410</ele>
        <time>2020-09-23T16:50:44Z</time>
      </trkpt>
      <trkpt lat="47.51286" lon="6.7885">
        <ele>411</ele>
        <time>2020-09-23T16:50:47Z</time>
      </trkpt>
      <trkpt lat="47.51291" lon="6.7885">
        <ele>411</ele>
        <time>2020-09-23T16:50:49Z</time>
      </trkpt>
      <trkpt lat="47.51296" lon="6.7885">
        <ele>413</ele>
        <time>2020-09-23T16:50:51Z</time>
      </trkpt>
      <trkpt lat="47.51303" lon="6.7885">
        <ele>415</ele>
        <time>2020-09-23T16:50:54Z</time>
      </trkpt>
      <trkpt lat="47.51307" lon="6.78851">
        <ele>416</ele>
        <time>2020-09-23T16:50:56Z</time>
      </trkpt>
      <trkpt lat="47.51312" lon="6.7885">
        <ele>417</ele>
        <time>2020-09-23T16:50:58Z</time>
      </trkpt>
      <trkpt lat="47.51317" lon="6.7885">
        <ele>418</ele>
        <time>2020-09-23T16:51:00Z</time>
      </trkpt>
      <trkpt lat="47.51323" lon="6.78851">
        <ele>418</ele>
        <time>2020-09-23T16:51:02Z</time>
      </trkpt>
      <trkpt lat="47.51329" lon="6.78851">
        <ele>418</ele>
        <time>2020-09-23T16:51:04Z</time>
      </trkpt>
      <trkpt lat="47.51337" lon="6.78853">
        <ele>419</ele>
        <time>2020-09-23T16:51:08Z</time>
      </trkpt>
      <trkpt lat="47.51343" lon="6.78855">
        <ele>420</ele>
        <time>2020-09-23T16:51:10Z</time>
      </trkpt>
      <trkpt lat="47.51347" lon="6.78857">
        <ele>420</ele>
        <time>2020-09-23T16:51:12Z</time>
      </trkpt>
      <trkpt lat="47.51354" lon="6.78863">
        <ele>422</ele>
        <time>2020-09-23T16:51:16Z</time>
      </trkpt>
      <trkpt lat="47.51358" lon="6.78867">
        <ele>422</ele>
        <time>2020-09-23T16:51:18Z</time>
      </trkpt>
      <trkpt lat="47.51364" lon="6.78871">
        <ele>423</ele>
        <time>2020-09-23T16:51:20Z</time>
      </trkpt>
      <trkpt lat="47.51369" lon="6.78874">
        <ele>423</ele>
        <time>2020-09-23T16:51:22Z</time>
      </trkpt>
      <trkpt lat="47.51375" lon="6.78877">
        <ele>423</ele>
        <time>2020-09-23T16:51:24Z</time>
      </trkpt>
      <trkpt lat="47.51379" lon="6.78881">
        <ele>424</ele>
        <time>2020-09-23T16:51:26Z</time>
      </trkpt>
      <trkpt lat="47.51384" lon="6.78885">
        <ele>425</ele>
        <time>2020-09-23T16:51:28Z</time>
      </trkpt>
      <trkpt lat="47.51388" lon="6.78889">
        <ele>425</ele>
        <time>2020-09-23T16:51:30Z</time>
      </trkpt>
      <trkpt lat="47.51394" lon="6.78893">
        <ele>426</ele>
        <time>2020-09-23T16:51:32Z</time>
      </trkpt>
      <trkpt lat="47.51397" lon="6.78899">
        <ele>427</ele>
        <time>2020-09-23T16:51:34Z</time>
      </trkpt>
      <trkpt lat="47.514" lon="6.78903">
        <ele>427</ele>
        <time>2020-09-23T16:51:36Z</time>
      </trkpt>
      <trkpt lat="47.51405" lon="6.7891">
        <ele>427</ele>
        <time>2020-09-23T16:51:39Z</time>
      </trkpt>
      <trkpt lat="47.5141" lon="6.78918">
        <ele>428</ele>
        <time>2020-09-23T16:51:43Z</time>
      </trkpt>
      <trkpt lat="47.51412" lon="6.7892">
        <ele>429</ele>
        <time>2020-09-23T16:51:44Z</time>
      </trkpt>
      <trkpt lat="47.51413" lon="6.78923">
        <ele>430</ele>
        <time>2020-09-23T16:51:45Z</time>
      </trkpt>
      <trkpt lat="47.51414" lon="6.78926">
        <ele>431</ele>
        <time>2020-09-23T16:51:46Z</time>
      </trkpt>
      <trkpt lat="47.51416" lon="6.78929">
        <ele>431</ele>
        <time>2020-09-23T16:51:47Z</time>
      </trkpt>
      <trkpt lat="47.51418" lon="6.78936">
        <ele>432</ele>
        <time>2020-09-23T16:51:49Z</time>
      </trkpt>
      <trkpt lat="47.51419" lon="6.7894">
        <ele>432</ele>
        <time>2020-09-23T16:51:50Z</time>
      </trkpt>
      <trkpt lat="47.51422" lon="6.78945">
        <ele>433</ele>
        <time>2020-09-23T16:51:52Z</time>
      </trkpt>
      <trkpt lat="47.51423" lon="6.78948">
        <ele>433</ele>
        <time>2020-09-23T16:51:53Z</time>
      </trkpt>
      <trkpt lat="47.51428" lon="6.78955">
        <ele>434</ele>
        <time>2020-09-23T16:51:56Z</time>
      </trkpt>
      <trkpt lat="47.51429" lon="6.78959">
        <ele>434</ele>
        <time>2020-09-23T16:51:57Z</time>
      </trkpt>
      <trkpt lat="47.51431" lon="6.78965">
        <ele>435</ele>
        <time>2020-09-23T16:51:59Z</time>
      </trkpt>
      <trkpt lat="47.51432" lon="6.78968">
        <ele>435</ele>
        <time>2020-09-23T16:52:00Z</time>
      </trkpt>
      <trkpt lat="47.51436" lon="6.78973">
        <ele>436</ele>
        <time>2020-09-23T16:52:02Z</time>
      </trkpt>
      <trkpt lat="47.51438" lon="6.78975">
        <ele>437</ele>
        <time>2020-09-23T16:52:03Z</time>
      </trkpt>
      <trkpt lat="47.5144" lon="6.78978">
        <ele>437</ele>
        <time>2020-09-23T16:52:04Z</time>
      </trkpt>
      <trkpt lat="47.51445" lon="6.7898">
        <ele>437</ele>
        <time>2020-09-23T16:52:06Z</time>
      </trkpt>
      <trkpt lat="47.5145" lon="6.78981">
        <ele>437</ele>
        <time>2020-09-23T16:52:08Z</time>
      </trkpt>
      <trkpt lat="47.51455" lon="6.78981">
        <ele>436</ele>
        <time>2020-09-23T16:52:10Z</time>
      </trkpt>
      <trkpt lat="47.5146" lon="6.78981">
        <ele>434</ele>
        <time>2020-09-23T16:52:14Z</time>
      </trkpt>
      <trkpt lat="47.51467" lon="6.78976">
        <ele>431</ele>
        <time>2020-09-23T16:52:18Z</time>
      </trkpt>
      <trkpt lat="47.51471" lon="6.78973">
        <ele>430</ele>
        <time>2020-09-23T16:52:22Z</time>
      </trkpt>
      <trkpt lat="47.51472" lon="6.78965">
        <ele>429</ele>
        <time>2020-09-23T16:52:28Z</time>
      </trkpt>
      <trkpt lat="47.51473" lon="6.78958">
        <ele>428</ele>
        <time>2020-09-23T16:52:32Z</time>
      </trkpt>
      <trkpt lat="47.51473" lon="6.7895">
        <ele>429</ele>
        <time>2020-09-23T16:52:35Z</time>
      </trkpt>
      <trkpt lat="47.51474" lon="6.78941">
        <ele>430</ele>
        <time>2020-09-23T16:52:38Z</time>
      </trkpt>
      <trkpt lat="47.51476" lon="6.78933">
        <ele>431</ele>
        <time>2020-09-23T16:52:40Z</time>
      </trkpt>
      <trkpt lat="47.51477" lon="6.78925">
        <ele>432</ele>
        <time>2020-09-23T16:52:42Z</time>
      </trkpt>
      <trkpt lat="47.51477" lon="6.78917">
        <ele>432</ele>
        <time>2020-09-23T16:52:44Z</time>
      </trkpt>
      <trkpt lat="47.51477" lon="6.78909">
        <ele>432</ele>
        <time>2020-09-23T16:52:46Z</time>
      </trkpt>
      <trkpt lat="47.51477" lon="6.78902">
        <ele>432</ele>
        <time>2020-09-23T16:52:48Z</time>
      </trkpt>
      <trkpt lat="47.51478" lon="6.78893">
        <ele>432</ele>
        <time>2020-09-23T16:52:50Z</time>
      </trkpt>
      <trkpt lat="47.51479" lon="6.78885">
        <ele>433</ele>
        <time>2020-09-23T16:52:52Z</time>
      </trkpt>
      <trkpt lat="47.51479" lon="6.78877">
        <ele>433</ele>
        <time>2020-09-23T16:52:54Z</time>
      </trkpt>
      <trkpt lat="47.51477" lon="6.7887">
        <ele>433</ele>
        <time>2020-09-23T16:52:56Z</time>
      </trkpt>
      <trkpt lat="47.51476" lon="6.78862">
        <ele>432</ele>
        <time>2020-09-23T16:52:59Z</time>
      </trkpt>
      <trkpt lat="47.51473" lon="6.78856">
        <ele>433</ele>
        <time>2020-09-23T16:53:01Z</time>
      </trkpt>
      <trkpt lat="47.51472" lon="6.78847">
        <ele>433</ele>
        <time>2020-09-23T16:53:03Z</time>
      </trkpt>
      <trkpt lat="47.51472" lon="6.78838">
        <ele>433</ele>
        <time>2020-09-23T16:53:05Z</time>
      </trkpt>
      <trkpt lat="47.51471" lon="6.78828">
        <ele>434</ele>
        <time>2020-09-23T16:53:07Z</time>
      </trkpt>
      <trkpt lat="47.5147" lon="6.7882">
        <ele>434</ele>
        <time>2020-09-23T16:53:09Z</time>
      </trkpt>
      <trkpt lat="47.51469" lon="6.78811">
        <ele>434</ele>
        <time>2020-09-23T16:53:12Z</time>
      </trkpt>
      <trkpt lat="47.51469" lon="6.78803">
        <ele>433</ele>
        <time>2020-09-23T16:53:14Z</time>
      </trkpt>
      <trkpt lat="47.51469" lon="6.78793">
        <ele>433</ele>
        <time>2020-09-23T16:53:16Z</time>
      </trkpt>
      <trkpt lat="47.51469" lon="6.78786">
        <ele>433</ele>
        <time>2020-09-23T16:53:18Z</time>
      </trkpt>
      <trkpt lat="47.5147" lon="6.78779">
        <ele>433</ele>
        <time>2020-09-23T16:53:20Z</time>
      </trkpt>
      <trkpt lat="47.5147" lon="6.78772">
        <ele>434</ele>
        <time>2020-09-23T16:53:22Z</time>
      </trkpt>
      <trkpt lat="47.51472" lon="6.78764">
        <ele>434</ele>
        <time>2020-09-23T16:53:24Z</time>
      </trkpt>
      <trkpt lat="47.51473" lon="6.78757">
        <ele>433</ele>
        <time>2020-09-23T16:53:26Z</time>
      </trkpt>
      <trkpt lat="47.51471" lon="6.78748">
        <ele>434</ele>
        <time>2020-09-23T16:53:29Z</time>
      </trkpt>
      <trkpt lat="47.51469" lon="6.78742">
        <ele>435</ele>
        <time>2020-09-23T16:53:31Z</time>
      </trkpt>
      <trkpt lat="47.51468" lon="6.78732">
        <ele>436</ele>
        <time>2020-09-23T16:53:34Z</time>
      </trkpt>
      <trkpt lat="47.51466" lon="6.78726">
        <ele>436</ele>
        <time>2020-09-23T16:53:36Z</time>
      </trkpt>
      <trkpt lat="47.51464" lon="6.78717">
        <ele>438</ele>
        <time>2020-09-23T16:53:39Z</time>
      </trkpt>
      <trkpt lat="47.51463" lon="6.78714">
        <ele>438</ele>
        <time>2020-09-23T16:53:40Z</time>
      </trkpt>
      <trkpt lat="47.51461" lon="6.78707">
        <ele>439</ele>
        <time>2020-09-23T16:53:42Z</time>
      </trkpt>
      <trkpt lat="47.51461" lon="6.78704">
        <ele>439</ele>
        <time>2020-09-23T16:53:43Z</time>
      </trkpt>
      <trkpt lat="47.5146" lon="6.78696">
        <ele>440</ele>
        <time>2020-09-23T16:53:45Z</time>
      </trkpt>
      <trkpt lat="47.5146" lon="6.78693">
        <ele>440</ele>
        <time>2020-09-23T16:53:46Z</time>
      </trkpt>
      <trkpt lat="47.51459" lon="6.78685">
        <ele>441</ele>
        <time>2020-09-23T16:53:48Z</time>
      </trkpt>
      <trkpt lat="47.51458" lon="6.78681">
        <ele>441</ele>
        <time>2020-09-23T16:53:49Z</time>
      </trkpt>
      <trkpt lat="47.51455" lon="6.78674">
        <ele>440</ele>
        <time>2020-09-23T16:53:51Z</time>
      </trkpt>
      <trkpt lat="47.51453" lon="6.78666">
        <ele>440</ele>
        <time>2020-09-23T16:53:53Z</time>
      </trkpt>
      <trkpt lat="47.51452" lon="6.78657">
        <ele>441</ele>
        <time>2020-09-23T16:53:55Z</time>
      </trkpt>
      <trkpt lat="47.51449" lon="6.78649">
        <ele>441</ele>
        <time>2020-09-23T16:53:57Z</time>
      </trkpt>
      <trkpt lat="47.51447" lon="6.78641">
        <ele>441</ele>
        <time>2020-09-23T16:53:59Z</time>
      </trkpt>
      <trkpt lat="47.51445" lon="6.78634">
        <ele>441</ele>
        <time>2020-09-23T16:54:01Z</time>
      </trkpt>
      <trkpt lat="47.51444" lon="6.78627">
        <ele>441</ele>
        <time>2020-09-23T16:54:03Z</time>
      </trkpt>
      <trkpt lat="47.51443" lon="6.7862">
        <ele>441</ele>
        <time>2020-09-23T16:54:05Z</time>
      </trkpt>
      <trkpt lat="47.51442" lon="6.78615">
        <ele>442</ele>
        <time>2020-09-23T16:54:06Z</time>
      </trkpt>
      <trkpt lat="47.51441" lon="6.78606">
        <ele>442</ele>
        <time>2020-09-23T16:54:08Z</time>
      </trkpt>
      <trkpt lat="47.5144" lon="6.78598">
        <ele>442</ele>
        <time>2020-09-23T16:54:10Z</time>
      </trkpt>
      <trkpt lat="47.5144" lon="6.78587">
        <ele>441</ele>
        <time>2020-09-23T16:54:12Z</time>
      </trkpt>
      <trkpt lat="47.51439" lon="6.78578">
        <ele>441</ele>
        <time>2020-09-23T16:54:14Z</time>
      </trkpt>
      <trkpt lat="47.51438" lon="6.7857">
        <ele>441</ele>
        <time>2020-09-23T16:54:16Z</time>
      </trkpt>
      <trkpt lat="47.51437" lon="6.78561">
        <ele>441</ele>
        <time>2020-09-23T16:54:18Z</time>
      </trkpt>
      <trkpt lat="47.51436" lon="6.78551">
        <ele>441</ele>
        <time>2020-09-23T16:54:20Z</time>
      </trkpt>
      <trkpt lat="47.51433" lon="6.78536">
        <ele>442</ele>
        <time>2020-09-23T16:54:23Z</time>
      </trkpt>
      <trkpt lat="47.51431" lon="6.78526">
        <ele>441</ele>
        <time>2020-09-23T16:54:25Z</time>
      </trkpt>
      <trkpt lat="47.51428" lon="6.78516">
        <ele>441</ele>
        <time>2020-09-23T16:54:27Z</time>
      </trkpt>
      <trkpt lat="47.51426" lon="6.78507">
        <ele>441</ele>
        <time>2020-09-23T16:54:29Z</time>
      </trkpt>
      <trkpt lat="47.51426" lon="6.78499">
        <ele>441</ele>
        <time>2020-09-23T16:54:31Z</time>
      </trkpt>
      <trkpt lat="47.51425" lon="6.7849">
        <ele>440</ele>
        <time>2020-09-23T16:54:33Z</time>
      </trkpt>
      <trkpt lat="47.51424" lon="6.78481">
        <ele>439</ele>
        <time>2020-09-23T16:54:35Z</time>
      </trkpt>
      <trkpt lat="47.51423" lon="6.78474">
        <ele>440</ele>
        <time>2020-09-23T16:54:37Z</time>
      </trkpt>
      <trkpt lat="47.51427" lon="6.78461">
        <ele>438</ele>
        <time>2020-09-23T16:54:41Z</time>
      </trkpt>
      <trkpt lat="47.5143" lon="6.78451">
        <ele>436</ele>
        <time>2020-09-23T16:54:44Z</time>
      </trkpt>
      <trkpt lat="47.51434" lon="6.78443">
        <ele>435</ele>
        <time>2020-09-23T16:54:46Z</time>
      </trkpt>
      <trkpt lat="47.51436" lon="6.78437">
        <ele>433</ele>
        <time>2020-09-23T16:54:49Z</time>
      </trkpt>
      <trkpt lat="47.51442" lon="6.78435">
        <ele>431</ele>
        <time>2020-09-23T16:54:56Z</time>
      </trkpt>
      <trkpt lat="47.51446" lon="6.7844">
        <ele>431</ele>
        <time>2020-09-23T16:55:01Z</time>
      </trkpt>
      <trkpt lat="47.51452" lon="6.7844">
        <ele>431</ele>
        <time>2020-09-23T16:55:04Z</time>
      </trkpt>
      <trkpt lat="47.51457" lon="6.78439">
        <ele>431</ele>
        <time>2020-09-23T16:55:07Z</time>
      </trkpt>
      <trkpt lat="47.51463" lon="6.78436">
        <ele>431</ele>
        <time>2020-09-23T16:55:10Z</time>
      </trkpt>
      <trkpt lat="47.51469" lon="6.78433">
        <ele>431</ele>
        <time>2020-09-23T16:55:13Z</time>
      </trkpt>
      <trkpt lat="47.51474" lon="6.78431">
        <ele>431</ele>
        <time>2020-09-23T16:55:15Z</time>
      </trkpt>
      <trkpt lat="47.5148" lon="6.78429">
        <ele>431</ele>
        <time>2020-09-23T16:55:17Z</time>
      </trkpt>
      <trkpt lat="47.51487" lon="6.78428">
        <ele>431</ele>
        <time>2020-09-23T16:55:19Z</time>
      </trkpt>
      <trkpt lat="47.51493" lon="6.78425">
        <ele>431</ele>
        <time>2020-09-23T16:55:21Z</time>
      </trkpt>
      <trkpt lat="47.51499" lon="6.78421">
        <ele>432</ele>
        <time>2020-09-23T16:55:23Z</time>
      </trkpt>
      <trkpt lat="47.51506" lon="6.78418">
        <ele>431</ele>
        <time>2020-09-23T16:55:25Z</time>
      </trkpt>
      <trkpt lat="47.51511" lon="6.78415">
        <ele>432</ele>
        <time>2020-09-23T16:55:27Z</time>
      </trkpt>
      <trkpt lat="47.51517" lon="6.78412">
        <ele>432</ele>
        <time>2020-09-23T16:55:29Z</time>
      </trkpt>
      <trkpt lat="47.51522" lon="6.78408">
        <ele>432</ele>
        <time>2020-09-23T16:55:31Z</time>
      </trkpt>
      <trkpt lat="47.51528" lon="6.78405">
        <ele>432</ele>
        <time>2020-09-23T16:55:33Z</time>
      </trkpt>
      <trkpt lat="47.51535" lon="6.78403">
        <ele>431</ele>
        <time>2020-09-23T16:55:35Z</time>
      </trkpt>
      <trkpt lat="47.51542" lon="6.784">
        <ele>432</ele>
        <time>2020-09-23T16:55:37Z</time>
      </trkpt>
      <trkpt lat="47.51548" lon="6.78395">
        <ele>432</ele>
        <time>2020-09-23T16:55:39Z</time>
      </trkpt>
      <trkpt lat="47.51553" lon="6.78392">
        <ele>432</ele>
        <time>2020-09-23T16:55:41Z</time>
      </trkpt>
      <trkpt lat="47.51558" lon="6.78389">
        <ele>432</ele>
        <time>2020-09-23T16:55:43Z</time>
      </trkpt>
      <trkpt lat="47.51564" lon="6.78388">
        <ele>431</ele>
        <time>2020-09-23T16:55:45Z</time>
      </trkpt>
      <trkpt lat="47.5157" lon="6.78385">
        <ele>431</ele>
        <time>2020-09-23T16:55:47Z</time>
      </trkpt>
      <trkpt lat="47.51575" lon="6.78384">
        <ele>431</ele>
        <time>2020-09-23T16:55:49Z</time>
      </trkpt>
      <trkpt lat="47.5158" lon="6.78383">
        <ele>430</ele>
        <time>2020-09-23T16:55:51Z</time>
      </trkpt>
      <trkpt lat="47.51585" lon="6.78384">
        <ele>431</ele>
        <time>2020-09-23T16:55:53Z</time>
      </trkpt>
      <trkpt lat="47.51591" lon="6.78382">
        <ele>430</ele>
        <time>2020-09-23T16:55:55Z</time>
      </trkpt>
      <trkpt lat="47.51596" lon="6.7838">
        <ele>430</ele>
        <time>2020-09-23T16:55:57Z</time>
      </trkpt>
      <trkpt lat="47.51602" lon="6.78378">
        <ele>431</ele>
        <time>2020-09-23T16:55:59Z</time>
      </trkpt>
      <trkpt lat="47.51608" lon="6.78376">
        <ele>431</ele>
        <time>2020-09-23T16:56:01Z</time>
      </trkpt>
      <trkpt lat="47.51614" lon="6.78375">
        <ele>431</ele>
        <time>2020-09-23T16:56:03Z</time>
      </trkpt>
      <trkpt lat="47.51619" lon="6.78373">
        <ele>432</ele>
        <time>2020-09-23T16:56:05Z</time>
      </trkpt>
      <trkpt lat="47.51625" lon="6.78371">
        <ele>432</ele>
        <time>2020-09-23T16:56:07Z</time>
      </trkpt>
      <trkpt lat="47.51631" lon="6.7837">
        <ele>433</ele>
        <time>2020-09-23T16:56:09Z</time>
      </trkpt>
      <trkpt lat="47.51637" lon="6.7837">
        <ele>433</ele>
        <time>2020-09-23T16:56:11Z</time>
      </trkpt>
      <trkpt lat="47.51642" lon="6.78371">
        <ele>433</ele>
        <time>2020-09-23T16:56:13Z</time>
      </trkpt>
      <trkpt lat="47.51648" lon="6.78372">
        <ele>435</ele>
        <time>2020-09-23T16:56:15Z</time>
      </trkpt>
      <trkpt lat="47.51654" lon="6.78374">
        <ele>435</ele>
        <time>2020-09-23T16:56:17Z</time>
      </trkpt>
      <trkpt lat="47.51659" lon="6.78376">
        <ele>434</ele>
        <time>2020-09-23T16:56:19Z</time>
      </trkpt>
      <trkpt lat="47.51668" lon="6.78377">
        <ele>434</ele>
        <time>2020-09-23T16:56:22Z</time>
      </trkpt>
      <trkpt lat="47.51674" lon="6.78376">
        <ele>434</ele>
        <time>2020-09-23T16:56:24Z</time>
      </trkpt>
      <trkpt lat="47.5168" lon="6.78375">
        <ele>435</ele>
        <time>2020-09-23T16:56:27Z</time>
      </trkpt>
      <trkpt lat="47.51685" lon="6.78372">
        <ele>435</ele>
        <time>2020-09-23T16:56:29Z</time>
      </trkpt>
      <trkpt lat="47.51691" lon="6.78369">
        <ele>434</ele>
        <time>2020-09-23T16:56:31Z</time>
      </trkpt>
      <trkpt lat="47.51697" lon="6.78366">
        <ele>434</ele>
        <time>2020-09-23T16:56:33Z</time>
      </trkpt>
      <trkpt lat="47.51708" lon="6.78362">
        <ele>435</ele>
        <time>2020-09-23T16:56:36Z</time>
      </trkpt>
      <trkpt lat="47.51712" lon="6.78359">
        <ele>435</ele>
        <time>2020-09-23T16:56:39Z</time>
      </trkpt>
      <trkpt lat="47.51717" lon="6.78357">
        <ele>435</ele>
        <time>2020-09-23T16:56:42Z</time>
      </trkpt>
      <trkpt lat="47.51723" lon="6.78355">
        <ele>436</ele>
        <time>2020-09-23T16:56:44Z</time>
      </trkpt>
      <trkpt lat="47.51728" lon="6.78353">
        <ele>437</ele>
        <time>2020-09-23T16:56:46Z</time>
      </trkpt>
      <trkpt lat="47.51733" lon="6.78351">
        <ele>437</ele>
        <time>2020-09-23T16:56:48Z</time>
      </trkpt>
      <trkpt lat="47.51737" lon="6.78347">
        <ele>436</ele>
        <time>2020-09-23T16:56:50Z</time>
      </trkpt>
      <trkpt lat="47.51743" lon="6.78343">
        <ele>436</ele>
        <time>2020-09-23T16:56:53Z</time>
      </trkpt>
      <trkpt lat="47.51749" lon="6.78342">
        <ele>436</ele>
        <time>2020-09-23T16:56:56Z</time>
      </trkpt>
      <trkpt lat="47.51754" lon="6.78344">
        <ele>435</ele>
        <time>2020-09-23T16:56:59Z</time>
      </trkpt>
      <trkpt lat="47.5176" lon="6.78343">
        <ele>435</ele>
        <time>2020-09-23T16:57:03Z</time>
      </trkpt>
      <trkpt lat="47.51765" lon="6.78346">
        <ele>435</ele>
        <time>2020-09-23T16:57:08Z</time>
      </trkpt>
      <trkpt lat="47.51767" lon="6.78356">
        <ele>433</ele>
        <time>2020-09-23T16:57:15Z</time>
      </trkpt>
      <trkpt lat="47.51767" lon="6.78365">
        <ele>434</ele>
        <time>2020-09-23T16:57:18Z</time>
      </trkpt>
      <trkpt lat="47.51763" lon="6.78376">
        <ele>432</ele>
        <time>2020-09-23T16:57:22Z</time>
      </trkpt>
      <trkpt lat="47.51762" lon="6.78382">
        <ele>431</ele>
        <time>2020-09-23T16:57:24Z</time>
      </trkpt>
      <trkpt lat="47.5176" lon="6.7839">
        <ele>430</ele>
        <time>2020-09-23T16:57:27Z</time>
      </trkpt>
      <trkpt lat="47.51757" lon="6.78398">
        <ele>429</ele>
        <time>2020-09-23T16:57:29Z</time>
      </trkpt>
      <trkpt lat="47.51755" lon="6.78406">
        <ele>429</ele>
        <time>2020-09-23T16:57:31Z</time>
      </trkpt>
      <trkpt lat="47.51754" lon="6.78413">
        <ele>428</ele>
        <time>2020-09-23T16:57:33Z</time>
      </trkpt>
      <trkpt lat="47.51753" lon="6.78422">
        <ele>428</ele>
        <time>2020-09-23T16:57:37Z</time>
      </trkpt>
      <trkpt lat="47.51752" lon="6.7843">
        <ele>429</ele>
        <time>2020-09-23T16:57:40Z</time>
      </trkpt>
      <trkpt lat="47.51755" lon="6.78438">
        <ele>430</ele>
        <time>2020-09-23T16:57:43Z</time>
      </trkpt>
      <trkpt lat="47.51761" lon="6.78441">
        <ele>430</ele>
        <time>2020-09-23T16:57:46Z</time>
      </trkpt>
      <trkpt lat="47.51765" lon="6.78446">
        <ele>428</ele>
        <time>2020-09-23T16:57:49Z</time>
      </trkpt>
      <trkpt lat="47.51768" lon="6.78451">
        <ele>425</ele>
        <time>2020-09-23T16:57:53Z</time>
      </trkpt>
      <trkpt lat="47.51768" lon="6.78451">
        <ele>425</ele>
        <time>2020-09-23T16:57:53Z</time>
      </trkpt>
      <trkpt lat="47.51768" lon="6.78451">
        <ele>425</ele>
        <time>2020-09-23T16:57:53Z</time>
      </trkpt>
      <trkpt lat="47.51774" lon="6.7846">
        <ele>423</ele>
        <time>2020-09-23T16:57:58Z</time>
      </trkpt>
      <trkpt lat="47.51776" lon="6.78467">
        <ele>423</ele>
        <time>2020-09-23T16:58:00Z</time>
      </trkpt>
      <trkpt lat="47.51776" lon="6.78474">
        <ele>423</ele>
        <time>2020-09-23T16:58:02Z</time>
      </trkpt>
      <trkpt lat="47.51777" lon="6.78481">
        <ele>423</ele>
        <time>2020-09-23T16:58:05Z</time>
      </trkpt>
      <trkpt lat="47.51782" lon="6.78484">
        <ele>421</ele>
        <time>2020-09-23T16:58:09Z</time>
      </trkpt>
      <trkpt lat="47.51786" lon="6.78483">
        <ele>420</ele>
        <time>2020-09-23T16:58:11Z</time>
      </trkpt>
      <trkpt lat="47.51791" lon="6.78481">
        <ele>420</ele>
        <time>2020-09-23T16:58:13Z</time>
      </trkpt>
      <trkpt lat="47.51796" lon="6.78479">
        <ele>420</ele>
        <time>2020-09-23T16:58:15Z</time>
      </trkpt>
      <trkpt lat="47.51802" lon="6.78477">
        <ele>419</ele>
        <time>2020-09-23T16:58:18Z</time>
      </trkpt>
      <trkpt lat="47.51807" lon="6.78479">
        <ele>419</ele>
        <time>2020-09-23T16:58:20Z</time>
      </trkpt>
      <trkpt lat="47.51812" lon="6.78479">
        <ele>419</ele>
        <time>2020-09-23T16:58:22Z</time>
      </trkpt>
      <trkpt lat="47.51817" lon="6.7848">
        <ele>419</ele>
        <time>2020-09-23T16:58:24Z</time>
      </trkpt>
      <trkpt lat="47.51822" lon="6.7848">
        <ele>419</ele>
        <time>2020-09-23T16:58:26Z</time>
      </trkpt>
      <trkpt lat="47.51827" lon="6.78481">
        <ele>419</ele>
        <time>2020-09-23T16:58:28Z</time>
      </trkpt>
      <trkpt lat="47.51832" lon="6.78482">
        <ele>418</ele>
        <time>2020-09-23T16:58:30Z</time>
      </trkpt>
      <trkpt lat="47.51838" lon="6.78483">
        <ele>417</ele>
        <time>2020-09-23T16:58:33Z</time>
      </trkpt>
      <trkpt lat="47.51843" lon="6.78481">
        <ele>417</ele>
        <time>2020-09-23T16:58:35Z</time>
      </trkpt>
      <trkpt lat="47.51849" lon="6.78479">
        <ele>416</ele>
        <time>2020-09-23T16:58:38Z</time>
      </trkpt>
      <trkpt lat="47.51854" lon="6.78475">
        <ele>415</ele>
        <time>2020-09-23T16:58:41Z</time>
      </trkpt>
      <trkpt lat="47.51856" lon="6.78466">
        <ele>416</ele>
        <time>2020-09-23T16:58:44Z</time>
      </trkpt>
      <trkpt lat="47.51857" lon="6.78459">
        <ele>416</ele>
        <time>2020-09-23T16:58:47Z</time>
      </trkpt>
      <trkpt lat="47.51859" lon="6.7845">
        <ele>417</ele>
        <time>2020-09-23T16:58:50Z</time>
      </trkpt>
      <trkpt lat="47.51861" lon="6.78441">
        <ele>417</ele>
        <time>2020-09-23T16:58:53Z</time>
      </trkpt>
      <trkpt lat="47.51863" lon="6.78435">
        <ele>417</ele>
        <time>2020-09-23T16:58:55Z</time>
      </trkpt>
      <trkpt lat="47.51865" lon="6.78427">
        <ele>416</ele>
        <time>2020-09-23T16:58:58Z</time>
      </trkpt>
      <trkpt lat="47.51866" lon="6.78419">
        <ele>416</ele>
        <time>2020-09-23T16:59:01Z</time>
      </trkpt>
      <trkpt lat="47.5187" lon="6.78412">
        <ele>417</ele>
        <time>2020-09-23T16:59:05Z</time>
      </trkpt>
      <trkpt lat="47.51871" lon="6.78404">
        <ele>418</ele>
        <time>2020-09-23T16:59:09Z</time>
      </trkpt>
      <trkpt lat="47.51872" lon="6.78397">
        <ele>419</ele>
        <time>2020-09-23T16:59:12Z</time>
      </trkpt>
      <trkpt lat="47.51872" lon="6.78388">
        <ele>420</ele>
        <time>2020-09-23T16:59:15Z</time>
      </trkpt>
      <trkpt lat="47.51872" lon="6.7838">
        <ele>421</ele>
        <time>2020-09-23T16:59:18Z</time>
      </trkpt>
      <trkpt lat="47.51871" lon="6.78373">
        <ele>422</ele>
        <time>2020-09-23T16:59:20Z</time>
      </trkpt>
      <trkpt lat="47.51872" lon="6.78364">
        <ele>422</ele>
        <time>2020-09-23T16:59:23Z</time>
      </trkpt>
      <trkpt lat="47.51871" lon="6.78355">
        <ele>423</ele>
        <time>2020-09-23T16:59:26Z</time>
      </trkpt>
      <trkpt lat="47.51869" lon="6.78347">
        <ele>424</ele>
        <time>2020-09-23T16:59:29Z</time>
      </trkpt>
      <trkpt lat="47.51867" lon="6.78338">
        <ele>424</ele>
        <time>2020-09-23T16:59:32Z</time>
      </trkpt>
      <trkpt lat="47.51865" lon="6.78332">
        <ele>425</ele>
        <time>2020-09-23T16:59:34Z</time>
      </trkpt>
      <trkpt lat="47.51862" lon="6.78324">
        <ele>427</ele>
        <time>2020-09-23T16:59:37Z</time>
      </trkpt>
      <trkpt lat="47.51862" lon="6.78316">
        <ele>427</ele>
        <time>2020-09-23T16:59:39Z</time>
      </trkpt>
      <trkpt lat="47.51861" lon="6.78307">
        <ele>428</ele>
        <time>2020-09-23T16:59:42Z</time>
      </trkpt>
      <trkpt lat="47.51862" lon="6.783">
        <ele>430</ele>
        <time>2020-09-23T16:59:44Z</time>
      </trkpt>
      <trkpt lat="47.51861" lon="6.78293">
        <ele>431</ele>
        <time>2020-09-23T16:59:47Z</time>
      </trkpt>
      <trkpt lat="47.5186" lon="6.78286">
        <ele>432</ele>
        <time>2020-09-23T16:59:50Z</time>
      </trkpt>
      <trkpt lat="47.51859" lon="6.78278">
        <ele>433</ele>
        <time>2020-09-23T16:59:53Z</time>
      </trkpt>
      <trkpt lat="47.51862" lon="6.78271">
        <ele>432</ele>
        <time>2020-09-23T16:59:56Z</time>
      </trkpt>
      <trkpt lat="47.51866" lon="6.78267">
        <ele>432</ele>
        <time>2020-09-23T16:59:58Z</time>
      </trkpt>
      <trkpt lat="47.5187" lon="6.78262">
        <ele>432</ele>
        <time>2020-09-23T17:00:00Z</time>
      </trkpt>
      <trkpt lat="47.51874" lon="6.78257">
        <ele>433</ele>
        <time>2020-09-23T17:00:02Z</time>
      </trkpt>
      <trkpt lat="47.51878" lon="6.78253">
        <ele>432</ele>
        <time>2020-09-23T17:00:04Z</time>
      </trkpt>
      <trkpt lat="47.51883" lon="6.7825">
        <ele>431</ele>
        <time>2020-09-23T17:00:06Z</time>
      </trkpt>
      <trkpt lat="47.51887" lon="6.78247">
        <ele>432</ele>
        <time>2020-09-23T17:00:08Z</time>
      </trkpt>
      <trkpt lat="47.51893" lon="6.78243">
        <ele>431</ele>
        <time>2020-09-23T17:00:11Z</time>
      </trkpt>
      <trkpt lat="47.51896" lon="6.78238">
        <ele>431</ele>
        <time>2020-09-23T17:00:14Z</time>
      </trkpt>
      <trkpt lat="47.519" lon="6.78232">
        <ele>431</ele>
        <time>2020-09-23T17:00:17Z</time>
      </trkpt>
      <trkpt lat="47.51904" lon="6.78229">
        <ele>432</ele>
        <time>2020-09-23T17:00:20Z</time>
      </trkpt>
      <trkpt lat="47.51909" lon="6.78224">
        <ele>433</ele>
        <time>2020-09-23T17:00:25Z</time>
      </trkpt>
      <trkpt lat="47.51913" lon="6.7822">
        <ele>434</ele>
        <time>2020-09-23T17:00:29Z</time>
      </trkpt>
      <trkpt lat="47.51917" lon="6.78216">
        <ele>435</ele>
        <time>2020-09-23T17:00:32Z</time>
      </trkpt>
      <trkpt lat="47.5192" lon="6.78209">
        <ele>436</ele>
        <time>2020-09-23T17:00:35Z</time>
      </trkpt>
      <trkpt lat="47.51922" lon="6.78202">
        <ele>438</ele>
        <time>2020-09-23T17:00:38Z</time>
      </trkpt>
      <trkpt lat="47.51925" lon="6.78195">
        <ele>441</ele>
        <time>2020-09-23T17:00:41Z</time>
      </trkpt>
      <trkpt lat="47.51927" lon="6.78188">
        <ele>441</ele>
        <time>2020-09-23T17:00:44Z</time>
      </trkpt>
      <trkpt lat="47.5193" lon="6.78181">
        <ele>443</ele>
        <time>2020-09-23T17:00:47Z</time>
      </trkpt>
      <trkpt lat="47.5193" lon="6.78178">
        <ele>444</ele>
        <time>2020-09-23T17:00:48Z</time>
      </trkpt>
      <trkpt lat="47.51931" lon="6.78175">
        <ele>445</ele>
        <time>2020-09-23T17:00:49Z</time>
      </trkpt>
      <trkpt lat="47.51932" lon="6.78173">
        <ele>445</ele>
        <time>2020-09-23T17:00:50Z</time>
      </trkpt>
      <trkpt lat="47.51935" lon="6.78166">
        <ele>446</ele>
        <time>2020-09-23T17:00:53Z</time>
      </trkpt>
      <trkpt lat="47.51936" lon="6.78164">
        <ele>446</ele>
        <time>2020-09-23T17:00:54Z</time>
      </trkpt>
      <trkpt lat="47.51941" lon="6.7816">
        <ele>445</ele>
        <time>2020-09-23T17:00:56Z</time>
      </trkpt>
      <trkpt lat="47.51943" lon="6.78153">
        <ele>447</ele>
        <time>2020-09-23T17:00:58Z</time>
      </trkpt>
      <trkpt lat="47.51944" lon="6.7815">
        <ele>447</ele>
        <time>2020-09-23T17:00:59Z</time>
      </trkpt>
      <trkpt lat="47.51944" lon="6.78141">
        <ele>448</ele>
        <time>2020-09-23T17:01:01Z</time>
      </trkpt>
      <trkpt lat="47.51943" lon="6.78136">
        <ele>448</ele>
        <time>2020-09-23T17:01:02Z</time>
      </trkpt>
      <trkpt lat="47.51944" lon="6.78128">
        <ele>449</ele>
        <time>2020-09-23T17:01:04Z</time>
      </trkpt>
      <trkpt lat="47.51944" lon="6.78124">
        <ele>450</ele>
        <time>2020-09-23T17:01:05Z</time>
      </trkpt>
      <trkpt lat="47.51946" lon="6.78121">
        <ele>450</ele>
        <time>2020-09-23T17:01:06Z</time>
      </trkpt>
      <trkpt lat="47.51951" lon="6.78116">
        <ele>450</ele>
        <time>2020-09-23T17:01:08Z</time>
      </trkpt>
      <trkpt lat="47.51955" lon="6.7811">
        <ele>449</ele>
        <time>2020-09-23T17:01:10Z</time>
      </trkpt>
      <trkpt lat="47.5196" lon="6.78105">
        <ele>449</ele>
        <time>2020-09-23T17:01:12Z</time>
      </trkpt>
      <trkpt lat="47.51965" lon="6.78099">
        <ele>449</ele>
        <time>2020-09-23T17:01:14Z</time>
      </trkpt>
      <trkpt lat="47.51969" lon="6.78093">
        <ele>448</ele>
        <time>2020-09-23T17:01:16Z</time>
      </trkpt>
      <trkpt lat="47.51973" lon="6.78086">
        <ele>447</ele>
        <time>2020-09-23T17:01:18Z</time>
      </trkpt>
      <trkpt lat="47.51978" lon="6.7808">
        <ele>447</ele>
        <time>2020-09-23T17:01:20Z</time>
      </trkpt>
      <trkpt lat="47.51982" lon="6.78072">
        <ele>448</ele>
        <time>2020-09-23T17:01:22Z</time>
      </trkpt>
      <trkpt lat="47.51984" lon="6.78065">
        <ele>447</ele>
        <time>2020-09-23T17:01:24Z</time>
      </trkpt>
      <trkpt lat="47.51986" lon="6.78059">
        <ele>448</ele>
        <time>2020-09-23T17:01:26Z</time>
      </trkpt>
      <trkpt lat="47.51991" lon="6.78054">
        <ele>448</ele>
        <time>2020-09-23T17:01:28Z</time>
      </trkpt>
      <trkpt lat="47.51995" lon="6.78049">
        <ele>449</ele>
        <time>2020-09-23T17:01:30Z</time>
      </trkpt>
      <trkpt lat="47.52" lon="6.78044">
        <ele>450</ele>
        <time>2020-09-23T17:01:33Z</time>
      </trkpt>
      <trkpt lat="47.52005" lon="6.78038">
        <ele>451</ele>
        <time>2020-09-23T17:01:36Z</time>
      </trkpt>
      <trkpt lat="47.52007" lon="6.78035">
        <ele>451</ele>
        <time>2020-09-23T17:01:37Z</time>
      </trkpt>
      <trkpt lat="47.5201" lon="6.78027">
        <ele>451</ele>
        <time>2020-09-23T17:01:39Z</time>
      </trkpt>
      <trkpt lat="47.52013" lon="6.7802">
        <ele>451</ele>
        <time>2020-09-23T17:01:41Z</time>
      </trkpt>
      <trkpt lat="47.52016" lon="6.78013">
        <ele>451</ele>
        <time>2020-09-23T17:01:43Z</time>
      </trkpt>
      <trkpt lat="47.52019" lon="6.78006">
        <ele>451</ele>
        <time>2020-09-23T17:01:45Z</time>
      </trkpt>
      <trkpt lat="47.5202" lon="6.77999">
        <ele>451</ele>
        <time>2020-09-23T17:01:47Z</time>
      </trkpt>
      <trkpt lat="47.52021" lon="6.77992">
        <ele>452</ele>
        <time>2020-09-23T17:01:49Z</time>
      </trkpt>
      <trkpt lat="47.52021" lon="6.77988">
        <ele>453</ele>
        <time>2020-09-23T17:01:50Z</time>
      </trkpt>
      <trkpt lat="47.52021" lon="6.77985">
        <ele>453</ele>
        <time>2020-09-23T17:01:51Z</time>
      </trkpt>
      <trkpt lat="47.52023" lon="6.77976">
        <ele>453</ele>
        <time>2020-09-23T17:01:53Z</time>
      </trkpt>
      <trkpt lat="47.52023" lon="6.77968">
        <ele>453</ele>
        <time>2020-09-23T17:01:55Z</time>
      </trkpt>
      <trkpt lat="47.52023" lon="6.77961">
        <ele>452</ele>
        <time>2020-09-23T17:01:57Z</time>
      </trkpt>
      <trkpt lat="47.52023" lon="6.77954">
        <ele>451</ele>
        <time>2020-09-23T17:01:59Z</time>
      </trkpt>
      <trkpt lat="47.52024" lon="6.77947">
        <ele>450</ele>
        <time>2020-09-23T17:02:01Z</time>
      </trkpt>
      <trkpt lat="47.52025" lon="6.77939">
        <ele>450</ele>
        <time>2020-09-23T17:02:04Z</time>
      </trkpt>
      <trkpt lat="47.52026" lon="6.7793">
        <ele>450</ele>
        <time>2020-09-23T17:02:07Z</time>
      </trkpt>
      <trkpt lat="47.52029" lon="6.77921">
        <ele>452</ele>
        <time>2020-09-23T17:02:10Z</time>
      </trkpt>
      <trkpt lat="47.52031" lon="6.77912">
        <ele>453</ele>
        <time>2020-09-23T17:02:13Z</time>
      </trkpt>
      <trkpt lat="47.52031" lon="6.77904">
        <ele>454</ele>
        <time>2020-09-23T17:02:15Z</time>
      </trkpt>
      <trkpt lat="47.52029" lon="6.77901">
        <ele>455</ele>
        <time>2020-09-23T17:02:16Z</time>
      </trkpt>
      <trkpt lat="47.52029" lon="6.77897">
        <ele>455</ele>
        <time>2020-09-23T17:02:17Z</time>
      </trkpt>
      <trkpt lat="47.52027" lon="6.77888">
        <ele>457</ele>
        <time>2020-09-23T17:02:20Z</time>
      </trkpt>
      <trkpt lat="47.52027" lon="6.77884">
        <ele>457</ele>
        <time>2020-09-23T17:02:21Z</time>
      </trkpt>
      <trkpt lat="47.52026" lon="6.77877">
        <ele>457</ele>
        <time>2020-09-23T17:02:23Z</time>
      </trkpt>
      <trkpt lat="47.52026" lon="6.77867">
        <ele>456</ele>
        <time>2020-09-23T17:02:25Z</time>
      </trkpt>
      <trkpt lat="47.52025" lon="6.77859">
        <ele>456</ele>
        <time>2020-09-23T17:02:27Z</time>
      </trkpt>
      <trkpt lat="47.52023" lon="6.7785">
        <ele>456</ele>
        <time>2020-09-23T17:02:30Z</time>
      </trkpt>
      <trkpt lat="47.52021" lon="6.77843">
        <ele>456</ele>
        <time>2020-09-23T17:02:32Z</time>
      </trkpt>
      <trkpt lat="47.5202" lon="6.77836">
        <ele>455</ele>
        <time>2020-09-23T17:02:34Z</time>
      </trkpt>
      <trkpt lat="47.52016" lon="6.77827">
        <ele>454</ele>
        <time>2020-09-23T17:02:37Z</time>
      </trkpt>
      <trkpt lat="47.52015" lon="6.77819">
        <ele>455</ele>
        <time>2020-09-23T17:02:39Z</time>
      </trkpt>
      <trkpt lat="47.52013" lon="6.77812">
        <ele>456</ele>
        <time>2020-09-23T17:02:41Z</time>
      </trkpt>
      <trkpt lat="47.52012" lon="6.77804">
        <ele>456</ele>
        <time>2020-09-23T17:02:43Z</time>
      </trkpt>
      <trkpt lat="47.5201" lon="6.77797">
        <ele>456</ele>
        <time>2020-09-23T17:02:45Z</time>
      </trkpt>
      <trkpt lat="47.52009" lon="6.77791">
        <ele>455</ele>
        <time>2020-09-23T17:02:47Z</time>
      </trkpt>
      <trkpt lat="47.52011" lon="6.77784">
        <ele>454</ele>
        <time>2020-09-23T17:02:49Z</time>
      </trkpt>
      <trkpt lat="47.52013" lon="6.77777">
        <ele>454</ele>
        <time>2020-09-23T17:02:51Z</time>
      </trkpt>
      <trkpt lat="47.52018" lon="6.7777">
        <ele>453</ele>
        <time>2020-09-23T17:02:54Z</time>
      </trkpt>
      <trkpt lat="47.52022" lon="6.77765">
        <ele>453</ele>
        <time>2020-09-23T17:02:56Z</time>
      </trkpt>
      <trkpt lat="47.52026" lon="6.77758">
        <ele>453</ele>
        <time>2020-09-23T17:02:58Z</time>
      </trkpt>
      <trkpt lat="47.52031" lon="6.77753">
        <ele>453</ele>
        <time>2020-09-23T17:03:00Z</time>
      </trkpt>
      <trkpt lat="47.52036" lon="6.77747">
        <ele>453</ele>
        <time>2020-09-23T17:03:02Z</time>
      </trkpt>
      <trkpt lat="47.5204" lon="6.77741">
        <ele>453</ele>
        <time>2020-09-23T17:03:04Z</time>
      </trkpt>
      <trkpt lat="47.52044" lon="6.77735">
        <ele>452</ele>
        <time>2020-09-23T17:03:06Z</time>
      </trkpt>
      <trkpt lat="47.52048" lon="6.7773">
        <ele>451</ele>
        <time>2020-09-23T17:03:08Z</time>
      </trkpt>
      <trkpt lat="47.52051" lon="6.77725">
        <ele>450</ele>
        <time>2020-09-23T17:03:10Z</time>
      </trkpt>
      <trkpt lat="47.52055" lon="6.7772">
        <ele>450</ele>
        <time>2020-09-23T17:03:12Z</time>
      </trkpt>
      <trkpt lat="47.52059" lon="6.77716">
        <ele>449</ele>
        <time>2020-09-23T17:03:14Z</time>
      </trkpt>
      <trkpt lat="47.52066" lon="6.77712">
        <ele>449</ele>
        <time>2020-09-23T17:03:17Z</time>
      </trkpt>
      <trkpt lat="47.5207" lon="6.77707">
        <ele>449</ele>
        <time>2020-09-23T17:03:19Z</time>
      </trkpt>
      <trkpt lat="47.52075" lon="6.77702">
        <ele>449</ele>
        <time>2020-09-23T17:03:21Z</time>
      </trkpt>
      <trkpt lat="47.52079" lon="6.77698">
        <ele>448</ele>
        <time>2020-09-23T17:03:23Z</time>
      </trkpt>
      <trkpt lat="47.52084" lon="6.77695">
        <ele>448</ele>
        <time>2020-09-23T17:03:25Z</time>
      </trkpt>
      <trkpt lat="47.52089" lon="6.77691">
        <ele>448</ele>
        <time>2020-09-23T17:03:28Z</time>
      </trkpt>
      <trkpt lat="47.52093" lon="6.77687">
        <ele>448</ele>
        <time>2020-09-23T17:03:30Z</time>
      </trkpt>
      <trkpt lat="47.52097" lon="6.77683">
        <ele>447</ele>
        <time>2020-09-23T17:03:32Z</time>
      </trkpt>
      <trkpt lat="47.52102" lon="6.77677">
        <ele>447</ele>
        <time>2020-09-23T17:03:34Z</time>
      </trkpt>
      <trkpt lat="47.52109" lon="6.77674">
        <ele>447</ele>
        <time>2020-09-23T17:03:36Z</time>
      </trkpt>
      <trkpt lat="47.52114" lon="6.7767">
        <ele>447</ele>
        <time>2020-09-23T17:03:38Z</time>
      </trkpt>
      <trkpt lat="47.52119" lon="6.77667">
        <ele>446</ele>
        <time>2020-09-23T17:03:40Z</time>
      </trkpt>
      <trkpt lat="47.52123" lon="6.77663">
        <ele>445</ele>
        <time>2020-09-23T17:03:42Z</time>
      </trkpt>
      <trkpt lat="47.52128" lon="6.77662">
        <ele>445</ele>
        <time>2020-09-23T17:03:45Z</time>
      </trkpt>
      <trkpt lat="47.52134" lon="6.77656">
        <ele>445</ele>
        <time>2020-09-23T17:03:48Z</time>
      </trkpt>
      <trkpt lat="47.52139" lon="6.77652">
        <ele>446</ele>
        <time>2020-09-23T17:03:50Z</time>
      </trkpt>
      <trkpt lat="47.52144" lon="6.77649">
        <ele>446</ele>
        <time>2020-09-23T17:03:52Z</time>
      </trkpt>
      <trkpt lat="47.52149" lon="6.77646">
        <ele>446</ele>
        <time>2020-09-23T17:03:54Z</time>
      </trkpt>
      <trkpt lat="47.52154" lon="6.77641">
        <ele>445</ele>
        <time>2020-09-23T17:03:56Z</time>
      </trkpt>
      <trkpt lat="47.52158" lon="6.77637">
        <ele>444</ele>
        <time>2020-09-23T17:03:58Z</time>
      </trkpt>
      <trkpt lat="47.52163" lon="6.77634">
        <ele>444</ele>
        <time>2020-09-23T17:04:00Z</time>
      </trkpt>
      <trkpt lat="47.52168" lon="6.7763">
        <ele>444</ele>
        <time>2020-09-23T17:04:02Z</time>
      </trkpt>
      <trkpt lat="47.52173" lon="6.77626">
        <ele>443</ele>
        <time>2020-09-23T17:04:04Z</time>
      </trkpt>
      <trkpt lat="47.52178" lon="6.77623">
        <ele>443</ele>
        <time>2020-09-23T17:04:06Z</time>
      </trkpt>
      <trkpt lat="47.52182" lon="6.77619">
        <ele>443</ele>
        <time>2020-09-23T17:04:08Z</time>
      </trkpt>
      <trkpt lat="47.52187" lon="6.77615">
        <ele>442</ele>
        <time>2020-09-23T17:04:10Z</time>
      </trkpt>
      <trkpt lat="47.52192" lon="6.7761">
        <ele>442</ele>
        <time>2020-09-23T17:04:12Z</time>
      </trkpt>
      <trkpt lat="47.52197" lon="6.77606">
        <ele>441</ele>
        <time>2020-09-23T17:04:14Z</time>
      </trkpt>
      <trkpt lat="47.52203" lon="6.77601">
        <ele>441</ele>
        <time>2020-09-23T17:04:16Z</time>
      </trkpt>
      <trkpt lat="47.52209" lon="6.77597">
        <ele>441</ele>
        <time>2020-09-23T17:04:18Z</time>
      </trkpt>
      <trkpt lat="47.52213" lon="6.77594">
        <ele>440</ele>
        <time>2020-09-23T17:04:20Z</time>
      </trkpt>
      <trkpt lat="47.52218" lon="6.77591">
        <ele>440</ele>
        <time>2020-09-23T17:04:22Z</time>
      </trkpt>
      <trkpt lat="47.52222" lon="6.77588">
        <ele>439</ele>
        <time>2020-09-23T17:04:24Z</time>
      </trkpt>
      <trkpt lat="47.52227" lon="6.77585">
        <ele>439</ele>
        <time>2020-09-23T17:04:26Z</time>
      </trkpt>
      <trkpt lat="47.52231" lon="6.77582">
        <ele>438</ele>
        <time>2020-09-23T17:04:28Z</time>
      </trkpt>
      <trkpt lat="47.52237" lon="6.77577">
        <ele>439</ele>
        <time>2020-09-23T17:04:31Z</time>
      </trkpt>
      <trkpt lat="47.52242" lon="6.77573">
        <ele>439</ele>
        <time>2020-09-23T17:04:33Z</time>
      </trkpt>
      <trkpt lat="47.52247" lon="6.7757">
        <ele>440</ele>
        <time>2020-09-23T17:04:35Z</time>
      </trkpt>
      <trkpt lat="47.52253" lon="6.77567">
        <ele>440</ele>
        <time>2020-09-23T17:04:37Z</time>
      </trkpt>
      <trkpt lat="47.52258" lon="6.77564">
        <ele>440</ele>
        <time>2020-09-23T17:04:39Z</time>
      </trkpt>
      <trkpt lat="47.52263" lon="6.77562">
        <ele>439</ele>
        <time>2020-09-23T17:04:41Z</time>
      </trkpt>
      <trkpt lat="47.52267" lon="6.77558">
        <ele>441</ele>
        <time>2020-09-23T17:04:43Z</time>
      </trkpt>
      <trkpt lat="47.52272" lon="6.77555">
        <ele>441</ele>
        <time>2020-09-23T17:04:45Z</time>
      </trkpt>
      <trkpt lat="47.52277" lon="6.77552">
        <ele>441</ele>
        <time>2020-09-23T17:04:47Z</time>
      </trkpt>
      <trkpt lat="47.52281" lon="6.77549">
        <ele>441</ele>
        <time>2020-09-23T17:04:49Z</time>
      </trkpt>
      <trkpt lat="47.52287" lon="6.77546">
        <ele>440</ele>
        <time>2020-09-23T17:04:52Z</time>
      </trkpt>
      <trkpt lat="47.52293" lon="6.77542">
        <ele>441</ele>
        <time>2020-09-23T17:04:54Z</time>
      </trkpt>
      <trkpt lat="47.52299" lon="6.7754">
        <ele>440</ele>
        <time>2020-09-23T17:04:56Z</time>
      </trkpt>
      <trkpt lat="47.52305" lon="6.77536">
        <ele>440</ele>
        <time>2020-09-23T17:04:59Z</time>
      </trkpt>
      <trkpt lat="47.5231" lon="6.77531">
        <ele>440</ele>
        <time>2020-09-23T17:05:02Z</time>
      </trkpt>
      <trkpt lat="47.52314" lon="6.77528">
        <ele>440</ele>
        <time>2020-09-23T17:05:04Z</time>
      </trkpt>
      <trkpt lat="47.52319" lon="6.77524">
        <ele>440</ele>
        <time>2020-09-23T17:05:06Z</time>
      </trkpt>
      <trkpt lat="47.52324" lon="6.7752">
        <ele>440</ele>
        <time>2020-09-23T17:05:08Z</time>
      </trkpt>
      <trkpt lat="47.52329" lon="6.77515">
        <ele>439</ele>
        <time>2020-09-23T17:05:11Z</time>
      </trkpt>
      <trkpt lat="47.52334" lon="6.7751">
        <ele>438</ele>
        <time>2020-09-23T17:05:14Z</time>
      </trkpt>
      <trkpt lat="47.52341" lon="6.77505">
        <ele>438</ele>
        <time>2020-09-23T17:05:17Z</time>
      </trkpt>
      <trkpt lat="47.52346" lon="6.77503">
        <ele>439</ele>
        <time>2020-09-23T17:05:19Z</time>
      </trkpt>
      <trkpt lat="47.52351" lon="6.77501">
        <ele>439</ele>
        <time>2020-09-23T17:05:21Z</time>
      </trkpt>
      <trkpt lat="47.52355" lon="6.77498">
        <ele>440</ele>
        <time>2020-09-23T17:05:23Z</time>
      </trkpt>
      <trkpt lat="47.5236" lon="6.77496">
        <ele>440</ele>
        <time>2020-09-23T17:05:25Z</time>
      </trkpt>
      <trkpt lat="47.52365" lon="6.77493">
        <ele>440</ele>
        <time>2020-09-23T17:05:27Z</time>
      </trkpt>
      <trkpt lat="47.52371" lon="6.77489">
        <ele>440</ele>
        <time>2020-09-23T17:05:29Z</time>
      </trkpt>
      <trkpt lat="47.52375" lon="6.77485">
        <ele>439</ele>
        <time>2020-09-23T17:05:31Z</time>
      </trkpt>
      <trkpt lat="47.5238" lon="6.77481">
        <ele>439</ele>
        <time>2020-09-23T17:05:33Z</time>
      </trkpt>
      <trkpt lat="47.52386" lon="6.77478">
        <ele>438</ele>
        <time>2020-09-23T17:05:36Z</time>
      </trkpt>
      <trkpt lat="47.5239" lon="6.77475">
        <ele>438</ele>
        <time>2020-09-23T17:05:39Z</time>
      </trkpt>
      <trkpt lat="47.52394" lon="6.77471">
        <ele>438</ele>
        <time>2020-09-23T17:05:42Z</time>
      </trkpt>
      <trkpt lat="47.52399" lon="6.77463">
        <ele>440</ele>
        <time>2020-09-23T17:05:45Z</time>
      </trkpt>
      <trkpt lat="47.52402" lon="6.77458">
        <ele>440</ele>
        <time>2020-09-23T17:05:49Z</time>
      </trkpt>
      <trkpt lat="47.52398" lon="6.77454">
        <ele>441</ele>
        <time>2020-09-23T17:05:53Z</time>
      </trkpt>
      <trkpt lat="47.52394" lon="6.77451">
        <ele>443</ele>
        <time>2020-09-23T17:05:56Z</time>
      </trkpt>
      <trkpt lat="47.5239" lon="6.77447">
        <ele>445</ele>
        <time>2020-09-23T17:06:01Z</time>
      </trkpt>
      <trkpt lat="47.52386" lon="6.77442">
        <ele>446</ele>
        <time>2020-09-23T17:06:05Z</time>
      </trkpt>
      <trkpt lat="47.52389" lon="6.7744">
        <ele>447</ele>
        <time>2020-09-23T17:06:09Z</time>
      </trkpt>
      <trkpt lat="47.52389" lon="6.7744">
        <ele>447</ele>
        <time>2020-09-23T17:06:09Z</time>
      </trkpt>
      <trkpt lat="47.52383" lon="6.77435">
        <ele>446</ele>
        <time>2020-09-23T17:06:15Z</time>
      </trkpt>
      <trkpt lat="47.52379" lon="6.7743">
        <ele>445</ele>
        <time>2020-09-23T17:06:17Z</time>
      </trkpt>
      <trkpt lat="47.52374" lon="6.77423">
        <ele>446</ele>
        <time>2020-09-23T17:06:20Z</time>
      </trkpt>
      <trkpt lat="47.52371" lon="6.77417">
        <ele>447</ele>
        <time>2020-09-23T17:06:23Z</time>
      </trkpt>
      <trkpt lat="47.52367" lon="6.77413">
        <ele>447</ele>
        <time>2020-09-23T17:06:26Z</time>
      </trkpt>
      <trkpt lat="47.52362" lon="6.77408">
        <ele>449</ele>
        <time>2020-09-23T17:06:29Z</time>
      </trkpt>
      <trkpt lat="47.52359" lon="6.77403">
        <ele>449</ele>
        <time>2020-09-23T17:06:32Z</time>
      </trkpt>
      <trkpt lat="47.52356" lon="6.77399">
        <ele>449</ele>
        <time>2020-09-23T17:06:35Z</time>
      </trkpt>
      <trkpt lat="47.52354" lon="6.77392">
        <ele>449</ele>
        <time>2020-09-23T17:06:40Z</time>
      </trkpt>
      <trkpt lat="47.52353" lon="6.77391">
        <ele>450</ele>
        <time>2020-09-23T17:06:43Z</time>
      </trkpt>
      <trkpt lat="47.52353" lon="6.77391">
        <ele>450</ele>
        <time>2020-09-23T17:06:43Z</time>
      </trkpt>
      <trkpt lat="47.52335" lon="6.77358">
        <ele>435</ele>
        <time>2020-09-23T17:07:53Z</time>
      </trkpt>
      <trkpt lat="47.52331" lon="6.77352">
        <ele>438</ele>
        <time>2020-09-23T17:07:59Z</time>
      </trkpt>
      <trkpt lat="47.5233" lon="6.77345">
        <ele>440</ele>
        <time>2020-09-23T17:08:02Z</time>
      </trkpt>
      <trkpt lat="47.52328" lon="6.77336">
        <ele>440</ele>
        <time>2020-09-23T17:08:06Z</time>
      </trkpt>
      <trkpt lat="47.52327" lon="6.7733">
        <ele>441</ele>
        <time>2020-09-23T17:08:08Z</time>
      </trkpt>
      <trkpt lat="47.52327" lon="6.77322">
        <ele>441</ele>
        <time>2020-09-23T17:08:11Z</time>
      </trkpt>
      <trkpt lat="47.52326" lon="6.77314">
        <ele>440</ele>
        <time>2020-09-23T17:08:14Z</time>
      </trkpt>
      <trkpt lat="47.52325" lon="6.77307">
        <ele>442</ele>
        <time>2020-09-23T17:08:17Z</time>
      </trkpt>
      <trkpt lat="47.52326" lon="6.77298">
        <ele>443</ele>
        <time>2020-09-23T17:08:20Z</time>
      </trkpt>
      <trkpt lat="47.52326" lon="6.77289">
        <ele>444</ele>
        <time>2020-09-23T17:08:23Z</time>
      </trkpt>
      <trkpt lat="47.52327" lon="6.77281">
        <ele>446</ele>
        <time>2020-09-23T17:08:26Z</time>
      </trkpt>
      <trkpt lat="47.52328" lon="6.77271">
        <ele>447</ele>
        <time>2020-09-23T17:08:29Z</time>
      </trkpt>
      <trkpt lat="47.52329" lon="6.77264">
        <ele>447</ele>
        <time>2020-09-23T17:08:31Z</time>
      </trkpt>
      <trkpt lat="47.52331" lon="6.77257">
        <ele>448</ele>
        <time>2020-09-23T17:08:33Z</time>
      </trkpt>
      <trkpt lat="47.52334" lon="6.77249">
        <ele>448</ele>
        <time>2020-09-23T17:08:36Z</time>
      </trkpt>
      <trkpt lat="47.52335" lon="6.77242">
        <ele>449</ele>
        <time>2020-09-23T17:08:39Z</time>
      </trkpt>
      <trkpt lat="47.52337" lon="6.77234">
        <ele>450</ele>
        <time>2020-09-23T17:08:42Z</time>
      </trkpt>
      <trkpt lat="47.52339" lon="6.77225">
        <ele>450</ele>
        <time>2020-09-23T17:08:45Z</time>
      </trkpt>
      <trkpt lat="47.52341" lon="6.77217">
        <ele>451</ele>
        <time>2020-09-23T17:08:48Z</time>
      </trkpt>
      <trkpt lat="47.52344" lon="6.7721">
        <ele>452</ele>
        <time>2020-09-23T17:08:51Z</time>
      </trkpt>
      <trkpt lat="47.52346" lon="6.77202">
        <ele>454</ele>
        <time>2020-09-23T17:08:54Z</time>
      </trkpt>
      <trkpt lat="47.5235" lon="6.77194">
        <ele>454</ele>
        <time>2020-09-23T17:08:57Z</time>
      </trkpt>
      <trkpt lat="47.52352" lon="6.77188">
        <ele>455</ele>
        <time>2020-09-23T17:09:00Z</time>
      </trkpt>
      <trkpt lat="47.52354" lon="6.77181">
        <ele>457</ele>
        <time>2020-09-23T17:09:04Z</time>
      </trkpt>
      <trkpt lat="47.52356" lon="6.77174">
        <ele>457</ele>
        <time>2020-09-23T17:09:07Z</time>
      </trkpt>
      <trkpt lat="47.52359" lon="6.77168">
        <ele>457</ele>
        <time>2020-09-23T17:09:10Z</time>
      </trkpt>
      <trkpt lat="47.52361" lon="6.7716">
        <ele>457</ele>
        <time>2020-09-23T17:09:13Z</time>
      </trkpt>
      <trkpt lat="47.52364" lon="6.77151">
        <ele>458</ele>
        <time>2020-09-23T17:09:16Z</time>
      </trkpt>
      <trkpt lat="47.52365" lon="6.77147">
        <ele>458</ele>
        <time>2020-09-23T17:09:17Z</time>
      </trkpt>
      <trkpt lat="47.52367" lon="6.77141">
        <ele>459</ele>
        <time>2020-09-23T17:09:19Z</time>
      </trkpt>
      <trkpt lat="47.52368" lon="6.77138">
        <ele>459</ele>
        <time>2020-09-23T17:09:20Z</time>
      </trkpt>
      <trkpt lat="47.52371" lon="6.77132">
        <ele>459</ele>
        <time>2020-09-23T17:09:22Z</time>
      </trkpt>
      <trkpt lat="47.52374" lon="6.77127">
        <ele>461</ele>
        <time>2020-09-23T17:09:24Z</time>
      </trkpt>
      <trkpt lat="47.52374" lon="6.77124">
        <ele>462</ele>
        <time>2020-09-23T17:09:25Z</time>
      </trkpt>
      <trkpt lat="47.52375" lon="6.77122">
        <ele>462</ele>
        <time>2020-09-23T17:09:26Z</time>
      </trkpt>
      <trkpt lat="47.52379" lon="6.77115">
        <ele>464</ele>
        <time>2020-09-23T17:09:29Z</time>
      </trkpt>
      <trkpt lat="47.5238" lon="6.77112">
        <ele>464</ele>
        <time>2020-09-23T17:09:30Z</time>
      </trkpt>
      <trkpt lat="47.52383" lon="6.77105">
        <ele>464</ele>
        <time>2020-09-23T17:09:32Z</time>
      </trkpt>
      <trkpt lat="47.52386" lon="6.77097">
        <ele>464</ele>
        <time>2020-09-23T17:09:34Z</time>
      </trkpt>
      <trkpt lat="47.52388" lon="6.77095">
        <ele>465</ele>
        <time>2020-09-23T17:09:35Z</time>
      </trkpt>
      <trkpt lat="47.52391" lon="6.77089">
        <ele>465</ele>
        <time>2020-09-23T17:09:37Z</time>
      </trkpt>
      <trkpt lat="47.52393" lon="6.77082">
        <ele>466</ele>
        <time>2020-09-23T17:09:39Z</time>
      </trkpt>
      <trkpt lat="47.52395" lon="6.77076">
        <ele>466</ele>
        <time>2020-09-23T17:09:40Z</time>
      </trkpt>
      <trkpt lat="47.52397" lon="6.77071">
        <ele>465</ele>
        <time>2020-09-23T17:09:41Z</time>
      </trkpt>
      <trkpt lat="47.52401" lon="6.77061">
        <ele>464</ele>
        <time>2020-09-23T17:09:43Z</time>
      </trkpt>
      <trkpt lat="47.52406" lon="6.77054">
        <ele>463</ele>
        <time>2020-09-23T17:09:45Z</time>
      </trkpt>
      <trkpt lat="47.5241" lon="6.77048">
        <ele>464</ele>
        <time>2020-09-23T17:09:47Z</time>
      </trkpt>
      <trkpt lat="47.52414" lon="6.77042">
        <ele>464</ele>
        <time>2020-09-23T17:09:49Z</time>
      </trkpt>
      <trkpt lat="47.52417" lon="6.77036">
        <ele>463</ele>
        <time>2020-09-23T17:09:51Z</time>
      </trkpt>
      <trkpt lat="47.52421" lon="6.7703">
        <ele>463</ele>
        <time>2020-09-23T17:09:53Z</time>
      </trkpt>
      <trkpt lat="47.52423" lon="6.77024">
        <ele>462</ele>
        <time>2020-09-23T17:09:55Z</time>
      </trkpt>
      <trkpt lat="47.52427" lon="6.77016">
        <ele>461</ele>
        <time>2020-09-23T17:09:58Z</time>
      </trkpt>
      <trkpt lat="47.52429" lon="6.7701">
        <ele>462</ele>
        <time>2020-09-23T17:10:00Z</time>
      </trkpt>
      <trkpt lat="47.52432" lon="6.77001">
        <ele>462</ele>
        <time>2020-09-23T17:10:03Z</time>
      </trkpt>
      <trkpt lat="47.52435" lon="6.76992">
        <ele>462</ele>
        <time>2020-09-23T17:10:06Z</time>
      </trkpt>
      <trkpt lat="47.52438" lon="6.76985">
        <ele>461</ele>
        <time>2020-09-23T17:10:09Z</time>
      </trkpt>
      <trkpt lat="47.5244" lon="6.76977">
        <ele>462</ele>
        <time>2020-09-23T17:10:12Z</time>
      </trkpt>
      <trkpt lat="47.52443" lon="6.76972">
        <ele>463</ele>
        <time>2020-09-23T17:10:15Z</time>
      </trkpt>
      <trkpt lat="47.52448" lon="6.76965">
        <ele>464</ele>
        <time>2020-09-23T17:10:18Z</time>
      </trkpt>
      <trkpt lat="47.52452" lon="6.76958">
        <ele>465</ele>
        <time>2020-09-23T17:10:21Z</time>
      </trkpt>
      <trkpt lat="47.52456" lon="6.76951">
        <ele>466</ele>
        <time>2020-09-23T17:10:24Z</time>
      </trkpt>
      <trkpt lat="47.52457" lon="6.76944">
        <ele>467</ele>
        <time>2020-09-23T17:10:26Z</time>
      </trkpt>
      <trkpt lat="47.52458" lon="6.7694">
        <ele>467</ele>
        <time>2020-09-23T17:10:27Z</time>
      </trkpt>
      <trkpt lat="47.52462" lon="6.76935">
        <ele>468</ele>
        <time>2020-09-23T17:10:29Z</time>
      </trkpt>
      <trkpt lat="47.52462" lon="6.76932">
        <ele>468</ele>
        <time>2020-09-23T17:10:30Z</time>
      </trkpt>
      <trkpt lat="47.52465" lon="6.76923">
        <ele>467</ele>
        <time>2020-09-23T17:10:33Z</time>
      </trkpt>
      <trkpt lat="47.52468" lon="6.76917">
        <ele>467</ele>
        <time>2020-09-23T17:10:35Z</time>
      </trkpt>
      <trkpt lat="47.52471" lon="6.7691">
        <ele>467</ele>
        <time>2020-09-23T17:10:37Z</time>
      </trkpt>
      <trkpt lat="47.52474" lon="6.76902">
        <ele>468</ele>
        <time>2020-09-23T17:10:40Z</time>
      </trkpt>
      <trkpt lat="47.52478" lon="6.76898">
        <ele>468</ele>
        <time>2020-09-23T17:10:43Z</time>
      </trkpt>
      <trkpt lat="47.52484" lon="6.76894">
        <ele>468</ele>
        <time>2020-09-23T17:10:47Z</time>
      </trkpt>
      <trkpt lat="47.5249" lon="6.76892">
        <ele>468</ele>
        <time>2020-09-23T17:10:50Z</time>
      </trkpt>
      <trkpt lat="47.52495" lon="6.7689">
        <ele>468</ele>
        <time>2020-09-23T17:10:53Z</time>
      </trkpt>
      <trkpt lat="47.525" lon="6.7689">
        <ele>466</ele>
        <time>2020-09-23T17:10:56Z</time>
      </trkpt>
      <trkpt lat="47.52505" lon="6.76888">
        <ele>467</ele>
        <time>2020-09-23T17:10:59Z</time>
      </trkpt>
      <trkpt lat="47.5251" lon="6.76888">
        <ele>467</ele>
        <time>2020-09-23T17:11:03Z</time>
      </trkpt>
      <trkpt lat="47.52515" lon="6.76887">
        <ele>468</ele>
        <time>2020-09-23T17:11:07Z</time>
      </trkpt>
      <trkpt lat="47.52519" lon="6.76884">
        <ele>468</ele>
        <time>2020-09-23T17:11:11Z</time>
      </trkpt>
      <trkpt lat="47.52527" lon="6.76884">
        <ele>469</ele>
        <time>2020-09-23T17:11:15Z</time>
      </trkpt>
      <trkpt lat="47.52527" lon="6.76884">
        <ele>469</ele>
        <time>2020-09-23T17:11:15Z</time>
      </trkpt>
      <trkpt lat="47.52533" lon="6.76882">
        <ele>469</ele>
        <time>2020-09-23T17:11:19Z</time>
      </trkpt>
      <trkpt lat="47.52539" lon="6.7688">
        <ele>469</ele>
        <time>2020-09-23T17:11:23Z</time>
      </trkpt>
      <trkpt lat="47.52546" lon="6.76881">
        <ele>468</ele>
        <time>2020-09-23T17:11:26Z</time>
      </trkpt>
      <trkpt lat="47.52551" lon="6.7688">
        <ele>468</ele>
        <time>2020-09-23T17:11:29Z</time>
      </trkpt>
      <trkpt lat="47.52557" lon="6.7688">
        <ele>467</ele>
        <time>2020-09-23T17:11:31Z</time>
      </trkpt>
      <trkpt lat="47.52564" lon="6.76881">
        <ele>466</ele>
        <time>2020-09-23T17:11:35Z</time>
      </trkpt>
      <trkpt lat="47.52571" lon="6.7688">
        <ele>467</ele>
        <time>2020-09-23T17:11:38Z</time>
      </trkpt>
      <trkpt lat="47.52576" lon="6.76882">
        <ele>467</ele>
        <time>2020-09-23T17:11:40Z</time>
      </trkpt>
      <trkpt lat="47.52581" lon="6.76882">
        <ele>466</ele>
        <time>2020-09-23T17:11:42Z</time>
      </trkpt>
      <trkpt lat="47.52586" lon="6.76883">
        <ele>464</ele>
        <time>2020-09-23T17:11:45Z</time>
      </trkpt>
      <trkpt lat="47.52591" lon="6.76883">
        <ele>464</ele>
        <time>2020-09-23T17:11:48Z</time>
      </trkpt>
      <trkpt lat="47.52599" lon="6.76881">
        <ele>464</ele>
        <time>2020-09-23T17:11:53Z</time>
      </trkpt>
      <trkpt lat="47.52604" lon="6.76883">
        <ele>463</ele>
        <time>2020-09-23T17:11:56Z</time>
      </trkpt>
      <trkpt lat="47.5261" lon="6.76883">
        <ele>463</ele>
        <time>2020-09-23T17:11:59Z</time>
      </trkpt>
      <trkpt lat="47.52615" lon="6.76882">
        <ele>463</ele>
        <time>2020-09-23T17:12:02Z</time>
      </trkpt>
      <trkpt lat="47.52621" lon="6.76884">
        <ele>462</ele>
        <time>2020-09-23T17:12:06Z</time>
      </trkpt>
      <trkpt lat="47.52627" lon="6.76884">
        <ele>463</ele>
        <time>2020-09-23T17:12:07Z</time>
      </trkpt>
      <trkpt lat="47.52634" lon="6.76884">
        <ele>462</ele>
        <time>2020-09-23T17:12:11Z</time>
      </trkpt>
      <trkpt lat="47.52641" lon="6.76884">
        <ele>464</ele>
        <time>2020-09-23T17:12:14Z</time>
      </trkpt>
      <trkpt lat="47.52647" lon="6.76884">
        <ele>463</ele>
        <time>2020-09-23T17:12:17Z</time>
      </trkpt>
      <trkpt lat="47.52653" lon="6.76882">
        <ele>463</ele>
        <time>2020-09-23T17:12:20Z</time>
      </trkpt>
      <trkpt lat="47.52657" lon="6.76881">
        <ele>463</ele>
        <time>2020-09-23T17:12:22Z</time>
      </trkpt>
      <trkpt lat="47.52662" lon="6.76879">
        <ele>462</ele>
        <time>2020-09-23T17:12:24Z</time>
      </trkpt>
      <trkpt lat="47.52666" lon="6.76876">
        <ele>462</ele>
        <time>2020-09-23T17:12:26Z</time>
      </trkpt>
      <trkpt lat="47.52674" lon="6.76872">
        <ele>460</ele>
        <time>2020-09-23T17:12:30Z</time>
      </trkpt>
      <trkpt lat="47.5268" lon="6.76871">
        <ele>460</ele>
        <time>2020-09-23T17:12:32Z</time>
      </trkpt>
      <trkpt lat="47.52686" lon="6.76869">
        <ele>460</ele>
        <time>2020-09-23T17:12:34Z</time>
      </trkpt>
      <trkpt lat="47.52694" lon="6.76866">
        <ele>460</ele>
        <time>2020-09-23T17:12:37Z</time>
      </trkpt>
      <trkpt lat="47.527" lon="6.76864">
        <ele>458</ele>
        <time>2020-09-23T17:12:39Z</time>
      </trkpt>
      <trkpt lat="47.52708" lon="6.76861">
        <ele>457</ele>
        <time>2020-09-23T17:12:42Z</time>
      </trkpt>
      <trkpt lat="47.52713" lon="6.7686">
        <ele>456</ele>
        <time>2020-09-23T17:12:44Z</time>
      </trkpt>
      <trkpt lat="47.52719" lon="6.76859">
        <ele>455</ele>
        <time>2020-09-23T17:12:47Z</time>
      </trkpt>
      <trkpt lat="47.52728" lon="6.76857">
        <ele>455</ele>
        <time>2020-09-23T17:12:50Z</time>
      </trkpt>
      <trkpt lat="47.52735" lon="6.76855">
        <ele>454</ele>
        <time>2020-09-23T17:12:52Z</time>
      </trkpt>
      <trkpt lat="47.5274" lon="6.76854">
        <ele>452</ele>
        <time>2020-09-23T17:12:54Z</time>
      </trkpt>
      <trkpt lat="47.52747" lon="6.76848">
        <ele>451</ele>
        <time>2020-09-23T17:12:57Z</time>
      </trkpt>
      <trkpt lat="47.52751" lon="6.76845">
        <ele>452</ele>
        <time>2020-09-23T17:12:59Z</time>
      </trkpt>
      <trkpt lat="47.52756" lon="6.76845">
        <ele>451</ele>
        <time>2020-09-23T17:13:01Z</time>
      </trkpt>
      <trkpt lat="47.52761" lon="6.76843">
        <ele>450</ele>
        <time>2020-09-23T17:13:03Z</time>
      </trkpt>
      <trkpt lat="47.52766" lon="6.76841">
        <ele>449</ele>
        <time>2020-09-23T17:13:05Z</time>
      </trkpt>
      <trkpt lat="47.52772" lon="6.76839">
        <ele>448</ele>
        <time>2020-09-23T17:13:07Z</time>
      </trkpt>
      <trkpt lat="47.52777" lon="6.76838">
        <ele>447</ele>
        <time>2020-09-23T17:13:09Z</time>
      </trkpt>
      <trkpt lat="47.52784" lon="6.76837">
        <ele>446</ele>
        <time>2020-09-23T17:13:12Z</time>
      </trkpt>
      <trkpt lat="47.52792" lon="6.76837">
        <ele>445</ele>
        <time>2020-09-23T17:13:16Z</time>
      </trkpt>
      <trkpt lat="47.52794" lon="6.76838">
        <ele>442</ele>
        <time>2020-09-23T17:13:19Z</time>
      </trkpt>
      <trkpt lat="47.52794" lon="6.76838">
        <ele>442</ele>
        <time>2020-09-23T17:13:19Z</time>
      </trkpt>
      <trkpt lat="47.52807" lon="6.76833">
        <ele>439</ele>
        <time>2020-09-23T17:13:49Z</time>
      </trkpt>
      <trkpt lat="47.52812" lon="6.76835">
        <ele>437</ele>
        <time>2020-09-23T17:13:51Z</time>
      </trkpt>
      <trkpt lat="47.52819" lon="6.76834">
        <ele>436</ele>
        <time>2020-09-23T17:13:55Z</time>
      </trkpt>
      <trkpt lat="47.52825" lon="6.7683">
        <ele>436</ele>
        <time>2020-09-23T17:13:57Z</time>
      </trkpt>
      <trkpt lat="47.52829" lon="6.76827">
        <ele>436</ele>
        <time>2020-09-23T17:13:59Z</time>
      </trkpt>
      <trkpt lat="47.52834" lon="6.76825">
        <ele>435</ele>
        <time>2020-09-23T17:14:01Z</time>
      </trkpt>
      <trkpt lat="47.5284" lon="6.76822">
        <ele>433</ele>
        <time>2020-09-23T17:14:04Z</time>
      </trkpt>
      <trkpt lat="47.52844" lon="6.76821">
        <ele>433</ele>
        <time>2020-09-23T17:14:07Z</time>
      </trkpt>
      <trkpt lat="47.52851" lon="6.76819">
        <ele>433</ele>
        <time>2020-09-23T17:14:10Z</time>
      </trkpt>
      <trkpt lat="47.52856" lon="6.76817">
        <ele>432</ele>
        <time>2020-09-23T17:14:13Z</time>
      </trkpt>
      <trkpt lat="47.52861" lon="6.76813">
        <ele>431</ele>
        <time>2020-09-23T17:14:16Z</time>
      </trkpt>
      <trkpt lat="47.52865" lon="6.76808">
        <ele>431</ele>
        <time>2020-09-23T17:14:20Z</time>
      </trkpt>
      <trkpt lat="47.52867" lon="6.76799">
        <ele>431</ele>
        <time>2020-09-23T17:14:23Z</time>
      </trkpt>
      <trkpt lat="47.52869" lon="6.76791">
        <ele>432</ele>
        <time>2020-09-23T17:14:26Z</time>
      </trkpt>
      <trkpt lat="47.52871" lon="6.76783">
        <ele>433</ele>
        <time>2020-09-23T17:14:29Z</time>
      </trkpt>
      <trkpt lat="47.52873" lon="6.76774">
        <ele>435</ele>
        <time>2020-09-23T17:14:32Z</time>
      </trkpt>
      <trkpt lat="47.52875" lon="6.76766">
        <ele>433</ele>
        <time>2020-09-23T17:14:36Z</time>
      </trkpt>
      <trkpt lat="47.52878" lon="6.76759">
        <ele>433</ele>
        <time>2020-09-23T17:14:38Z</time>
      </trkpt>
      <trkpt lat="47.5288" lon="6.7675">
        <ele>433</ele>
        <time>2020-09-23T17:14:40Z</time>
      </trkpt>
      <trkpt lat="47.52882" lon="6.76742">
        <ele>433</ele>
        <time>2020-09-23T17:14:42Z</time>
      </trkpt>
      <trkpt lat="47.52885" lon="6.76736">
        <ele>432</ele>
        <time>2020-09-23T17:14:44Z</time>
      </trkpt>
      <trkpt lat="47.5289" lon="6.76729">
        <ele>430</ele>
        <time>2020-09-23T17:14:47Z</time>
      </trkpt>
      <trkpt lat="47.52894" lon="6.76721">
        <ele>430</ele>
        <time>2020-09-23T17:14:50Z</time>
      </trkpt>
      <trkpt lat="47.52897" lon="6.76714">
        <ele>431</ele>
        <time>2020-09-23T17:14:52Z</time>
      </trkpt>
      <trkpt lat="47.52899" lon="6.76708">
        <ele>430</ele>
        <time>2020-09-23T17:14:55Z</time>
      </trkpt>
      <trkpt lat="47.52903" lon="6.76701">
        <ele>429</ele>
        <time>2020-09-23T17:14:58Z</time>
      </trkpt>
      <trkpt lat="47.52907" lon="6.76695">
        <ele>429</ele>
        <time>2020-09-23T17:15:00Z</time>
      </trkpt>
      <trkpt lat="47.5291" lon="6.76689">
        <ele>429</ele>
        <time>2020-09-23T17:15:02Z</time>
      </trkpt>
      <trkpt lat="47.52912" lon="6.76679">
        <ele>428</ele>
        <time>2020-09-23T17:15:05Z</time>
      </trkpt>
      <trkpt lat="47.52914" lon="6.7667">
        <ele>428</ele>
        <time>2020-09-23T17:15:07Z</time>
      </trkpt>
      <trkpt lat="47.52916" lon="6.76662">
        <ele>428</ele>
        <time>2020-09-23T17:15:09Z</time>
      </trkpt>
      <trkpt lat="47.52916" lon="6.76655">
        <ele>428</ele>
        <time>2020-09-23T17:15:11Z</time>
      </trkpt>
      <trkpt lat="47.52916" lon="6.76648">
        <ele>428</ele>
        <time>2020-09-23T17:15:13Z</time>
      </trkpt>
      <trkpt lat="47.52918" lon="6.76641">
        <ele>427</ele>
        <time>2020-09-23T17:15:15Z</time>
      </trkpt>
      <trkpt lat="47.52918" lon="6.76633">
        <ele>426</ele>
        <time>2020-09-23T17:15:17Z</time>
      </trkpt>
      <trkpt lat="47.52918" lon="6.76626">
        <ele>425</ele>
        <time>2020-09-23T17:15:19Z</time>
      </trkpt>
      <trkpt lat="47.52919" lon="6.76618">
        <ele>423</ele>
        <time>2020-09-23T17:15:21Z</time>
      </trkpt>
      <trkpt lat="47.52918" lon="6.76607">
        <ele>421</ele>
        <time>2020-09-23T17:15:24Z</time>
      </trkpt>
      <trkpt lat="47.52917" lon="6.76596">
        <ele>419</ele>
        <time>2020-09-23T17:15:26Z</time>
      </trkpt>
      <trkpt lat="47.52919" lon="6.76589">
        <ele>419</ele>
        <time>2020-09-23T17:15:28Z</time>
      </trkpt>
      <trkpt lat="47.52921" lon="6.76583">
        <ele>420</ele>
        <time>2020-09-23T17:15:31Z</time>
      </trkpt>
      <trkpt lat="47.52921" lon="6.76575">
        <ele>420</ele>
        <time>2020-09-23T17:15:39Z</time>
      </trkpt>
      <trkpt lat="47.52924" lon="6.7657">
        <ele>420</ele>
        <time>2020-09-23T17:15:43Z</time>
      </trkpt>
      <trkpt lat="47.52924" lon="6.76556">
        <ele>419</ele>
        <time>2020-09-23T17:15:45Z</time>
      </trkpt>
      <trkpt lat="47.52926" lon="6.7655">
        <ele>419</ele>
        <time>2020-09-23T17:15:47Z</time>
      </trkpt>
      <trkpt lat="47.5293" lon="6.76545">
        <ele>420</ele>
        <time>2020-09-23T17:15:49Z</time>
      </trkpt>
      <trkpt lat="47.52931" lon="6.76537">
        <ele>420</ele>
        <time>2020-09-23T17:15:51Z</time>
      </trkpt>
      <trkpt lat="47.5293" lon="6.76527">
        <ele>422</ele>
        <time>2020-09-23T17:15:54Z</time>
      </trkpt>
      <trkpt lat="47.52928" lon="6.76518">
        <ele>422</ele>
        <time>2020-09-23T17:15:56Z</time>
      </trkpt>
      <trkpt lat="47.52924" lon="6.76508">
        <ele>421</ele>
        <time>2020-09-23T17:15:58Z</time>
      </trkpt>
      <trkpt lat="47.52919" lon="6.76499">
        <ele>419</ele>
        <time>2020-09-23T17:16:00Z</time>
      </trkpt>
      <trkpt lat="47.52915" lon="6.7649">
        <ele>418</ele>
        <time>2020-09-23T17:16:02Z</time>
      </trkpt>
      <trkpt lat="47.52912" lon="6.76478">
        <ele>416</ele>
        <time>2020-09-23T17:16:05Z</time>
      </trkpt>
      <trkpt lat="47.52909" lon="6.7647">
        <ele>414</ele>
        <time>2020-09-23T17:16:07Z</time>
      </trkpt>
      <trkpt lat="47.52906" lon="6.76463">
        <ele>414</ele>
        <time>2020-09-23T17:16:09Z</time>
      </trkpt>
      <trkpt lat="47.52903" lon="6.76456">
        <ele>413</ele>
        <time>2020-09-23T17:16:11Z</time>
      </trkpt>
      <trkpt lat="47.529" lon="6.76449">
        <ele>411</ele>
        <time>2020-09-23T17:16:13Z</time>
      </trkpt>
      <trkpt lat="47.52898" lon="6.7644">
        <ele>408</ele>
        <time>2020-09-23T17:16:16Z</time>
      </trkpt>
      <trkpt lat="47.52897" lon="6.76431">
        <ele>409</ele>
        <time>2020-09-23T17:16:19Z</time>
      </trkpt>
      <trkpt lat="47.52895" lon="6.76423">
        <ele>408</ele>
        <time>2020-09-23T17:16:21Z</time>
      </trkpt>
      <trkpt lat="47.52892" lon="6.76415">
        <ele>407</ele>
        <time>2020-09-23T17:16:24Z</time>
      </trkpt>
      <trkpt lat="47.52889" lon="6.76409">
        <ele>408</ele>
        <time>2020-09-23T17:16:26Z</time>
      </trkpt>
      <trkpt lat="47.52887" lon="6.76403">
        <ele>407</ele>
        <time>2020-09-23T17:16:28Z</time>
      </trkpt>
      <trkpt lat="47.52885" lon="6.76395">
        <ele>405</ele>
        <time>2020-09-23T17:16:31Z</time>
      </trkpt>
      <trkpt lat="47.52882" lon="6.76387">
        <ele>405</ele>
        <time>2020-09-23T17:16:33Z</time>
      </trkpt>
      <trkpt lat="47.52881" lon="6.7638">
        <ele>404</ele>
        <time>2020-09-23T17:16:35Z</time>
      </trkpt>
      <trkpt lat="47.52878" lon="6.76373">
        <ele>403</ele>
        <time>2020-09-23T17:16:37Z</time>
      </trkpt>
      <trkpt lat="47.52876" lon="6.76363">
        <ele>404</ele>
        <time>2020-09-23T17:16:40Z</time>
      </trkpt>
      <trkpt lat="47.52874" lon="6.76356">
        <ele>404</ele>
        <time>2020-09-23T17:16:42Z</time>
      </trkpt>
      <trkpt lat="47.52871" lon="6.76349">
        <ele>405</ele>
        <time>2020-09-23T17:16:44Z</time>
      </trkpt>
      <trkpt lat="47.52869" lon="6.7634">
        <ele>406</ele>
        <time>2020-09-23T17:16:47Z</time>
      </trkpt>
      <trkpt lat="47.52866" lon="6.76333">
        <ele>405</ele>
        <time>2020-09-23T17:16:49Z</time>
      </trkpt>
      <trkpt lat="47.52864" lon="6.76326">
        <ele>405</ele>
        <time>2020-09-23T17:16:51Z</time>
      </trkpt>
      <trkpt lat="47.52861" lon="6.76318">
        <ele>405</ele>
        <time>2020-09-23T17:16:54Z</time>
      </trkpt>
      <trkpt lat="47.52859" lon="6.76308">
        <ele>404</ele>
        <time>2020-09-23T17:16:57Z</time>
      </trkpt>
      <trkpt lat="47.52857" lon="6.76302">
        <ele>403</ele>
        <time>2020-09-23T17:16:59Z</time>
      </trkpt>
      <trkpt lat="47.52854" lon="6.76296">
        <ele>402</ele>
        <time>2020-09-23T17:17:01Z</time>
      </trkpt>
      <trkpt lat="47.52852" lon="6.76288">
        <ele>401</ele>
        <time>2020-09-23T17:17:04Z</time>
      </trkpt>
      <trkpt lat="47.52848" lon="6.76279">
        <ele>402</ele>
        <time>2020-09-23T17:17:07Z</time>
      </trkpt>
      <trkpt lat="47.52846" lon="6.76273">
        <ele>402</ele>
        <time>2020-09-23T17:17:12Z</time>
      </trkpt>
      <trkpt lat="47.52845" lon="6.76274">
        <ele>403</ele>
        <time>2020-09-23T17:17:16Z</time>
      </trkpt>
      <trkpt lat="47.52845" lon="6.76274">
        <ele>403</ele>
        <time>2020-09-23T17:17:16Z</time>
      </trkpt>
      <trkpt lat="47.52843" lon="6.76262">
        <ele>402</ele>
        <time>2020-09-23T17:17:26Z</time>
      </trkpt>
      <trkpt lat="47.52842" lon="6.76254">
        <ele>403</ele>
        <time>2020-09-23T17:17:29Z</time>
      </trkpt>
      <trkpt lat="47.5284" lon="6.76248">
        <ele>403</ele>
        <time>2020-09-23T17:17:31Z</time>
      </trkpt>
      <trkpt lat="47.52838" lon="6.76242">
        <ele>403</ele>
        <time>2020-09-23T17:17:33Z</time>
      </trkpt>
      <trkpt lat="47.52836" lon="6.76233">
        <ele>402</ele>
        <time>2020-09-23T17:17:36Z</time>
      </trkpt>
      <trkpt lat="47.52834" lon="6.76226">
        <ele>403</ele>
        <time>2020-09-23T17:17:38Z</time>
      </trkpt>
      <trkpt lat="47.52833" lon="6.76218">
        <ele>404</ele>
        <time>2020-09-23T17:17:41Z</time>
      </trkpt>
      <trkpt lat="47.52831" lon="6.76208">
        <ele>404</ele>
        <time>2020-09-23T17:17:44Z</time>
      </trkpt>
      <trkpt lat="47.52829" lon="6.76202">
        <ele>403</ele>
        <time>2020-09-23T17:17:46Z</time>
      </trkpt>
      <trkpt lat="47.52827" lon="6.76196">
        <ele>403</ele>
        <time>2020-09-23T17:17:48Z</time>
      </trkpt>
      <trkpt lat="47.52824" lon="6.7619">
        <ele>403</ele>
        <time>2020-09-23T17:17:50Z</time>
      </trkpt>
      <trkpt lat="47.52822" lon="6.76183">
        <ele>403</ele>
        <time>2020-09-23T17:17:52Z</time>
      </trkpt>
      <trkpt lat="47.5282" lon="6.76175">
        <ele>403</ele>
        <time>2020-09-23T17:17:54Z</time>
      </trkpt>
      <trkpt lat="47.52817" lon="6.76168">
        <ele>403</ele>
        <time>2020-09-23T17:17:56Z</time>
      </trkpt>
      <trkpt lat="47.52815" lon="6.7616">
        <ele>402</ele>
        <time>2020-09-23T17:17:59Z</time>
      </trkpt>
      <trkpt lat="47.52813" lon="6.76154">
        <ele>401</ele>
        <time>2020-09-23T17:18:01Z</time>
      </trkpt>
      <trkpt lat="47.5281" lon="6.76147">
        <ele>401</ele>
        <time>2020-09-23T17:18:03Z</time>
      </trkpt>
      <trkpt lat="47.52808" lon="6.7614">
        <ele>401</ele>
        <time>2020-09-23T17:18:05Z</time>
      </trkpt>
      <trkpt lat="47.52807" lon="6.76133">
        <ele>401</ele>
        <time>2020-09-23T17:18:07Z</time>
      </trkpt>
      <trkpt lat="47.52805" lon="6.76127">
        <ele>401</ele>
        <time>2020-09-23T17:18:09Z</time>
      </trkpt>
      <trkpt lat="47.52803" lon="6.76119">
        <ele>402</ele>
        <time>2020-09-23T17:18:11Z</time>
      </trkpt>
      <trkpt lat="47.52801" lon="6.7611">
        <ele>402</ele>
        <time>2020-09-23T17:18:13Z</time>
      </trkpt>
      <trkpt lat="47.52798" lon="6.76102">
        <ele>402</ele>
        <time>2020-09-23T17:18:15Z</time>
      </trkpt>
      <trkpt lat="47.52797" lon="6.76094">
        <ele>402</ele>
        <time>2020-09-23T17:18:17Z</time>
      </trkpt>
      <trkpt lat="47.52794" lon="6.76086">
        <ele>403</ele>
        <time>2020-09-23T17:18:19Z</time>
      </trkpt>
      <trkpt lat="47.52791" lon="6.76078">
        <ele>403</ele>
        <time>2020-09-23T17:18:21Z</time>
      </trkpt>
      <trkpt lat="47.52787" lon="6.76069">
        <ele>403</ele>
        <time>2020-09-23T17:18:24Z</time>
      </trkpt>
      <trkpt lat="47.52784" lon="6.76062">
        <ele>403</ele>
        <time>2020-09-23T17:18:26Z</time>
      </trkpt>
      <trkpt lat="47.52781" lon="6.76054">
        <ele>403</ele>
        <time>2020-09-23T17:18:29Z</time>
      </trkpt>
      <trkpt lat="47.52779" lon="6.76045">
        <ele>403</ele>
        <time>2020-09-23T17:18:32Z</time>
      </trkpt>
      <trkpt lat="47.52776" lon="6.76039">
        <ele>403</ele>
        <time>2020-09-23T17:18:34Z</time>
      </trkpt>
      <trkpt lat="47.52773" lon="6.76033">
        <ele>404</ele>
        <time>2020-09-23T17:18:38Z</time>
      </trkpt>
      <trkpt lat="47.5277" lon="6.76024">
        <ele>402</ele>
        <time>2020-09-23T17:18:41Z</time>
      </trkpt>
      <trkpt lat="47.52766" lon="6.76017">
        <ele>402</ele>
        <time>2020-09-23T17:18:44Z</time>
      </trkpt>
      <trkpt lat="47.52763" lon="6.76011">
        <ele>402</ele>
        <time>2020-09-23T17:18:46Z</time>
      </trkpt>
      <trkpt lat="47.5276" lon="6.76006">
        <ele>401</ele>
        <time>2020-09-23T17:18:48Z</time>
      </trkpt>
      <trkpt lat="47.52757" lon="6.75999">
        <ele>401</ele>
        <time>2020-09-23T17:18:50Z</time>
      </trkpt>
      <trkpt lat="47.52751" lon="6.75993">
        <ele>401</ele>
        <time>2020-09-23T17:18:53Z</time>
      </trkpt>
      <trkpt lat="47.52747" lon="6.75989">
        <ele>401</ele>
        <time>2020-09-23T17:18:55Z</time>
      </trkpt>
      <trkpt lat="47.52743" lon="6.75986">
        <ele>400</ele>
        <time>2020-09-23T17:18:57Z</time>
      </trkpt>
      <trkpt lat="47.52738" lon="6.75985">
        <ele>399</ele>
        <time>2020-09-23T17:19:00Z</time>
      </trkpt>
      <trkpt lat="47.52733" lon="6.75985">
        <ele>399</ele>
        <time>2020-09-23T17:19:02Z</time>
      </trkpt>
      <trkpt lat="47.52725" lon="6.75982">
        <ele>399</ele>
        <time>2020-09-23T17:19:05Z</time>
      </trkpt>
      <trkpt lat="47.5272" lon="6.75981">
        <ele>399</ele>
        <time>2020-09-23T17:19:07Z</time>
      </trkpt>
      <trkpt lat="47.52715" lon="6.75982">
        <ele>399</ele>
        <time>2020-09-23T17:19:09Z</time>
      </trkpt>
      <trkpt lat="47.5271" lon="6.75987">
        <ele>400</ele>
        <time>2020-09-23T17:19:11Z</time>
      </trkpt>
      <trkpt lat="47.52706" lon="6.7599">
        <ele>400</ele>
        <time>2020-09-23T17:19:13Z</time>
      </trkpt>
      <trkpt lat="47.52702" lon="6.75993">
        <ele>400</ele>
        <time>2020-09-23T17:19:15Z</time>
      </trkpt>
      <trkpt lat="47.52695" lon="6.75997">
        <ele>401</ele>
        <time>2020-09-23T17:19:18Z</time>
      </trkpt>
      <trkpt lat="47.52689" lon="6.76001">
        <ele>402</ele>
        <time>2020-09-23T17:19:21Z</time>
      </trkpt>
      <trkpt lat="47.52683" lon="6.76006">
        <ele>403</ele>
        <time>2020-09-23T17:19:24Z</time>
      </trkpt>
      <trkpt lat="47.52678" lon="6.7601">
        <ele>403</ele>
        <time>2020-09-23T17:19:27Z</time>
      </trkpt>
      <trkpt lat="47.52674" lon="6.76014">
        <ele>404</ele>
        <time>2020-09-23T17:19:30Z</time>
      </trkpt>
      <trkpt lat="47.52669" lon="6.76019">
        <ele>404</ele>
        <time>2020-09-23T17:19:33Z</time>
      </trkpt>
      <trkpt lat="47.52665" lon="6.76022">
        <ele>405</ele>
        <time>2020-09-23T17:19:36Z</time>
      </trkpt>
      <trkpt lat="47.52659" lon="6.76026">
        <ele>405</ele>
        <time>2020-09-23T17:19:39Z</time>
      </trkpt>
      <trkpt lat="47.52654" lon="6.7603">
        <ele>406</ele>
        <time>2020-09-23T17:19:42Z</time>
      </trkpt>
      <trkpt lat="47.52649" lon="6.76034">
        <ele>406</ele>
        <time>2020-09-23T17:19:45Z</time>
      </trkpt>
      <trkpt lat="47.52644" lon="6.76039">
        <ele>406</ele>
        <time>2020-09-23T17:19:48Z</time>
      </trkpt>
      <trkpt lat="47.52639" lon="6.76044">
        <ele>406</ele>
        <time>2020-09-23T17:19:51Z</time>
      </trkpt>
      <trkpt lat="47.52634" lon="6.7605">
        <ele>407</ele>
        <time>2020-09-23T17:19:54Z</time>
      </trkpt>
      <trkpt lat="47.52628" lon="6.76054">
        <ele>408</ele>
        <time>2020-09-23T17:19:57Z</time>
      </trkpt>
      <trkpt lat="47.52624" lon="6.76057">
        <ele>408</ele>
        <time>2020-09-23T17:19:59Z</time>
      </trkpt>
      <trkpt lat="47.52619" lon="6.7606">
        <ele>408</ele>
        <time>2020-09-23T17:20:01Z</time>
      </trkpt>
      <trkpt lat="47.52613" lon="6.76065">
        <ele>409</ele>
        <time>2020-09-23T17:20:04Z</time>
      </trkpt>
      <trkpt lat="47.52609" lon="6.76069">
        <ele>409</ele>
        <time>2020-09-23T17:20:07Z</time>
      </trkpt>
      <trkpt lat="47.52603" lon="6.76074">
        <ele>410</ele>
        <time>2020-09-23T17:20:10Z</time>
      </trkpt>
      <trkpt lat="47.52598" lon="6.76079">
        <ele>410</ele>
        <time>2020-09-23T17:20:13Z</time>
      </trkpt>
      <trkpt lat="47.52594" lon="6.76083">
        <ele>411</ele>
        <time>2020-09-23T17:20:16Z</time>
      </trkpt>
      <trkpt lat="47.52588" lon="6.76085">
        <ele>412</ele>
        <time>2020-09-23T17:20:19Z</time>
      </trkpt>
      <trkpt lat="47.52583" lon="6.7609">
        <ele>413</ele>
        <time>2020-09-23T17:20:26Z</time>
      </trkpt>
      <trkpt lat="47.52578" lon="6.76096">
        <ele>413</ele>
        <time>2020-09-23T17:20:29Z</time>
      </trkpt>
      <trkpt lat="47.52574" lon="6.761">
        <ele>413</ele>
        <time>2020-09-23T17:20:32Z</time>
      </trkpt>
      <trkpt lat="47.52569" lon="6.76104">
        <ele>414</ele>
        <time>2020-09-23T17:20:35Z</time>
      </trkpt>
      <trkpt lat="47.52565" lon="6.76108">
        <ele>414</ele>
        <time>2020-09-23T17:20:38Z</time>
      </trkpt>
      <trkpt lat="47.5256" lon="6.76112">
        <ele>416</ele>
        <time>2020-09-23T17:20:41Z</time>
      </trkpt>
      <trkpt lat="47.52556" lon="6.76117">
        <ele>417</ele>
        <time>2020-09-23T17:20:44Z</time>
      </trkpt>
      <trkpt lat="47.52551" lon="6.76123">
        <ele>418</ele>
        <time>2020-09-23T17:20:47Z</time>
      </trkpt>
      <trkpt lat="47.52548" lon="6.7613">
        <ele>419</ele>
        <time>2020-09-23T17:20:50Z</time>
      </trkpt>
      <trkpt lat="47.52545" lon="6.76137">
        <ele>420</ele>
        <time>2020-09-23T17:20:54Z</time>
      </trkpt>
      <trkpt lat="47.52541" lon="6.76142">
        <ele>421</ele>
        <time>2020-09-23T17:20:57Z</time>
      </trkpt>
      <trkpt lat="47.52536" lon="6.76147">
        <ele>421</ele>
        <time>2020-09-23T17:21:00Z</time>
      </trkpt>
      <trkpt lat="47.52534" lon="6.76155">
        <ele>422</ele>
        <time>2020-09-23T17:21:03Z</time>
      </trkpt>
      <trkpt lat="47.52531" lon="6.7616">
        <ele>422</ele>
        <time>2020-09-23T17:21:05Z</time>
      </trkpt>
      <trkpt lat="47.52526" lon="6.76165">
        <ele>422</ele>
        <time>2020-09-23T17:21:08Z</time>
      </trkpt>
      <trkpt lat="47.52523" lon="6.76171">
        <ele>422</ele>
        <time>2020-09-23T17:21:11Z</time>
      </trkpt>
      <trkpt lat="47.52519" lon="6.76177">
        <ele>422</ele>
        <time>2020-09-23T17:21:14Z</time>
      </trkpt>
      <trkpt lat="47.52516" lon="6.76184">
        <ele>423</ele>
        <time>2020-09-23T17:21:17Z</time>
      </trkpt>
      <trkpt lat="47.52512" lon="6.76191">
        <ele>423</ele>
        <time>2020-09-23T17:21:20Z</time>
      </trkpt>
      <trkpt lat="47.52507" lon="6.76197">
        <ele>424</ele>
        <time>2020-09-23T17:21:23Z</time>
      </trkpt>
      <trkpt lat="47.52504" lon="6.76203">
        <ele>425</ele>
        <time>2020-09-23T17:21:26Z</time>
      </trkpt>
      <trkpt lat="47.525" lon="6.76209">
        <ele>426</ele>
        <time>2020-09-23T17:21:29Z</time>
      </trkpt>
      <trkpt lat="47.52494" lon="6.76213">
        <ele>427</ele>
        <time>2020-09-23T17:21:32Z</time>
      </trkpt>
      <trkpt lat="47.52489" lon="6.76212">
        <ele>427</ele>
        <time>2020-09-23T17:21:34Z</time>
      </trkpt>
      <trkpt lat="47.52484" lon="6.76209">
        <ele>427</ele>
        <time>2020-09-23T17:21:36Z</time>
      </trkpt>
      <trkpt lat="47.5248" lon="6.76205">
        <ele>428</ele>
        <time>2020-09-23T17:21:38Z</time>
      </trkpt>
      <trkpt lat="47.52475" lon="6.76199">
        <ele>431</ele>
        <time>2020-09-23T17:21:41Z</time>
      </trkpt>
      <trkpt lat="47.52472" lon="6.76193">
        <ele>430</ele>
        <time>2020-09-23T17:21:44Z</time>
      </trkpt>
      <trkpt lat="47.52466" lon="6.7619">
        <ele>430</ele>
        <time>2020-09-23T17:21:47Z</time>
      </trkpt>
      <trkpt lat="47.52461" lon="6.76191">
        <ele>429</ele>
        <time>2020-09-23T17:21:50Z</time>
      </trkpt>
      <trkpt lat="47.52456" lon="6.76196">
        <ele>430</ele>
        <time>2020-09-23T17:21:53Z</time>
      </trkpt>
      <trkpt lat="47.52449" lon="6.76198">
        <ele>431</ele>
        <time>2020-09-23T17:21:57Z</time>
      </trkpt>
      <trkpt lat="47.52445" lon="6.76204">
        <ele>432</ele>
        <time>2020-09-23T17:22:02Z</time>
      </trkpt>
      <trkpt lat="47.52442" lon="6.7621">
        <ele>434</ele>
        <time>2020-09-23T17:22:05Z</time>
      </trkpt>
      <trkpt lat="47.52436" lon="6.76213">
        <ele>435</ele>
        <time>2020-09-23T17:22:08Z</time>
      </trkpt>
      <trkpt lat="47.52432" lon="6.76216">
        <ele>435</ele>
        <time>2020-09-23T17:22:10Z</time>
      </trkpt>
      <trkpt lat="47.52427" lon="6.76222">
        <ele>436</ele>
        <time>2020-09-23T17:22:13Z</time>
      </trkpt>
      <trkpt lat="47.52422" lon="6.76226">
        <ele>437</ele>
        <time>2020-09-23T17:22:16Z</time>
      </trkpt>
      <trkpt lat="47.52418" lon="6.7623">
        <ele>438</ele>
        <time>2020-09-23T17:22:19Z</time>
      </trkpt>
      <trkpt lat="47.52414" lon="6.76236">
        <ele>438</ele>
        <time>2020-09-23T17:22:22Z</time>
      </trkpt>
      <trkpt lat="47.52409" lon="6.76241">
        <ele>439</ele>
        <time>2020-09-23T17:22:25Z</time>
      </trkpt>
      <trkpt lat="47.52403" lon="6.76245">
        <ele>441</ele>
        <time>2020-09-23T17:22:28Z</time>
      </trkpt>
      <trkpt lat="47.52399" lon="6.76252">
        <ele>442</ele>
        <time>2020-09-23T17:22:31Z</time>
      </trkpt>
      <trkpt lat="47.52395" lon="6.76258">
        <ele>442</ele>
        <time>2020-09-23T17:22:34Z</time>
      </trkpt>
      <trkpt lat="47.5239" lon="6.76264">
        <ele>442</ele>
        <time>2020-09-23T17:22:37Z</time>
      </trkpt>
      <trkpt lat="47.52386" lon="6.7627">
        <ele>442</ele>
        <time>2020-09-23T17:22:40Z</time>
      </trkpt>
      <trkpt lat="47.52383" lon="6.76276">
        <ele>442</ele>
        <time>2020-09-23T17:22:42Z</time>
      </trkpt>
      <trkpt lat="47.5238" lon="6.76283">
        <ele>443</ele>
        <time>2020-09-23T17:22:45Z</time>
      </trkpt>
      <trkpt lat="47.52377" lon="6.76289">
        <ele>444</ele>
        <time>2020-09-23T17:22:47Z</time>
      </trkpt>
      <trkpt lat="47.52375" lon="6.76295">
        <ele>444</ele>
        <time>2020-09-23T17:22:49Z</time>
      </trkpt>
      <trkpt lat="47.52372" lon="6.76301">
        <ele>444</ele>
        <time>2020-09-23T17:22:51Z</time>
      </trkpt>
      <trkpt lat="47.52368" lon="6.76309">
        <ele>445</ele>
        <time>2020-09-23T17:22:54Z</time>
      </trkpt>
      <trkpt lat="47.52366" lon="6.76316">
        <ele>444</ele>
        <time>2020-09-23T17:22:56Z</time>
      </trkpt>
      <trkpt lat="47.52364" lon="6.76322">
        <ele>445</ele>
        <time>2020-09-23T17:22:58Z</time>
      </trkpt>
      <trkpt lat="47.52363" lon="6.76329">
        <ele>445</ele>
        <time>2020-09-23T17:23:00Z</time>
      </trkpt>
      <trkpt lat="47.52361" lon="6.76336">
        <ele>445</ele>
        <time>2020-09-23T17:23:02Z</time>
      </trkpt>
      <trkpt lat="47.52359" lon="6.76345">
        <ele>446</ele>
        <time>2020-09-23T17:23:05Z</time>
      </trkpt>
      <trkpt lat="47.52358" lon="6.76352">
        <ele>446</ele>
        <time>2020-09-23T17:23:07Z</time>
      </trkpt>
      <trkpt lat="47.52356" lon="6.76359">
        <ele>447</ele>
        <time>2020-09-23T17:23:09Z</time>
      </trkpt>
      <trkpt lat="47.52354" lon="6.76365">
        <ele>447</ele>
        <time>2020-09-23T17:23:11Z</time>
      </trkpt>
      <trkpt lat="47.52353" lon="6.76372">
        <ele>449</ele>
        <time>2020-09-23T17:23:13Z</time>
      </trkpt>
      <trkpt lat="47.52351" lon="6.76378">
        <ele>449</ele>
        <time>2020-09-23T17:23:15Z</time>
      </trkpt>
      <trkpt lat="47.52348" lon="6.76387">
        <ele>450</ele>
        <time>2020-09-23T17:23:18Z</time>
      </trkpt>
      <trkpt lat="47.52347" lon="6.76396">
        <ele>449</ele>
        <time>2020-09-23T17:23:21Z</time>
      </trkpt>
      <trkpt lat="47.52346" lon="6.76405">
        <ele>448</ele>
        <time>2020-09-23T17:23:24Z</time>
      </trkpt>
      <trkpt lat="47.52345" lon="6.76412">
        <ele>448</ele>
        <time>2020-09-23T17:23:26Z</time>
      </trkpt>
      <trkpt lat="47.52345" lon="6.76419">
        <ele>448</ele>
        <time>2020-09-23T17:23:28Z</time>
      </trkpt>
      <trkpt lat="47.52346" lon="6.76426">
        <ele>448</ele>
        <time>2020-09-23T17:23:30Z</time>
      </trkpt>
      <trkpt lat="47.52345" lon="6.76433">
        <ele>449</ele>
        <time>2020-09-23T17:23:32Z</time>
      </trkpt>
      <trkpt lat="47.52345" lon="6.76443">
        <ele>449</ele>
        <time>2020-09-23T17:23:35Z</time>
      </trkpt>
      <trkpt lat="47.52345" lon="6.76451">
        <ele>449</ele>
        <time>2020-09-23T17:23:37Z</time>
      </trkpt>
      <trkpt lat="47.52345" lon="6.76458">
        <ele>449</ele>
        <time>2020-09-23T17:23:39Z</time>
      </trkpt>
      <trkpt lat="47.52344" lon="6.76467">
        <ele>449</ele>
        <time>2020-09-23T17:23:42Z</time>
      </trkpt>
      <trkpt lat="47.52343" lon="6.76474">
        <ele>450</ele>
        <time>2020-09-23T17:23:44Z</time>
      </trkpt>
      <trkpt lat="47.52344" lon="6.76482">
        <ele>450</ele>
        <time>2020-09-23T17:23:46Z</time>
      </trkpt>
      <trkpt lat="47.52343" lon="6.76491">
        <ele>450</ele>
        <time>2020-09-23T17:23:49Z</time>
      </trkpt>
      <trkpt lat="47.52342" lon="6.76501">
        <ele>450</ele>
        <time>2020-09-23T17:23:52Z</time>
      </trkpt>
      <trkpt lat="47.52343" lon="6.76508">
        <ele>450</ele>
        <time>2020-09-23T17:23:54Z</time>
      </trkpt>
      <trkpt lat="47.52342" lon="6.76515">
        <ele>450</ele>
        <time>2020-09-23T17:23:56Z</time>
      </trkpt>
      <trkpt lat="47.52342" lon="6.76521">
        <ele>450</ele>
        <time>2020-09-23T17:23:59Z</time>
      </trkpt>
      <trkpt lat="47.52342" lon="6.76531">
        <ele>450</ele>
        <time>2020-09-23T17:24:02Z</time>
      </trkpt>
      <trkpt lat="47.52342" lon="6.76538">
        <ele>451</ele>
        <time>2020-09-23T17:24:04Z</time>
      </trkpt>
      <trkpt lat="47.52341" lon="6.76545">
        <ele>452</ele>
        <time>2020-09-23T17:24:06Z</time>
      </trkpt>
      <trkpt lat="47.52338" lon="6.76553">
        <ele>452</ele>
        <time>2020-09-23T17:24:09Z</time>
      </trkpt>
      <trkpt lat="47.52335" lon="6.76562">
        <ele>452</ele>
        <time>2020-09-23T17:24:12Z</time>
      </trkpt>
      <trkpt lat="47.52333" lon="6.76567">
        <ele>451</ele>
        <time>2020-09-23T17:24:14Z</time>
      </trkpt>
      <trkpt lat="47.52327" lon="6.76569">
        <ele>452</ele>
        <time>2020-09-23T17:24:19Z</time>
      </trkpt>
      <trkpt lat="47.52325" lon="6.76569">
        <ele>453</ele>
        <time>2020-09-23T17:24:23Z</time>
      </trkpt>
      <trkpt lat="47.52325" lon="6.76569">
        <ele>453</ele>
        <time>2020-09-23T17:24:23Z</time>
      </trkpt>
      <trkpt lat="47.52318" lon="6.76569">
        <ele>455</ele>
        <time>2020-09-23T17:24:30Z</time>
      </trkpt>
      <trkpt lat="47.52313" lon="6.76565">
        <ele>455</ele>
        <time>2020-09-23T17:24:34Z</time>
      </trkpt>
      <trkpt lat="47.52308" lon="6.76563">
        <ele>455</ele>
        <time>2020-09-23T17:24:36Z</time>
      </trkpt>
      <trkpt lat="47.52304" lon="6.76561">
        <ele>455</ele>
        <time>2020-09-23T17:24:38Z</time>
      </trkpt>
      <trkpt lat="47.52297" lon="6.76558">
        <ele>454</ele>
        <time>2020-09-23T17:24:41Z</time>
      </trkpt>
      <trkpt lat="47.52292" lon="6.76557">
        <ele>454</ele>
        <time>2020-09-23T17:24:46Z</time>
      </trkpt>
      <trkpt lat="47.52286" lon="6.76554">
        <ele>453</ele>
        <time>2020-09-23T17:24:49Z</time>
      </trkpt>
      <trkpt lat="47.5228" lon="6.76552">
        <ele>452</ele>
        <time>2020-09-23T17:24:52Z</time>
      </trkpt>
      <trkpt lat="47.52276" lon="6.76549">
        <ele>452</ele>
        <time>2020-09-23T17:24:54Z</time>
      </trkpt>
      <trkpt lat="47.5227" lon="6.76546">
        <ele>451</ele>
        <time>2020-09-23T17:24:58Z</time>
      </trkpt>
      <trkpt lat="47.52263" lon="6.76543">
        <ele>450</ele>
        <time>2020-09-23T17:25:01Z</time>
      </trkpt>
      <trkpt lat="47.52258" lon="6.7654">
        <ele>450</ele>
        <time>2020-09-23T17:25:03Z</time>
      </trkpt>
      <trkpt lat="47.52254" lon="6.76537">
        <ele>449</ele>
        <time>2020-09-23T17:25:05Z</time>
      </trkpt>
      <trkpt lat="47.52248" lon="6.76535">
        <ele>447</ele>
        <time>2020-09-23T17:25:08Z</time>
      </trkpt>
      <trkpt lat="47.52241" lon="6.76532">
        <ele>447</ele>
        <time>2020-09-23T17:25:11Z</time>
      </trkpt>
      <trkpt lat="47.52235" lon="6.76529">
        <ele>446</ele>
        <time>2020-09-23T17:25:14Z</time>
      </trkpt>
      <trkpt lat="47.5223" lon="6.76527">
        <ele>446</ele>
        <time>2020-09-23T17:25:16Z</time>
      </trkpt>
      <trkpt lat="47.52225" lon="6.76526">
        <ele>445</ele>
        <time>2020-09-23T17:25:18Z</time>
      </trkpt>
      <trkpt lat="47.52221" lon="6.76523">
        <ele>445</ele>
        <time>2020-09-23T17:25:20Z</time>
      </trkpt>
      <trkpt lat="47.52215" lon="6.76521">
        <ele>446</ele>
        <time>2020-09-23T17:25:22Z</time>
      </trkpt>
      <trkpt lat="47.52211" lon="6.76519">
        <ele>445</ele>
        <time>2020-09-23T17:25:24Z</time>
      </trkpt>
      <trkpt lat="47.52206" lon="6.76515">
        <ele>445</ele>
        <time>2020-09-23T17:25:26Z</time>
      </trkpt>
      <trkpt lat="47.52202" lon="6.76513">
        <ele>445</ele>
        <time>2020-09-23T17:25:28Z</time>
      </trkpt>
      <trkpt lat="47.52195" lon="6.76511">
        <ele>445</ele>
        <time>2020-09-23T17:25:31Z</time>
      </trkpt>
      <trkpt lat="47.5219" lon="6.76508">
        <ele>444</ele>
        <time>2020-09-23T17:25:33Z</time>
      </trkpt>
      <trkpt lat="47.52186" lon="6.76505">
        <ele>444</ele>
        <time>2020-09-23T17:25:35Z</time>
      </trkpt>
      <trkpt lat="47.52181" lon="6.76503">
        <ele>444</ele>
        <time>2020-09-23T17:25:37Z</time>
      </trkpt>
      <trkpt lat="47.52177" lon="6.765">
        <ele>443</ele>
        <time>2020-09-23T17:25:39Z</time>
      </trkpt>
      <trkpt lat="47.52172" lon="6.76497">
        <ele>442</ele>
        <time>2020-09-23T17:25:42Z</time>
      </trkpt>
      <trkpt lat="47.52165" lon="6.76494">
        <ele>442</ele>
        <time>2020-09-23T17:25:45Z</time>
      </trkpt>
      <trkpt lat="47.5216" lon="6.76491">
        <ele>443</ele>
        <time>2020-09-23T17:25:48Z</time>
      </trkpt>
      <trkpt lat="47.52155" lon="6.76489">
        <ele>442</ele>
        <time>2020-09-23T17:25:50Z</time>
      </trkpt>
      <trkpt lat="47.52148" lon="6.76486">
        <ele>442</ele>
        <time>2020-09-23T17:25:53Z</time>
      </trkpt>
      <trkpt lat="47.52144" lon="6.76483">
        <ele>442</ele>
        <time>2020-09-23T17:25:55Z</time>
      </trkpt>
      <trkpt lat="47.5214" lon="6.76481">
        <ele>442</ele>
        <time>2020-09-23T17:25:57Z</time>
      </trkpt>
      <trkpt lat="47.52133" lon="6.76478">
        <ele>441</ele>
        <time>2020-09-23T17:26:00Z</time>
      </trkpt>
      <trkpt lat="47.52128" lon="6.76476">
        <ele>442</ele>
        <time>2020-09-23T17:26:02Z</time>
      </trkpt>
      <trkpt lat="47.52123" lon="6.76473">
        <ele>442</ele>
        <time>2020-09-23T17:26:04Z</time>
      </trkpt>
      <trkpt lat="47.52119" lon="6.76471">
        <ele>442</ele>
        <time>2020-09-23T17:26:06Z</time>
      </trkpt>
      <trkpt lat="47.52112" lon="6.76468">
        <ele>441</ele>
        <time>2020-09-23T17:26:09Z</time>
      </trkpt>
      <trkpt lat="47.52108" lon="6.76464">
        <ele>440</ele>
        <time>2020-09-23T17:26:11Z</time>
      </trkpt>
      <trkpt lat="47.52102" lon="6.76461">
        <ele>439</ele>
        <time>2020-09-23T17:26:14Z</time>
      </trkpt>
      <trkpt lat="47.52096" lon="6.76458">
        <ele>438</ele>
        <time>2020-09-23T17:26:17Z</time>
      </trkpt>
      <trkpt lat="47.52089" lon="6.76455">
        <ele>437</ele>
        <time>2020-09-23T17:26:20Z</time>
      </trkpt>
      <trkpt lat="47.52085" lon="6.76451">
        <ele>436</ele>
        <time>2020-09-23T17:26:22Z</time>
      </trkpt>
      <trkpt lat="47.5208" lon="6.76449">
        <ele>435</ele>
        <time>2020-09-23T17:26:24Z</time>
      </trkpt>
      <trkpt lat="47.52076" lon="6.76447">
        <ele>434</ele>
        <time>2020-09-23T17:26:26Z</time>
      </trkpt>
      <trkpt lat="47.52071" lon="6.76444">
        <ele>433</ele>
        <time>2020-09-23T17:26:28Z</time>
      </trkpt>
      <trkpt lat="47.52066" lon="6.76442">
        <ele>434</ele>
        <time>2020-09-23T17:26:30Z</time>
      </trkpt>
      <trkpt lat="47.52061" lon="6.7644">
        <ele>433</ele>
        <time>2020-09-23T17:26:32Z</time>
      </trkpt>
      <trkpt lat="47.52056" lon="6.76437">
        <ele>433</ele>
        <time>2020-09-23T17:26:34Z</time>
      </trkpt>
      <trkpt lat="47.52051" lon="6.76435">
        <ele>433</ele>
        <time>2020-09-23T17:26:36Z</time>
      </trkpt>
      <trkpt lat="47.52047" lon="6.76433">
        <ele>433</ele>
        <time>2020-09-23T17:26:38Z</time>
      </trkpt>
      <trkpt lat="47.52042" lon="6.76431">
        <ele>433</ele>
        <time>2020-09-23T17:26:40Z</time>
      </trkpt>
      <trkpt lat="47.52036" lon="6.7643">
        <ele>433</ele>
        <time>2020-09-23T17:26:42Z</time>
      </trkpt>
      <trkpt lat="47.52032" lon="6.76427">
        <ele>434</ele>
        <time>2020-09-23T17:26:44Z</time>
      </trkpt>
      <trkpt lat="47.52028" lon="6.76424">
        <ele>434</ele>
        <time>2020-09-23T17:26:46Z</time>
      </trkpt>
      <trkpt lat="47.52023" lon="6.76422">
        <ele>435</ele>
        <time>2020-09-23T17:26:48Z</time>
      </trkpt>
      <trkpt lat="47.52017" lon="6.76419">
        <ele>436</ele>
        <time>2020-09-23T17:26:51Z</time>
      </trkpt>
      <trkpt lat="47.5201" lon="6.76415">
        <ele>436</ele>
        <time>2020-09-23T17:26:54Z</time>
      </trkpt>
      <trkpt lat="47.52005" lon="6.76413">
        <ele>435</ele>
        <time>2020-09-23T17:26:56Z</time>
      </trkpt>
      <trkpt lat="47.52001" lon="6.7641">
        <ele>435</ele>
        <time>2020-09-23T17:26:58Z</time>
      </trkpt>
      <trkpt lat="47.51996" lon="6.76407">
        <ele>435</ele>
        <time>2020-09-23T17:27:00Z</time>
      </trkpt>
      <trkpt lat="47.51991" lon="6.76406">
        <ele>434</ele>
        <time>2020-09-23T17:27:02Z</time>
      </trkpt>
      <trkpt lat="47.51986" lon="6.76404">
        <ele>435</ele>
        <time>2020-09-23T17:27:04Z</time>
      </trkpt>
      <trkpt lat="47.51982" lon="6.76402">
        <ele>434</ele>
        <time>2020-09-23T17:27:06Z</time>
      </trkpt>
      <trkpt lat="47.51977" lon="6.76399">
        <ele>433</ele>
        <time>2020-09-23T17:27:09Z</time>
      </trkpt>
      <trkpt lat="47.51973" lon="6.76395">
        <ele>433</ele>
        <time>2020-09-23T17:27:11Z</time>
      </trkpt>
      <trkpt lat="47.51968" lon="6.76391">
        <ele>432</ele>
        <time>2020-09-23T17:27:13Z</time>
      </trkpt>
      <trkpt lat="47.51964" lon="6.76387">
        <ele>432</ele>
        <time>2020-09-23T17:27:15Z</time>
      </trkpt>
      <trkpt lat="47.51959" lon="6.76386">
        <ele>430</ele>
        <time>2020-09-23T17:27:18Z</time>
      </trkpt>
      <trkpt lat="47.51955" lon="6.76394">
        <ele>429</ele>
        <time>2020-09-23T17:27:21Z</time>
      </trkpt>
      <trkpt lat="47.51952" lon="6.764">
        <ele>427</ele>
        <time>2020-09-23T17:27:23Z</time>
      </trkpt>
      <trkpt lat="47.51949" lon="6.76407">
        <ele>426</ele>
        <time>2020-09-23T17:27:25Z</time>
      </trkpt>
      <trkpt lat="47.51947" lon="6.76413">
        <ele>426</ele>
        <time>2020-09-23T17:27:27Z</time>
      </trkpt>
      <trkpt lat="47.51943" lon="6.76421">
        <ele>428</ele>
        <time>2020-09-23T17:27:30Z</time>
      </trkpt>
      <trkpt lat="47.51941" lon="6.76428">
        <ele>428</ele>
        <time>2020-09-23T17:27:32Z</time>
      </trkpt>
      <trkpt lat="47.51938" lon="6.76435">
        <ele>428</ele>
        <time>2020-09-23T17:27:34Z</time>
      </trkpt>
      <trkpt lat="47.51936" lon="6.76441">
        <ele>429</ele>
        <time>2020-09-23T17:27:36Z</time>
      </trkpt>
      <trkpt lat="47.51934" lon="6.76448">
        <ele>428</ele>
        <time>2020-09-23T17:27:38Z</time>
      </trkpt>
      <trkpt lat="47.51932" lon="6.76454">
        <ele>428</ele>
        <time>2020-09-23T17:27:40Z</time>
      </trkpt>
      <trkpt lat="47.5193" lon="6.7646">
        <ele>428</ele>
        <time>2020-09-23T17:27:42Z</time>
      </trkpt>
      <trkpt lat="47.51928" lon="6.76467">
        <ele>427</ele>
        <time>2020-09-23T17:27:44Z</time>
      </trkpt>
      <trkpt lat="47.51925" lon="6.76475">
        <ele>427</ele>
        <time>2020-09-23T17:27:46Z</time>
      </trkpt>
      <trkpt lat="47.51923" lon="6.76482">
        <ele>427</ele>
        <time>2020-09-23T17:27:48Z</time>
      </trkpt>
      <trkpt lat="47.5192" lon="6.76489">
        <ele>425</ele>
        <time>2020-09-23T17:27:50Z</time>
      </trkpt>
      <trkpt lat="47.51917" lon="6.76496">
        <ele>425</ele>
        <time>2020-09-23T17:27:52Z</time>
      </trkpt>
      <trkpt lat="47.51914" lon="6.76502">
        <ele>425</ele>
        <time>2020-09-23T17:27:54Z</time>
      </trkpt>
      <trkpt lat="47.51912" lon="6.76509">
        <ele>423</ele>
        <time>2020-09-23T17:27:56Z</time>
      </trkpt>
      <trkpt lat="47.51909" lon="6.76515">
        <ele>423</ele>
        <time>2020-09-23T17:27:58Z</time>
      </trkpt>
      <trkpt lat="47.51906" lon="6.76524">
        <ele>423</ele>
        <time>2020-09-23T17:28:01Z</time>
      </trkpt>
      <trkpt lat="47.51903" lon="6.7653">
        <ele>423</ele>
        <time>2020-09-23T17:28:03Z</time>
      </trkpt>
      <trkpt lat="47.51901" lon="6.76537">
        <ele>423</ele>
        <time>2020-09-23T17:28:05Z</time>
      </trkpt>
      <trkpt lat="47.51898" lon="6.76543">
        <ele>423</ele>
        <time>2020-09-23T17:28:07Z</time>
      </trkpt>
      <trkpt lat="47.51895" lon="6.7655">
        <ele>423</ele>
        <time>2020-09-23T17:28:09Z</time>
      </trkpt>
      <trkpt lat="47.51893" lon="6.76557">
        <ele>423</ele>
        <time>2020-09-23T17:28:11Z</time>
      </trkpt>
      <trkpt lat="47.51891" lon="6.76564">
        <ele>423</ele>
        <time>2020-09-23T17:28:13Z</time>
      </trkpt>
      <trkpt lat="47.51889" lon="6.7657">
        <ele>423</ele>
        <time>2020-09-23T17:28:15Z</time>
      </trkpt>
      <trkpt lat="47.51885" lon="6.76577">
        <ele>423</ele>
        <time>2020-09-23T17:28:17Z</time>
      </trkpt>
      <trkpt lat="47.51884" lon="6.76585">
        <ele>423</ele>
        <time>2020-09-23T17:28:19Z</time>
      </trkpt>
      <trkpt lat="47.51883" lon="6.76592">
        <ele>422</ele>
        <time>2020-09-23T17:28:21Z</time>
      </trkpt>
      <trkpt lat="47.51881" lon="6.76599">
        <ele>423</ele>
        <time>2020-09-23T17:28:23Z</time>
      </trkpt>
      <trkpt lat="47.5188" lon="6.76606">
        <ele>422</ele>
        <time>2020-09-23T17:28:25Z</time>
      </trkpt>
      <trkpt lat="47.51878" lon="6.76613">
        <ele>423</ele>
        <time>2020-09-23T17:28:27Z</time>
      </trkpt>
      <trkpt lat="47.51877" lon="6.76619">
        <ele>422</ele>
        <time>2020-09-23T17:28:29Z</time>
      </trkpt>
      <trkpt lat="47.51875" lon="6.76626">
        <ele>422</ele>
        <time>2020-09-23T17:28:31Z</time>
      </trkpt>
      <trkpt lat="47.51874" lon="6.76635">
        <ele>422</ele>
        <time>2020-09-23T17:28:34Z</time>
      </trkpt>
      <trkpt lat="47.51873" lon="6.76642">
        <ele>422</ele>
        <time>2020-09-23T17:28:36Z</time>
      </trkpt>
      <trkpt lat="47.51872" lon="6.76649">
        <ele>422</ele>
        <time>2020-09-23T17:28:38Z</time>
      </trkpt>
      <trkpt lat="47.51872" lon="6.76658">
        <ele>421</ele>
        <time>2020-09-23T17:28:41Z</time>
      </trkpt>
      <trkpt lat="47.51871" lon="6.76666">
        <ele>421</ele>
        <time>2020-09-23T17:28:43Z</time>
      </trkpt>
      <trkpt lat="47.5187" lon="6.76673">
        <ele>421</ele>
        <time>2020-09-23T17:28:45Z</time>
      </trkpt>
      <trkpt lat="47.51868" lon="6.76681">
        <ele>422</ele>
        <time>2020-09-23T17:28:47Z</time>
      </trkpt>
      <trkpt lat="47.51867" lon="6.76688">
        <ele>422</ele>
        <time>2020-09-23T17:28:49Z</time>
      </trkpt>
      <trkpt lat="47.51865" lon="6.76698">
        <ele>422</ele>
        <time>2020-09-23T17:28:52Z</time>
      </trkpt>
      <trkpt lat="47.51863" lon="6.76707">
        <ele>423</ele>
        <time>2020-09-23T17:28:55Z</time>
      </trkpt>
      <trkpt lat="47.51862" lon="6.76714">
        <ele>423</ele>
        <time>2020-09-23T17:28:57Z</time>
      </trkpt>
      <trkpt lat="47.5186" lon="6.76721">
        <ele>422</ele>
        <time>2020-09-23T17:28:59Z</time>
      </trkpt>
      <trkpt lat="47.51859" lon="6.76729">
        <ele>421</ele>
        <time>2020-09-23T17:29:01Z</time>
      </trkpt>
      <trkpt lat="47.51859" lon="6.76739">
        <ele>420</ele>
        <time>2020-09-23T17:29:04Z</time>
      </trkpt>
      <trkpt lat="47.51858" lon="6.76745">
        <ele>420</ele>
        <time>2020-09-23T17:29:06Z</time>
      </trkpt>
      <trkpt lat="47.51857" lon="6.76752">
        <ele>420</ele>
        <time>2020-09-23T17:29:08Z</time>
      </trkpt>
      <trkpt lat="47.51856" lon="6.76759">
        <ele>421</ele>
        <time>2020-09-23T17:29:10Z</time>
      </trkpt>
      <trkpt lat="47.51854" lon="6.76768">
        <ele>421</ele>
        <time>2020-09-23T17:29:13Z</time>
      </trkpt>
      <trkpt lat="47.51853" lon="6.76776">
        <ele>421</ele>
        <time>2020-09-23T17:29:15Z</time>
      </trkpt>
      <trkpt lat="47.51851" lon="6.76782">
        <ele>421</ele>
        <time>2020-09-23T17:29:17Z</time>
      </trkpt>
      <trkpt lat="47.5185" lon="6.7679">
        <ele>422</ele>
        <time>2020-09-23T17:29:19Z</time>
      </trkpt>
      <trkpt lat="47.5185" lon="6.768">
        <ele>421</ele>
        <time>2020-09-23T17:29:22Z</time>
      </trkpt>
      <trkpt lat="47.51848" lon="6.76806">
        <ele>421</ele>
        <time>2020-09-23T17:29:24Z</time>
      </trkpt>
      <trkpt lat="47.51846" lon="6.76816">
        <ele>419</ele>
        <time>2020-09-23T17:29:27Z</time>
      </trkpt>
      <trkpt lat="47.51845" lon="6.76822">
        <ele>419</ele>
        <time>2020-09-23T17:29:29Z</time>
      </trkpt>
      <trkpt lat="47.51843" lon="6.76832">
        <ele>419</ele>
        <time>2020-09-23T17:29:32Z</time>
      </trkpt>
      <trkpt lat="47.51842" lon="6.76839">
        <ele>418</ele>
        <time>2020-09-23T17:29:34Z</time>
      </trkpt>
      <trkpt lat="47.51841" lon="6.76846">
        <ele>417</ele>
        <time>2020-09-23T17:29:36Z</time>
      </trkpt>
      <trkpt lat="47.5184" lon="6.76853">
        <ele>417</ele>
        <time>2020-09-23T17:29:38Z</time>
      </trkpt>
      <trkpt lat="47.51839" lon="6.7686">
        <ele>418</ele>
        <time>2020-09-23T17:29:40Z</time>
      </trkpt>
      <trkpt lat="47.51838" lon="6.76867">
        <ele>418</ele>
        <time>2020-09-23T17:29:42Z</time>
      </trkpt>
      <trkpt lat="47.51836" lon="6.76874">
        <ele>417</ele>
        <time>2020-09-23T17:29:44Z</time>
      </trkpt>
      <trkpt lat="47.51835" lon="6.76881">
        <ele>417</ele>
        <time>2020-09-23T17:29:46Z</time>
      </trkpt>
      <trkpt lat="47.51833" lon="6.76887">
        <ele>417</ele>
        <time>2020-09-23T17:29:48Z</time>
      </trkpt>
      <trkpt lat="47.51831" lon="6.76894">
        <ele>417</ele>
        <time>2020-09-23T17:29:50Z</time>
      </trkpt>
      <trkpt lat="47.5183" lon="6.76901">
        <ele>417</ele>
        <time>2020-09-23T17:29:52Z</time>
      </trkpt>
      <trkpt lat="47.51829" lon="6.76908">
        <ele>417</ele>
        <time>2020-09-23T17:29:54Z</time>
      </trkpt>
      <trkpt lat="47.51828" lon="6.76916">
        <ele>417</ele>
        <time>2020-09-23T17:29:56Z</time>
      </trkpt>
      <trkpt lat="47.51827" lon="6.76923">
        <ele>418</ele>
        <time>2020-09-23T17:29:58Z</time>
      </trkpt>
      <trkpt lat="47.51826" lon="6.7693">
        <ele>418</ele>
        <time>2020-09-23T17:30:00Z</time>
      </trkpt>
      <trkpt lat="47.51822" lon="6.76937">
        <ele>419</ele>
        <time>2020-09-23T17:30:03Z</time>
      </trkpt>
      <trkpt lat="47.51819" lon="6.76943">
        <ele>419</ele>
        <time>2020-09-23T17:30:05Z</time>
      </trkpt>
      <trkpt lat="47.51817" lon="6.7695">
        <ele>419</ele>
        <time>2020-09-23T17:30:07Z</time>
      </trkpt>
      <trkpt lat="47.51815" lon="6.76956">
        <ele>419</ele>
        <time>2020-09-23T17:30:09Z</time>
      </trkpt>
      <trkpt lat="47.51814" lon="6.76966">
        <ele>419</ele>
        <time>2020-09-23T17:30:12Z</time>
      </trkpt>
      <trkpt lat="47.51812" lon="6.76973">
        <ele>419</ele>
        <time>2020-09-23T17:30:14Z</time>
      </trkpt>
      <trkpt lat="47.51811" lon="6.7698">
        <ele>420</ele>
        <time>2020-09-23T17:30:16Z</time>
      </trkpt>
      <trkpt lat="47.5181" lon="6.76987">
        <ele>420</ele>
        <time>2020-09-23T17:30:18Z</time>
      </trkpt>
      <trkpt lat="47.51808" lon="6.76995">
        <ele>420</ele>
        <time>2020-09-23T17:30:20Z</time>
      </trkpt>
      <trkpt lat="47.51807" lon="6.77004">
        <ele>421</ele>
        <time>2020-09-23T17:30:23Z</time>
      </trkpt>
      <trkpt lat="47.51805" lon="6.77012">
        <ele>422</ele>
        <time>2020-09-23T17:30:26Z</time>
      </trkpt>
      <trkpt lat="47.51803" lon="6.77018">
        <ele>423</ele>
        <time>2020-09-23T17:30:28Z</time>
      </trkpt>
      <trkpt lat="47.51801" lon="6.77025">
        <ele>422</ele>
        <time>2020-09-23T17:30:30Z</time>
      </trkpt>
      <trkpt lat="47.51799" lon="6.77033">
        <ele>422</ele>
        <time>2020-09-23T17:30:33Z</time>
      </trkpt>
      <trkpt lat="47.51798" lon="6.77042">
        <ele>423</ele>
        <time>2020-09-23T17:30:36Z</time>
      </trkpt>
      <trkpt lat="47.51797" lon="6.7705">
        <ele>423</ele>
        <time>2020-09-23T17:30:39Z</time>
      </trkpt>
      <trkpt lat="47.51795" lon="6.77059">
        <ele>423</ele>
        <time>2020-09-23T17:30:42Z</time>
      </trkpt>
      <trkpt lat="47.51794" lon="6.77067">
        <ele>424</ele>
        <time>2020-09-23T17:30:44Z</time>
      </trkpt>
      <trkpt lat="47.51791" lon="6.77073">
        <ele>424</ele>
        <time>2020-09-23T17:30:46Z</time>
      </trkpt>
      <trkpt lat="47.51789" lon="6.77079">
        <ele>425</ele>
        <time>2020-09-23T17:30:48Z</time>
      </trkpt>
      <trkpt lat="47.51788" lon="6.7709">
        <ele>425</ele>
        <time>2020-09-23T17:30:51Z</time>
      </trkpt>
      <trkpt lat="47.51788" lon="6.77097">
        <ele>426</ele>
        <time>2020-09-23T17:30:53Z</time>
      </trkpt>
      <trkpt lat="47.51787" lon="6.77104">
        <ele>427</ele>
        <time>2020-09-23T17:30:55Z</time>
      </trkpt>
      <trkpt lat="47.51786" lon="6.77113">
        <ele>426</ele>
        <time>2020-09-23T17:30:58Z</time>
      </trkpt>
      <trkpt lat="47.51785" lon="6.7712">
        <ele>426</ele>
        <time>2020-09-23T17:31:00Z</time>
      </trkpt>
      <trkpt lat="47.51784" lon="6.77128">
        <ele>426</ele>
        <time>2020-09-23T17:31:03Z</time>
      </trkpt>
      <trkpt lat="47.51783" lon="6.77136">
        <ele>425</ele>
        <time>2020-09-23T17:31:06Z</time>
      </trkpt>
      <trkpt lat="47.51782" lon="6.77142">
        <ele>425</ele>
        <time>2020-09-23T17:31:08Z</time>
      </trkpt>
      <trkpt lat="47.51783" lon="6.77151">
        <ele>426</ele>
        <time>2020-09-23T17:31:11Z</time>
      </trkpt>
      <trkpt lat="47.51784" lon="6.77157">
        <ele>426</ele>
        <time>2020-09-23T17:31:13Z</time>
      </trkpt>
      <trkpt lat="47.51786" lon="6.77165">
        <ele>425</ele>
        <time>2020-09-23T17:31:15Z</time>
      </trkpt>
      <trkpt lat="47.51786" lon="6.77172">
        <ele>426</ele>
        <time>2020-09-23T17:31:17Z</time>
      </trkpt>
      <trkpt lat="47.51787" lon="6.77178">
        <ele>426</ele>
        <time>2020-09-23T17:31:19Z</time>
      </trkpt>
      <trkpt lat="47.51787" lon="6.77186">
        <ele>426</ele>
        <time>2020-09-23T17:31:22Z</time>
      </trkpt>
      <trkpt lat="47.51786" lon="6.77194">
        <ele>427</ele>
        <time>2020-09-23T17:31:25Z</time>
      </trkpt>
      <trkpt lat="47.51785" lon="6.77201">
        <ele>428</ele>
        <time>2020-09-23T17:31:28Z</time>
      </trkpt>
      <trkpt lat="47.51785" lon="6.77208">
        <ele>429</ele>
        <time>2020-09-23T17:31:30Z</time>
      </trkpt>
      <trkpt lat="47.51784" lon="6.77215">
        <ele>429</ele>
        <time>2020-09-23T17:31:32Z</time>
      </trkpt>
      <trkpt lat="47.51784" lon="6.77224">
        <ele>429</ele>
        <time>2020-09-23T17:31:35Z</time>
      </trkpt>
      <trkpt lat="47.51783" lon="6.77231">
        <ele>429</ele>
        <time>2020-09-23T17:31:37Z</time>
      </trkpt>
      <trkpt lat="47.51783" lon="6.77239">
        <ele>428</ele>
        <time>2020-09-23T17:31:39Z</time>
      </trkpt>
      <trkpt lat="47.51782" lon="6.77248">
        <ele>429</ele>
        <time>2020-09-23T17:31:42Z</time>
      </trkpt>
      <trkpt lat="47.5178" lon="6.77254">
        <ele>430</ele>
        <time>2020-09-23T17:31:44Z</time>
      </trkpt>
      <trkpt lat="47.51777" lon="6.77264">
        <ele>429</ele>
        <time>2020-09-23T17:31:47Z</time>
      </trkpt>
      <trkpt lat="47.51774" lon="6.77273">
        <ele>430</ele>
        <time>2020-09-23T17:31:50Z</time>
      </trkpt>
      <trkpt lat="47.51772" lon="6.77281">
        <ele>430</ele>
        <time>2020-09-23T17:31:53Z</time>
      </trkpt>
      <trkpt lat="47.5177" lon="6.77287">
        <ele>430</ele>
        <time>2020-09-23T17:31:55Z</time>
      </trkpt>
      <trkpt lat="47.51768" lon="6.77296">
        <ele>430</ele>
        <time>2020-09-23T17:31:58Z</time>
      </trkpt>
      <trkpt lat="47.51767" lon="6.77303">
        <ele>431</ele>
        <time>2020-09-23T17:32:00Z</time>
      </trkpt>
      <trkpt lat="47.51765" lon="6.7731">
        <ele>430</ele>
        <time>2020-09-23T17:32:02Z</time>
      </trkpt>
      <trkpt lat="47.51764" lon="6.77317">
        <ele>431</ele>
        <time>2020-09-23T17:32:04Z</time>
      </trkpt>
      <trkpt lat="47.51763" lon="6.77324">
        <ele>431</ele>
        <time>2020-09-23T17:32:06Z</time>
      </trkpt>
      <trkpt lat="47.51762" lon="6.77334">
        <ele>431</ele>
        <time>2020-09-23T17:32:09Z</time>
      </trkpt>
      <trkpt lat="47.51761" lon="6.7734">
        <ele>431</ele>
        <time>2020-09-23T17:32:11Z</time>
      </trkpt>
      <trkpt lat="47.51758" lon="6.77349">
        <ele>432</ele>
        <time>2020-09-23T17:32:14Z</time>
      </trkpt>
      <trkpt lat="47.51756" lon="6.77356">
        <ele>432</ele>
        <time>2020-09-23T17:32:16Z</time>
      </trkpt>
      <trkpt lat="47.51754" lon="6.77364">
        <ele>432</ele>
        <time>2020-09-23T17:32:18Z</time>
      </trkpt>
      <trkpt lat="47.51753" lon="6.77371">
        <ele>433</ele>
        <time>2020-09-23T17:32:20Z</time>
      </trkpt>
      <trkpt lat="47.51751" lon="6.77379">
        <ele>434</ele>
        <time>2020-09-23T17:32:22Z</time>
      </trkpt>
      <trkpt lat="47.51749" lon="6.77386">
        <ele>434</ele>
        <time>2020-09-23T17:32:24Z</time>
      </trkpt>
      <trkpt lat="47.51748" lon="6.77392">
        <ele>434</ele>
        <time>2020-09-23T17:32:26Z</time>
      </trkpt>
      <trkpt lat="47.51745" lon="6.77402">
        <ele>436</ele>
        <time>2020-09-23T17:32:29Z</time>
      </trkpt>
      <trkpt lat="47.51745" lon="6.77409">
        <ele>437</ele>
        <time>2020-09-23T17:32:31Z</time>
      </trkpt>
      <trkpt lat="47.51743" lon="6.77416">
        <ele>437</ele>
        <time>2020-09-23T17:32:33Z</time>
      </trkpt>
      <trkpt lat="47.51741" lon="6.77423">
        <ele>438</ele>
        <time>2020-09-23T17:32:35Z</time>
      </trkpt>
      <trkpt lat="47.51739" lon="6.77429">
        <ele>438</ele>
        <time>2020-09-23T17:32:37Z</time>
      </trkpt>
      <trkpt lat="47.51736" lon="6.77436">
        <ele>439</ele>
        <time>2020-09-23T17:32:39Z</time>
      </trkpt>
      <trkpt lat="47.51735" lon="6.77443">
        <ele>438</ele>
        <time>2020-09-23T17:32:41Z</time>
      </trkpt>
      <trkpt lat="47.51733" lon="6.77451">
        <ele>438</ele>
        <time>2020-09-23T17:32:43Z</time>
      </trkpt>
      <trkpt lat="47.51732" lon="6.77459">
        <ele>439</ele>
        <time>2020-09-23T17:32:45Z</time>
      </trkpt>
      <trkpt lat="47.51732" lon="6.77467">
        <ele>439</ele>
        <time>2020-09-23T17:32:47Z</time>
      </trkpt>
      <trkpt lat="47.51735" lon="6.77474">
        <ele>438</ele>
        <time>2020-09-23T17:32:49Z</time>
      </trkpt>
      <trkpt lat="47.5174" lon="6.77477">
        <ele>439</ele>
        <time>2020-09-23T17:32:51Z</time>
      </trkpt>
      <trkpt lat="47.51746" lon="6.7748">
        <ele>441</ele>
        <time>2020-09-23T17:32:54Z</time>
      </trkpt>
      <trkpt lat="47.51751" lon="6.77482">
        <ele>441</ele>
        <time>2020-09-23T17:32:56Z</time>
      </trkpt>
      <trkpt lat="47.51756" lon="6.77483">
        <ele>442</ele>
        <time>2020-09-23T17:32:58Z</time>
      </trkpt>
      <trkpt lat="47.51761" lon="6.77484">
        <ele>442</ele>
        <time>2020-09-23T17:33:00Z</time>
      </trkpt>
      <trkpt lat="47.51765" lon="6.77485">
        <ele>443</ele>
        <time>2020-09-23T17:33:02Z</time>
      </trkpt>
      <trkpt lat="47.5177" lon="6.77485">
        <ele>443</ele>
        <time>2020-09-23T17:33:04Z</time>
      </trkpt>
      <trkpt lat="47.51775" lon="6.77486">
        <ele>443</ele>
        <time>2020-09-23T17:33:06Z</time>
      </trkpt>
      <trkpt lat="47.5178" lon="6.77488">
        <ele>442</ele>
        <time>2020-09-23T17:33:08Z</time>
      </trkpt>
      <trkpt lat="47.51785" lon="6.77491">
        <ele>440</ele>
        <time>2020-09-23T17:33:10Z</time>
      </trkpt>
      <trkpt lat="47.5179" lon="6.77492">
        <ele>440</ele>
        <time>2020-09-23T17:33:12Z</time>
      </trkpt>
      <trkpt lat="47.51795" lon="6.77493">
        <ele>441</ele>
        <time>2020-09-23T17:33:14Z</time>
      </trkpt>
      <trkpt lat="47.518" lon="6.77494">
        <ele>442</ele>
        <time>2020-09-23T17:33:16Z</time>
      </trkpt>
      <trkpt lat="47.51804" lon="6.77493">
        <ele>442</ele>
        <time>2020-09-23T17:33:19Z</time>
      </trkpt>
      <trkpt lat="47.51806" lon="6.77486">
        <ele>443</ele>
        <time>2020-09-23T17:33:22Z</time>
      </trkpt>
      <trkpt lat="47.51804" lon="6.77481">
        <ele>443</ele>
        <time>2020-09-23T17:33:26Z</time>
      </trkpt>
      <trkpt lat="47.51801" lon="6.77479">
        <ele>444</ele>
        <time>2020-09-23T17:33:37Z</time>
      </trkpt>
      <trkpt lat="47.51801" lon="6.77478">
        <ele>444</ele>
        <time>2020-09-23T17:33:38Z</time>
      </trkpt>
    </trkseg>
  </trk>
</gpx>